GFSSGP_850_rhum_000.txt.gz
RH
13 4 16 21 16 28 26 22 26 40 64 66 64 73 87 88 76 81 85 75 88 86 80 85 88 89 91 91 84 83 82 83 80 71 53 40 36 35 27 24 31 28 14 13 13 14 15 16 17
6 6 19 19 30 27 23 21 48 53 57 48 49 61 74 82 89 83 96 80 86 91 92 93 94 92 91 86 85 84 86 78 65 50 39 30 31 24 23 28 26 17 14 14 13 13 14 16 18
3 16 19 28 34 24 24 42 46 49 47 43 52 56 67 64 98 84 88 77 86 87 88 90 91 88 84 82 83 81 74 62 51 39 31 26 26 17 21 22 17 15 14 14 13 13 15 18 18
10 18 16 24 23 21 20 37 45 47 41 40 41 58 60 63 72 76 82 86 83 87 90 89 86 84 81 80 72 60 56 48 41 31 22 26 17 12 16 15 13 13 15 19 24 26 25 23 20
16 18 22 21 19 18 18 30 39 48 48 40 29 54 65 84 83 79 85 89 84 92 90 88 86 81 75 67 57 48 43 39 31 18 25 19 13 15 16 22 28 27 26 25 23 26 28 29 31
22 18 23 21 18 21 27 35 43 49 48 48 55 65 83 80 75 81 91 89 87 84 88 88 81 69 60 57 44 38 32 30 22 23 19 23 24 26 27 27 24 24 22 21 22 23 21 22 24
21 22 21 19 29 24 20 40 42 43 44 52 58 68 97 84 76 74 86 85 81 74 71 71 65 56 53 40 35 28 24 22 17 18 30 32 33 33 33 28 27 26 27 29 30 30 30 31 31
17 21 21 27 25 29 12 37 42 43 50 51 49 90 97 87 81 80 76 75 70 65 63 51 39 33 28 29 24 12 12 14 18 28 40 39 40 37 36 33 31 33 34 37 39 43 44 44 41
16 24 24 22 27 24 17 22 39 44 47 44 44 58 59 70 83 81 76 63 57 42 27 22 19 16 19 19 10 11 12 16 29 37 41 38 39 37 34 34 35 38 40 45 49 52 53 54 57
20 25 20 14 14 27 22 24 34 43 46 47 47 58 67 71 55 56 50 32 27 19 20 26 18 8 12 12 16 19 23 24 34 40 43 39 37 36 36 36 37 40 45 51 50 48 47 50 50
18 19 12 8 11 13 20 16 30 44 45 45 52 69 78 75 47 24 22 20 17 22 30 29 28 25 18 21 30 29 34 32 44 38 42 42 38 34 37 39 40 40 40 40 38 36 34 37 36
12 11 8 9 8 12 21 15 35 27 27 31 30 43 70 56 44 38 34 21 20 35 40 37 27 37 45 44 44 45 47 52 57 49 30 36 42 41 47 48 46 42 37 36 35 34 35 35 35
10 8 11 9 7 10 10 17 28 18 31 35 41 48 49 50 50 46 36 22 28 40 44 44 29 36 44 55 59 59 64 67 68 68 56 52 54 55 55 54 53 53 47 41 40 40 40 40 39
11 9 10 11 8 7 10 12 11 12 32 39 37 41 43 44 42 45 39 33 34 42 48 50 44 44 59 66 69 70 72 74 76 73 68 64 58 59 61 61 64 57 50 48 43 41 41 44 46
9 10 11 11 12 12 11 14 14 22 41 38 39 43 51 58 50 44 40 34 33 42 50 57 57 48 67 67 71 75 74 74 71 71 72 61 65 64 65 68 64 55 46 43 42 40 42 45 44
14 17 15 11 14 15 10 13 19 42 40 46 44 43 45 49 48 42 39 40 46 51 56 62 69 60 59 68 73 77 83 73 68 63 61 67 65 66 64 63 58 44 42 40 36 44 43 44 44
19 19 16 14 16 16 15 24 41 31 49 53 51 49 47 46 46 42 39 37 38 43 59 69 76 72 66 62 76 84 91 74 83 75 70 62 56 47 42 40 42 43 35 36 43 46 46 44 42
16 17 17 17 17 44 40 60 60 46 47 57 53 51 51 51 49 49 50 48 48 44 51 76 80 77 81 80 95 78 60 61 64 56 42 38 38 40 42 40 35 37 37 40 46 47 46 43 40
16 17 18 20 25 48 57 60 60 66 64 65 64 60 56 51 54 53 56 55 55 69 72 65 64 77 82 80 66 64 66 64 49 40 40 41 36 36 35 37 39 43 46 50 48 42 37 33 29
26 29 34 32 34 47 50 52 50 53 61 67 66 67 63 63 65 68 75 80 80 80 68 58 60 62 61 63 62 55 39 35 37 37 40 38 40 40 39 41 46 52 45 40 38 33 30 27 22
34 28 28 39 42 42 44 50 53 49 61 63 62 60 57 52 58 65 65 63 55 51 46 42 41 40 39 37 39 43 43 42 42 44 42 43 44 42 48 52 51 52 57 54 48 35 30 33 32
31 28 33 45 44 51 38 70 46 53 62 63 60 57 52 49 51 49 47 40 36 36 37 39 39 43 43 44 46 49 52 51 50 48 47 47 50 54 56 57 54 50 56 46 40 40 38 45 36
32 30 32 31 38 39 42 62 51 56 65 65 62 57 52 46 44 41 39 41 40 44 45 46 48 48 49 51 52 54 55 54 53 50 50 56 58 54 46 36 48 49 53 48 47 50 52 43 49
29 38 45 51 52 60 44 54 60 67 62 62 58 55 50 48 45 42 45 44 45 46 48 48 50 52 52 53 55 56 57 57 54 55 56 59 53 53 49 48 53 56 67 61 49 42 39 43 44
38 44 64 58 69 71 49 52 51 48 52 54 55 51 50 49 46 48 49 48 48 48 49 50 52 54 56 57 58 60 57 51 52 59 61 65 67 62 58 58 71 79 63 62 63 61 42 40 38
33 43 65 57 78 61 46 58 51 43 39 42 42 46 52 53 56 57 51 47 50 51 53 56 57 57 57 61 61 55 47 40 41 50 51 50 48 57 60 63 75 66 65 86 65 63 41 46 45
34 44 40 69 67 67 65 47 43 52 52 47 47 51 55 58 56 55 54 53 53 53 53 50 45 46 51 49 45 33 26 23 21 18 16 14 12 21 65 83 82 93 87 79 89 58 46 51 48
30 37 43 66 54 64 64 58 64 56 58 55 55 52 55 58 55 55 55 54 53 52 47 44 41 42 43 40 37 33 25 21 18 14 11 5 4 57 86 83 86 95 89 80 54 50 43 48 52
38 40 55 58 69 68 81 68 51 53 55 54 52 51 54 56 56 55 55 55 52 48 45 41 40 43 42 37 30 25 25 21 17 12 9 10 40 71 75 70 86 80 70 50 47 39 47 52 54
32 36 41 57 44 85 82 56 55 58 47 43 57 59 60 58 55 56 55 52 46 42 38 40 42 41 35 31 28 32 33 29 21 18 17 22 51 74 76 76 87 80 45 42 42 43 51 51 57

GFSSGP_850_rhum_003.txt.gz
RH
20 12 4 19 17 20 20 18 24 54 67 73 75 69 73 83 80 81 94 77 73 86 93 97 91 85 82 87 87 84 80 79 74 53 39 36 34 26 26 30 22 13 12 12 12 11 12 14 15
14 4 17 21 16 16 18 20 47 56 61 59 57 58 65 73 76 84 98 79 75 72 86 97 92 87 92 93 88 86 83 75 54 40 34 31 24 25 27 22 16 14 13 13 11 11 14 17 19
7 11 20 20 24 16 20 40 45 52 58 54 61 65 66 67 56 90 94 83 82 81 92 96 94 95 96 91 90 86 76 60 44 34 26 27 18 23 24 17 15 14 13 13 16 18 20 22 24
6 18 18 19 20 19 17 41 45 44 46 42 52 57 58 46 53 81 88 85 82 87 92 94 97 95 91 91 85 73 60 50 39 26 27 25 15 21 18 13 13 22 26 24 22 21 23 26 28
16 18 19 19 17 17 18 39 45 48 48 39 38 59 80 77 74 77 94 87 83 85 89 93 94 92 90 82 70 61 57 47 31 23 29 15 15 16 22 29 29 26 20 20 20 20 19 21 23
22 19 18 17 20 22 24 38 44 40 42 44 52 64 85 82 86 79 81 82 82 83 91 94 92 89 80 67 66 58 49 34 19 27 20 18 21 28 32 31 29 26 28 27 26 26 27 27 28
20 18 17 17 28 24 32 44 45 40 39 51 57 74 100 99 76 75 84 87 89 86 91 91 85 76 69 70 50 45 34 24 22 20 27 28 30 30 31 32 30 31 32 33 35 36 36 36 36
19 16 19 27 26 22 20 35 38 42 48 55 53 80 96 89 81 87 89 91 89 89 90 84 75 83 84 61 51 29 26 19 23 26 33 33 32 32 31 31 33 33 35 39 42 44 44 44 42
18 18 28 23 24 25 22 25 36 45 49 48 47 73 70 73 81 90 97 89 99 97 74 56 69 58 44 42 31 22 20 20 22 34 38 36 36 35 36 36 35 35 36 38 41 45 49 46 42
18 19 18 18 21 24 20 18 34 43 44 46 57 69 72 74 78 84 100 99 70 62 41 42 47 48 38 36 22 18 16 23 36 44 42 40 42 38 41 39 38 40 39 38 39 42 44 42 38
20 17 13 9 6 18 22 19 36 40 38 41 62 82 76 92 93 89 84 38 36 31 27 27 20 21 28 27 25 28 29 46 49 51 51 50 50 49 45 43 43 44 41 37 35 33 34 36 37
15 14 8 6 7 16 18 28 39 31 26 30 36 44 63 87 58 24 19 24 22 23 33 36 31 24 21 33 46 54 58 63 67 54 57 64 57 50 51 50 48 46 42 39 38 36 38 38 37
13 10 11 8 11 18 12 28 32 14 26 30 40 55 58 61 47 28 26 22 19 34 41 37 46 51 54 64 68 70 72 77 78 79 72 66 68 62 56 57 54 54 50 46 44 42 42 37 35
11 11 12 9 10 9 14 12 17 17 35 33 39 42 55 58 48 37 34 26 22 44 55 48 47 61 64 71 74 72 62 64 73 75 82 80 73 64 63 61 60 59 58 52 47 42 33 28 33
10 11 12 14 13 15 12 14 20 47 42 42 72 72 72 68 52 46 41 30 31 47 56 60 47 66 72 72 66 56 52 51 64 68 78 72 70 63 63 62 64 63 50 41 38 31 30 33 37
13 16 14 12 15 16 10 14 32 40 48 49 56 65 62 62 63 62 55 47 47 51 57 67 68 56 63 63 60 55 44 54 72 78 71 68 68 66 61 51 40 40 39 35 35 36 40 42 42
19 16 17 16 27 17 18 28 44 37 51 53 47 46 48 50 50 51 48 46 43 52 61 71 81 70 59 62 60 65 64 70 56 52 49 43 39 38 38 39 39 35 36 41 43 45 45 45 44
17 17 17 17 23 32 38 50 52 60 54 59 57 53 48 44 44 44 44 45 44 44 55 72 81 72 65 75 75 78 62 55 55 44 33 32 36 36 38 38 38 39 42 45 47 46 41 36 33
16 17 18 20 33 42 51 53 55 62 62 65 66 60 55 51 51 54 57 56 53 57 62 61 65 75 65 62 63 64 59 57 46 31 31 34 36 38 42 42 42 45 47 49 50 50 48 44 40
26 28 34 34 35 39 45 55 54 57 65 68 66 67 60 61 67 68 69 71 70 68 73 68 62 55 54 57 56 56 44 31 37 38 38 40 41 44 45 46 50 54 57 56 52 50 43 39 34
32 31 35 34 36 35 38 47 57 57 65 69 71 72 74 75 85 90 79 63 54 51 52 48 45 54 50 41 41 43 45 43 43 45 46 45 46 48 53 57 57 46 38 42 44 46 44 58 48
34 32 37 39 36 36 34 38 55 58 62 62 66 68 70 72 72 66 53 47 42 37 38 40 41 42 44 45 46 48 50 50 49 48 47 48 53 55 54 52 45 34 47 49 54 55 48 43 62
35 37 33 32 32 32 37 37 44 55 63 60 61 65 63 60 54 46 41 36 36 40 43 45 46 47 48 49 50 51 52 53 54 52 53 54 56 56 50 46 36 36 55 64 62 50 43 39 34
38 37 40 43 40 43 38 34 41 56 53 55 58 62 55 47 41 40 39 40 44 46 47 47 49 50 52 52 53 54 54 54 53 49 45 42 41 36 30 27 36 49 57 67 62 55 78 60 53
34 38 48 49 54 47 46 44 34 38 45 47 51 54 50 46 43 46 45 46 46 46 46 47 50 52 56 61 59 57 56 45 27 20 16 12 10 9 13 36 55 65 76 69 73 74 64 51 44
36 37 53 57 60 45 45 48 33 36 39 44 47 51 49 49 50 50 48 46 45 47 50 53 57 58 54 51 44 40 29 23 17 12 8 6 5 3 2 16 67 86 80 77 87 75 70 47 51
33 36 40 58 60 54 46 42 34 42 40 49 53 53 56 52 53 53 52 51 54 56 58 55 47 44 46 44 38 30 25 23 21 17 12 8 7 8 17 53 87 91 82 84 83 60 56 50 48
31 35 39 47 56 54 45 51 40 49 43 44 51 53 54 52 54 57 58 59 60 57 50 49 48 44 44 42 32 26 24 25 22 22 14 11 11 15 59 89 91 97 79 62 51 52 46 44 50
35 38 50 45 53 42 48 37 43 43 40 43 44 54 49 53 57 60 60 60 55 49 48 48 46 44 43 34 29 29 32 32 34 24 15 16 22 35 78 86 87 77 78 68 49 42 43 46 50
32 36 38 44 39 62 61 36 48 52 46 47 47 48 50 54 59 60 60 56 49 45 41 39 45 44 36 31 31 34 38 39 37 26 21 29 36 54 86 84 82 80 86 44 46 44 46 50 53

GFSSGP_850_rhum_006.txt.gz
RH
17 12 4 19 15 12 14 14 27 45 52 54 57 53 58 63 64 72 98 99 99 97 96 95 85 72 71 75 78 78 75 74 69 58 44 36 29 24 28 22 13 12 13 12 11 11 14 18 20
19 8 12 15 15 15 13 13 24 44 49 49 53 47 45 47 76 95 97 96 96 92 96 98 90 81 79 83 84 80 79 75 59 44 34 27 22 27 22 15 14 14 13 12 13 16 20 22 24
14 9 13 10 10 13 14 22 39 41 43 39 49 59 59 54 67 84 79 85 83 99 98 95 90 85 89 90 85 82 77 62 46 35 30 21 26 25 17 15 14 14 19 21 21 21 24 24 22
11 16 15 12 10 9 16 30 35 36 39 41 52 52 56 44 42 51 71 64 90 90 93 87 88 94 98 90 86 79 66 54 40 29 28 18 25 22 14 13 22 24 20 19 18 19 21 25 25
13 13 11 11 11 11 17 30 31 30 30 36 40 49 47 82 91 66 62 84 99 94 95 96 99 100 94 90 80 72 62 51 36 30 30 17 23 16 19 28 27 24 24 22 22 23 24 25 27
12 13 12 12 11 15 12 27 33 30 27 31 37 46 56 92 93 72 81 90 91 89 91 96 98 93 90 82 72 66 61 50 29 34 24 19 18 29 32 31 26 29 26 27 27 28 31 35 36
13 10 10 11 18 22 19 30 30 29 28 31 40 46 94 96 90 92 99 89 75 93 88 92 92 90 85 80 73 68 57 40 31 35 29 24 32 36 33 30 31 30 31 35 37 40 44 44 40
14 10 11 14 21 26 27 33 30 23 27 42 46 45 89 100 96 93 87 90 84 89 90 88 85 76 73 75 75 58 47 39 40 34 37 39 39 35 33 34 33 32 37 42 46 47 46 43 42
17 10 12 20 23 32 33 29 28 29 38 44 45 53 73 96 93 99 98 93 89 92 96 96 95 87 78 92 69 64 45 37 37 46 48 50 80 68 70 35 33 36 39 41 42 44 44 40 58
14 12 14 15 19 20 19 20 28 36 39 40 53 71 89 90 92 98 100 96 96 96 96 89 75 76 72 88 82 64 52 79 82 81 61 83 62 66 42 42 36 38 39 40 38 35 37 59 63
14 12 10 13 18 16 16 17 23 27 34 33 53 73 93 87 92 100 100 97 99 99 100 100 98 57 87 81 80 73 74 68 65 56 66 74 64 71 86 77 74 75 50 70 59 57 59 38 42
15 12 10 7 6 15 16 19 24 22 21 30 59 77 90 95 96 85 85 73 79 90 87 51 77 68 48 73 71 45 65 57 56 61 62 63 62 60 62 75 76 57 65 49 52 60 43 42 40
14 11 10 7 10 17 21 24 24 23 34 47 65 75 77 76 73 65 62 65 70 74 85 76 39 30 38 57 59 65 69 71 68 67 58 56 63 71 80 73 67 59 57 56 59 58 52 47 48
12 9 8 9 13 13 19 21 17 21 41 50 62 62 66 72 62 61 59 61 63 75 44 46 52 57 78 78 76 73 65 64 69 74 81 78 68 60 67 73 64 60 61 61 54 41 39 44 40
10 8 8 10 11 11 9 11 20 32 42 50 50 53 59 60 58 52 50 51 60 77 71 50 62 69 73 66 60 58 53 60 67 65 73 74 73 69 77 60 62 59 48 39 38 40 50 48 47
9 8 10 13 9 12 10 11 23 36 35 41 48 57 60 60 54 53 55 50 59 80 75 56 46 64 66 59 54 52 59 62 64 55 56 60 61 65 63 48 41 39 37 36 49 54 50 50 52
11 10 10 11 16 10 8 11 26 39 33 35 44 50 53 58 61 62 54 51 62 77 76 73 61 54 50 54 48 62 68 64 57 52 47 46 43 43 42 38 38 38 40 45 49 56 55 52 54
12 9 8 9 18 11 14 23 26 38 36 35 38 44 48 52 60 64 56 59 67 82 87 65 63 60 64 64 60 69 67 55 55 46 38 39 42 41 40 44 43 45 58 57 60 59 60 62 66
9 11 10 14 24 23 25 25 28 37 40 42 41 42 44 52 68 68 64 75 79 88 82 61 62 62 74 57 63 65 65 57 54 36 37 40 43 42 44 56 60 62 66 73 70 64 60 60 66
11 11 17 22 25 22 25 32 32 34 40 41 42 45 50 64 72 85 86 86 87 84 83 84 73 82 70 67 64 61 63 50 35 40 41 45 46 48 54 57 65 69 67 68 79 72 58 47 63
18 16 22 16 25 23 24 30 34 41 44 49 47 48 55 62 72 83 89 91 91 90 90 84 77 67 65 54 46 41 41 44 53 57 56 53 48 50 56 65 66 68 69 66 71 69 72 60 57
19 21 21 25 22 20 24 22 35 40 45 46 52 54 60 68 74 79 84 89 87 89 85 72 64 55 41 43 48 48 55 55 53 56 62 65 64 51 52 65 58 59 62 64 71 71 71 70 52
25 24 23 22 21 23 24 22 34 39 45 47 51 56 62 67 67 68 68 69 65 57 56 50 41 42 43 46 48 52 55 60 62 64 62 63 60 62 60 60 65 63 60 69 84 86 74 67 66
26 25 25 24 24 29 21 24 21 37 34 42 47 51 55 56 53 49 51 50 50 58 41 43 44 47 48 49 52 53 47 45 43 38 35 30 27 26 31 38 62 73 74 89 89 82 82 77 68
25 24 28 28 32 32 32 29 18 22 29 36 43 44 50 49 42 42 45 45 53 60 51 52 52 52 54 57 48 39 37 34 30 24 28 24 28 30 34 31 54 73 86 96 91 90 80 77 68
25 23 25 33 38 22 33 26 18 24 27 34 39 40 44 44 45 46 45 49 57 61 59 54 57 58 52 44 40 37 29 26 31 28 24 40 41 46 56 60 77 93 98 98 95 96 81 74 65
27 28 27 39 46 40 23 24 24 27 28 33 34 37 40 42 47 48 54 57 62 62 62 62 55 46 43 42 49 29 27 29 28 35 39 40 45 53 67 82 94 100 99 97 92 75 72 68 62
24 24 32 34 45 39 24 30 23 33 31 31 32 37 37 40 46 54 59 62 62 67 63 53 47 44 60 59 33 30 33 36 33 28 22 24 32 52 72 83 97 98 97 86 76 67 61 61 56
28 26 28 28 38 29 24 14 26 27 29 32 34 36 37 42 49 58 62 66 66 64 52 49 46 53 48 36 30 33 35 35 33 41 32 25 22 65 71 80 88 90 79 74 83 65 60 59 58
24 23 20 24 29 42 49 20 26 32 32 29 32 36 39 46 51 58 63 70 70 56 49 43 46 44 38 33 32 34 34 36 43 55 56 52 59 67 76 85 86 82 79 83 67 60 60 58 60

GFSSGP_850_rhum_009.txt.gz
RH
7 11 19 11 13 12 14 11 9 28 42 46 42 39 42 51 56 69 77 85 86 100 91 69 63 65 68 73 74 75 74 70 68 51 38 34 25 23 26 15 11 12 12 11 13 18 22 23 22
28 17 11 11 15 15 12 8 13 41 47 43 40 38 36 47 62 86 88 91 95 99 85 80 67 65 72 78 82 80 78 73 54 36 30 22 24 27 16 13 12 13 14 17 20 22 21 21 20
20 11 8 8 12 12 11 13 30 34 37 37 39 38 38 39 64 75 87 92 98 97 95 90 77 73 83 87 86 83 79 66 44 35 30 21 30 20 15 14 14 19 20 21 22 22 25 26 27
14 8 11 12 12 9 9 28 32 29 32 36 39 43 42 47 56 72 94 97 98 96 99 79 85 84 89 93 89 86 75 55 42 32 28 22 29 17 14 17 22 20 22 22 23 27 29 32 32
12 7 8 10 10 9 8 29 22 26 31 31 32 38 40 50 67 74 87 93 89 92 79 85 92 92 97 94 88 80 67 53 35 33 28 23 24 14 20 27 22 24 24 26 27 29 33 32 31
7 8 10 11 11 9 8 22 31 36 33 32 28 34 43 64 62 80 89 98 90 88 92 90 74 86 94 89 84 74 66 48 32 36 23 22 19 30 30 25 27 27 27 28 30 34 36 33 32
8 8 10 10 10 11 12 18 35 35 34 35 35 39 53 62 67 85 91 71 80 75 90 93 93 93 90 83 80 72 65 40 32 33 22 23 35 34 32 28 29 30 34 37 39 40 40 37 35
8 9 10 9 11 21 14 20 25 24 26 32 28 37 53 59 88 97 97 91 87 98 82 93 94 84 81 74 74 70 55 34 34 31 32 39 40 35 35 36 33 33 37 42 43 43 42 38 61
11 12 10 10 18 35 22 22 20 21 23 28 60 41 56 74 90 97 98 90 93 93 87 86 88 90 86 82 67 45 35 29 33 44 45 57 76 74 73 57 36 36 40 41 38 36 36 52 62
9 10 9 12 20 29 25 20 30 22 29 34 50 51 70 74 82 87 89 96 94 96 96 92 91 83 88 87 74 84 65 71 77 82 82 72 73 74 52 64 39 41 43 44 51 51 59 59 56
9 12 13 23 17 17 17 16 18 34 30 28 44 57 58 68 81 81 80 64 64 90 93 93 73 92 82 79 67 62 66 75 83 87 80 75 84 80 80 77 71 74 70 67 62 61 61 69 64
12 11 10 9 13 13 13 12 30 45 57 39 37 52 51 65 78 74 71 60 76 87 93 87 82 86 84 65 59 62 71 78 78 85 83 87 85 51 46 78 75 69 66 66 63 61 64 58 52
11 10 10 8 9 13 14 15 16 20 26 34 46 53 50 57 54 54 48 51 61 67 77 74 80 84 82 71 78 80 91 86 80 86 86 80 87 55 58 54 46 58 68 64 63 59 53 46 44
10 11 7 10 12 15 18 14 13 26 30 40 46 43 43 45 43 43 44 48 53 62 75 80 76 81 82 87 91 86 59 59 71 64 70 79 74 68 60 59 68 70 69 65 60 54 52 49 48
9 9 8 13 13 15 11 13 17 28 31 35 35 35 39 38 38 40 42 47 53 64 73 78 88 88 91 88 65 53 43 44 80 72 63 82 85 70 69 69 66 69 64 49 53 54 52 49 48
9 9 16 15 10 8 7 14 16 24 29 30 32 35 38 40 37 36 37 40 55 64 69 78 85 85 72 55 49 54 47 48 60 56 52 55 56 55 60 71 69 50 39 42 48 55 56 56 51
9 12 13 14 8 5 7 12 17 19 25 28 33 36 38 40 38 39 40 40 54 66 73 77 80 60 61 56 62 56 53 61 57 53 47 38 38 41 46 60 61 48 59 58 60 58 61 58 58
13 11 10 9 8 6 9 14 16 18 20 26 30 35 40 42 42 44 42 41 53 66 74 81 83 64 57 77 67 64 66 62 60 58 50 42 58 44 58 61 70 63 59 60 66 75 68 65 57
10 8 8 8 8 8 12 12 15 19 19 22 25 31 36 39 44 52 47 48 55 69 75 84 81 83 77 67 61 61 60 62 61 60 41 46 50 62 62 63 64 65 64 68 70 70 68 62 48
9 10 11 11 12 16 13 16 16 18 20 23 24 26 30 37 50 54 59 58 60 72 77 78 80 79 63 59 54 57 58 58 53 56 49 58 66 64 62 69 70 68 68 65 66 66 68 57 46
10 10 15 15 16 15 13 20 23 21 25 28 28 28 31 40 50 62 67 68 70 75 76 75 71 65 57 60 58 53 42 49 54 54 54 64 72 71 69 66 66 68 66 57 55 58 69 61 54
14 14 14 14 18 18 12 21 21 26 27 28 30 32 36 42 52 62 68 71 74 75 73 64 63 62 64 52 52 56 51 51 61 58 60 62 59 57 52 47 51 57 62 60 56 55 71 68 57
32 16 16 16 18 16 18 16 58 26 28 28 31 35 39 46 53 59 64 72 66 70 68 62 61 55 56 59 60 56 57 56 55 51 42 35 32 30 29 30 35 42 58 63 67 72 74 69 67
18 19 17 15 16 25 15 21 34 26 22 26 32 39 46 51 55 57 58 60 67 66 66 63 54 56 61 63 59 57 48 44 39 37 31 30 29 31 34 41 48 51 54 69 70 78 77 90 86
17 19 22 23 28 26 16 20 16 13 18 21 32 40 47 50 47 44 49 46 51 58 62 58 55 60 65 66 56 42 43 40 34 36 35 38 36 37 41 54 62 62 63 73 81 82 83 94 90
18 15 23 28 26 18 20 20 13 14 14 18 30 36 43 44 39 38 40 39 48 57 60 55 57 61 62 49 43 51 44 39 39 43 44 39 40 42 50 59 72 71 76 82 90 93 90 95 86
16 24 17 24 28 30 18 12 12 19 18 21 30 34 39 39 35 33 36 39 47 57 59 58 57 54 46 45 64 64 42 27 43 51 47 42 44 45 48 63 70 79 84 93 92 86 79 65 67
21 16 25 22 31 34 18 17 14 24 22 22 29 32 35 35 34 36 37 43 50 58 60 61 53 44 48 58 51 48 36 49 53 51 48 46 52 54 57 60 64 72 78 87 76 69 73 79 64
23 20 20 22 29 35 26 17 15 13 19 22 25 29 32 33 34 38 42 49 54 58 61 57 46 46 53 52 48 36 50 54 54 52 52 52 57 56 57 60 66 65 65 67 70 73 76 64 62
20 20 20 30 26 30 39 22 16 19 20 21 23 26 30 32 33 38 47 52 54 60 60 50 46 50 49 46 46 51 54 53 51 52 54 57 60 61 64 69 69 64 64 64 62 63 59 60 69

GFSSGP_850_rhum_015.txt.gz
RH
12 4 16 26 27 26 26 20 18 44 47 37 41 56 72 72 78 87 98 89 82 70 67 65 57 58 62 66 68 66 63 56 40 29 22 18 19 10 11 11 14 17 18 21 25 28 28 27 28
10 8 26 26 22 27 26 27 57 49 38 35 36 44 58 77 85 96 99 74 68 69 69 61 59 66 72 74 73 70 66 51 33 24 16 19 14 12 13 15 18 18 22 28 29 29 28 28 27
9 31 36 23 23 24 23 29 51 41 36 36 37 36 44 80 84 94 92 96 91 64 63 62 69 76 80 81 79 77 66 40 29 18 17 18 13 14 16 18 18 20 25 29 29 28 28 28 28
24 19 16 16 19 16 15 26 48 48 44 39 38 43 42 66 74 77 99 100 71 62 67 74 81 85 88 87 83 76 52 36 24 15 20 17 14 16 17 18 21 24 28 30 31 28 29 37 34
23 21 14 16 16 13 19 43 54 64 65 50 33 40 53 66 72 81 96 100 76 82 85 88 91 94 95 91 85 67 45 28 20 14 21 16 15 20 17 21 24 26 29 31 31 30 31 49 48
27 13 18 17 11 8 49 55 58 60 56 46 42 42 62 70 70 77 75 90 100 90 93 96 92 100 96 92 82 60 41 20 18 12 21 15 21 19 21 24 26 28 30 32 33 33 39 57 54
27 23 19 13 11 29 45 46 52 55 51 48 44 76 77 74 70 66 72 79 99 96 96 100 99 98 78 76 74 56 35 15 20 14 16 24 24 20 20 24 28 31 34 34 34 34 53 62 59
17 18 18 15 14 45 46 45 43 42 48 44 47 63 73 77 62 69 81 91 95 93 98 93 92 98 76 87 70 48 24 19 16 19 26 25 25 28 27 25 25 32 34 33 40 49 57 64 59
15 16 16 34 58 60 56 52 41 46 46 41 50 54 66 73 81 70 78 85 65 98 76 62 60 79 86 72 62 39 19 20 25 33 44 62 69 70 68 41 36 38 57 55 64 62 63 63 61
17 18 17 41 43 53 49 46 42 40 55 76 49 70 84 86 78 68 67 59 63 87 64 52 79 88 77 56 39 24 22 33 45 75 75 75 78 69 73 73 78 72 74 71 64 63 66 62 55
14 16 28 40 35 39 42 46 49 41 56 54 51 52 86 81 76 68 65 58 65 90 86 82 84 75 50 33 38 47 56 58 70 84 86 79 84 79 80 74 74 75 71 67 67 65 64 58 50
15 11 11 25 30 39 43 45 50 42 45 52 52 55 65 70 80 85 81 81 88 89 76 82 85 72 58 58 66 71 69 62 61 92 88 80 59 74 61 73 76 73 65 65 65 64 61 56 54
13 12 11 14 27 28 36 45 35 45 38 54 66 67 64 67 76 74 81 83 89 89 85 90 84 66 70 67 71 79 82 90 92 74 83 80 72 64 58 61 59 59 65 60 59 65 64 53 38
10 10 9 10 20 24 28 34 30 39 40 43 61 59 61 64 66 64 78 88 80 82 86 87 66 65 63 72 74 70 80 85 73 50 54 57 62 67 73 73 65 58 50 46 52 57 40 40 45
13 12 10 15 24 25 21 36 39 40 42 43 52 55 59 51 60 57 60 72 69 81 77 64 68 72 63 66 62 57 58 53 49 50 57 63 74 80 75 70 61 40 37 42 40 41 44 45 46
14 14 17 17 18 23 23 37 41 39 40 36 45 47 52 44 47 55 66 68 70 74 61 66 73 72 65 58 56 48 47 55 54 56 52 58 63 59 46 38 34 38 41 42 49 57 61 60 60
18 25 26 19 14 18 23 33 36 33 36 35 33 35 39 40 43 47 54 61 65 53 62 88 84 75 63 53 49 54 55 54 56 51 43 36 32 33 35 41 50 54 56 58 60 63 64 57 66
22 28 25 24 16 16 13 24 36 32 33 39 37 38 34 36 39 42 46 55 60 54 80 84 78 66 64 61 65 61 62 58 52 43 34 34 38 45 46 49 51 53 59 62 62 63 49 56 65
18 16 23 20 16 13 16 23 35 40 34 29 41 45 44 35 37 37 43 55 60 63 75 80 68 70 62 66 60 62 54 50 40 46 42 44 44 46 47 51 56 51 44 49 53 47 57 55 52
22 24 22 14 9 9 18 22 23 50 47 32 49 47 46 35 36 36 46 56 62 68 73 70 68 69 61 74 57 57 55 52 48 45 50 54 55 51 48 45 42 42 39 36 38 48 51 47 59
21 25 21 18 12 14 21 28 30 26 34 49 56 42 47 39 40 41 40 55 64 70 74 68 66 61 78 85 65 64 62 55 54 58 62 60 59 54 47 38 28 21 26 28 33 45 55 66 69
28 21 25 19 24 28 20 47 46 28 27 27 35 40 36 37 41 43 45 55 65 71 73 74 74 70 80 68 59 61 56 55 59 63 62 59 44 31 20 10 8 9 9 9 15 31 51 65 70
22 20 22 23 25 36 28 40 48 35 30 31 27 25 34 37 42 48 50 52 61 68 75 77 79 78 60 56 54 48 50 58 59 58 54 38 37 19 12 8 8 8 8 18 38 58 70 76 79
18 20 22 27 32 57 37 39 53 48 34 32 32 23 28 37 45 49 51 55 58 62 77 75 77 70 58 53 50 48 52 56 56 52 40 50 43 19 10 8 8 8 20 49 69 73 79 82 79
23 31 48 46 69 65 39 44 37 41 30 32 34 24 31 40 45 52 58 61 60 65 74 75 73 63 60 56 53 53 52 52 49 43 52 51 28 10 7 8 7 11 38 69 68 62 59 65 66
24 29 59 54 85 63 47 44 34 22 29 28 25 24 27 40 49 54 58 58 63 72 76 70 63 61 60 51 56 57 55 48 46 52 48 29 13 10 9 8 8 28 64 73 76 62 61 63 76
21 32 30 67 69 83 51 31 22 32 36 43 37 37 36 42 46 50 58 63 66 76 70 63 61 60 58 51 56 54 48 48 52 48 30 18 13 12 16 14 14 28 60 71 75 78 70 77 78
21 21 38 54 69 55 31 30 35 30 31 44 53 42 45 46 50 54 60 69 71 72 68 65 58 57 56 56 57 49 53 53 50 35 23 23 21 17 16 14 36 44 37 59 65 68 72 72 63
27 27 23 31 56 61 74 46 18 22 23 41 45 42 43 46 48 49 54 57 57 56 54 54 56 56 58 62 57 49 55 52 44 31 35 28 23 28 23 37 49 48 58 65 65 65 65 64 67
20 24 35 63 36 72 76 53 20 18 17 19 26 38 40 42 44 42 43 46 44 43 45 50 57 56 59 60 50 53 51 49 43 45 45 42 42 40 38 45 48 57 69 69 67 65 64 69 69

GFSSGP_850_rhum_018.txt.gz
RH
17 13 10 24 31 30 28 23 17 38 47 56 56 70 84 82 85 73 99 95 74 58 61 71 70 60 56 59 60 60 59 42 26 16 15 11 9 11 13 16 17 21 26 27 27 26 28 39 40
14 9 19 30 28 28 25 21 46 51 42 38 40 60 74 86 93 99 100 93 65 56 74 78 67 58 60 64 66 64 56 35 21 16 16 10 11 13 16 16 20 26 28 28 28 27 28 32 44
13 16 36 33 30 27 24 35 56 54 37 37 38 42 66 95 95 97 89 88 71 67 81 69 63 62 68 70 71 66 43 27 17 17 14 11 13 16 16 19 24 27 28 27 29 35 32 34 45
20 29 32 16 18 17 17 28 51 47 40 39 38 51 75 86 93 85 86 84 80 75 73 68 64 70 76 78 78 54 33 21 15 18 13 13 16 17 19 22 26 28 29 28 29 39 42 37 36
23 25 19 17 15 13 15 41 56 76 60 48 39 57 84 97 86 94 99 100 98 82 75 70 79 83 86 84 67 42 28 18 14 19 14 15 17 18 22 25 27 29 30 30 32 43 48 46 44
30 19 21 20 15 24 54 58 57 68 62 44 49 71 98 100 95 100 100 99 92 94 91 97 98 99 98 82 55 40 26 15 16 19 14 18 17 21 24 27 29 32 33 34 35 50 53 51 48
32 32 28 21 18 32 51 53 62 57 51 52 57 84 99 100 100 99 100 89 85 94 99 99 98 91 78 81 54 44 22 20 14 17 17 21 19 24 27 29 32 34 35 34 42 50 53 54 55
23 23 20 16 60 68 61 53 50 47 50 51 48 74 98 100 99 100 99 93 94 89 99 86 81 73 60 65 63 32 23 16 14 19 26 25 23 26 28 28 33 36 36 50 58 57 56 58 59
22 22 22 20 50 50 52 56 45 49 53 58 64 77 99 99 97 91 84 90 85 93 94 83 66 70 84 81 52 26 24 21 28 34 32 44 58 57 36 42 61 68 66 66 64 66 66 64 62
19 24 21 22 45 53 48 42 45 50 63 90 100 99 100 94 92 69 58 65 75 68 78 69 67 61 80 69 38 26 27 39 60 67 66 75 69 68 60 72 73 70 70 66 65 66 67 61 53
18 22 20 39 37 38 46 46 47 50 67 62 98 98 87 82 97 82 57 52 43 50 64 73 72 80 73 44 27 30 47 81 84 83 83 76 67 62 69 77 78 72 69 67 67 66 65 55 49
18 14 14 35 35 39 40 46 53 48 46 52 86 68 77 83 83 76 55 61 61 52 67 84 74 61 49 42 34 54 56 85 87 85 79 76 79 81 73 71 76 73 67 66 67 66 61 60 58
17 15 13 19 32 36 34 43 39 52 53 54 72 85 97 74 57 66 61 71 66 72 64 72 65 60 56 63 65 71 77 81 88 82 80 78 68 70 60 64 62 62 65 61 54 53 61 56 42
18 14 12 26 30 32 36 40 37 53 56 64 70 72 80 85 68 70 73 76 70 74 73 82 69 63 69 75 76 83 90 81 74 64 52 56 68 72 63 68 68 63 53 45 38 44 40 38 42
20 14 22 27 29 30 32 40 51 56 67 72 67 71 72 61 76 69 73 79 80 77 84 83 70 72 66 73 81 88 86 80 54 50 51 61 68 67 69 72 65 46 33 34 38 39 41 46 47
22 16 21 24 26 30 30 48 40 49 52 56 62 64 68 72 71 74 66 74 76 81 85 78 71 69 72 74 80 82 79 63 52 54 59 62 64 62 56 56 37 34 40 43 43 44 48 57 63
24 23 24 20 18 28 28 51 43 43 47 52 57 56 67 73 76 71 71 58 55 59 72 69 69 66 68 76 73 57 54 56 52 54 44 46 40 34 32 35 40 42 43 45 48 54 60 62 41
23 27 27 24 18 27 32 40 46 44 44 48 55 56 54 66 70 70 72 63 59 66 62 72 72 71 67 69 61 63 60 57 55 50 40 34 33 36 39 39 36 37 38 47 54 50 40 27 39
22 21 24 24 20 19 26 42 48 43 40 48 45 49 51 53 53 63 68 65 66 62 45 66 74 77 73 62 57 62 55 56 52 41 35 34 37 40 36 35 38 32 23 20 22 19 26 33 34
23 24 26 25 20 14 27 44 44 50 40 42 40 40 43 51 57 59 60 65 67 53 61 79 82 81 74 60 58 52 49 50 41 39 34 34 38 40 37 39 32 24 18 17 20 26 30 38 56
24 25 28 24 15 22 27 32 37 43 38 41 45 38 35 39 52 56 63 63 63 60 56 67 78 73 72 61 62 50 50 49 48 42 40 42 45 44 40 35 24 21 13 12 11 13 28 48 67
31 22 26 23 24 27 21 44 41 36 37 48 38 44 34 38 43 45 53 60 59 61 60 59 63 68 65 65 63 58 54 55 51 42 42 48 52 40 39 25 15 12 10 7 7 11 28 53 74
29 27 22 24 34 32 32 43 34 44 29 46 50 43 32 40 41 41 42 46 56 61 66 66 66 70 68 72 85 67 60 58 55 52 53 57 50 40 31 19 13 9 7 8 14 27 56 76 82
21 21 34 36 42 57 45 38 43 48 30 24 35 42 40 39 50 43 41 48 59 66 67 77 77 76 78 80 72 70 64 60 56 58 60 56 45 41 26 14 11 10 9 11 31 54 72 61 56
25 37 47 43 66 60 43 42 39 32 37 33 33 31 39 43 48 51 45 52 62 63 68 77 80 82 77 66 64 62 63 56 58 60 57 47 41 27 15 10 9 10 12 21 48 64 77 59 58
28 33 54 46 72 50 50 57 42 30 25 27 27 30 40 44 46 49 54 55 62 62 70 80 81 83 69 60 58 56 56 60 60 52 49 45 30 16 11 13 16 14 21 37 62 78 72 74 66
24 30 32 65 76 69 58 36 23 35 40 35 38 36 37 47 47 49 53 54 56 66 75 70 68 80 73 60 62 62 59 56 52 48 50 36 18 18 38 20 13 13 24 37 54 72 78 70 80
24 23 36 58 61 63 40 39 40 31 33 38 46 41 33 45 46 50 54 55 61 64 66 68 72 71 66 68 67 66 61 54 51 50 41 24 47 26 19 18 15 16 21 32 45 62 66 67 67
37 31 28 41 60 57 69 47 25 27 31 34 42 34 32 42 51 52 54 58 61 64 68 69 73 69 66 65 69 64 58 50 52 52 40 50 35 45 26 22 23 21 18 41 55 64 68 66 67
30 30 33 60 35 77 78 51 28 23 23 31 35 35 32 38 47 45 46 50 55 60 67 71 72 68 70 67 61 58 59 54 54 52 40 45 59 44 33 38 38 30 34 58 68 69 62 59 63

GFSSGP_850_rhum_021.txt.gz
RH
23 18 12 24 34 33 30 26 18 32 56 64 62 66 89 98 79 68 96 94 71 80 84 85 76 63 50 50 50 57 46 26 15 14 8 10 12 14 16 20 25 26 26 26 35 40 45 46 41
17 12 15 29 30 32 27 22 26 47 51 63 59 71 81 97 96 98 100 91 79 90 93 90 79 59 53 55 54 54 38 20 14 12 9 12 14 16 19 25 27 27 27 27 31 39 48 49 46
16 16 33 37 33 27 25 25 55 50 51 47 45 66 80 99 98 98 99 100 82 93 95 90 80 59 59 62 61 50 28 16 16 11 11 14 16 17 23 27 28 27 30 36 33 42 46 48 49
16 28 24 20 19 19 17 19 51 52 46 46 52 67 93 100 99 98 95 87 84 90 96 93 77 60 64 68 62 36 21 18 16 12 13 16 17 20 26 28 29 28 32 40 40 36 40 38 37
26 23 23 18 16 13 26 59 54 65 64 60 54 90 97 100 100 96 97 92 85 84 99 90 70 70 77 73 46 29 19 18 15 13 15 17 19 23 28 30 31 31 32 40 44 40 37 40 39
28 19 24 21 18 14 58 61 65 65 58 51 77 86 98 100 93 98 98 94 94 100 100 96 92 97 93 62 36 23 16 20 16 14 18 18 21 26 30 32 33 34 33 40 41 44 45 47 52
33 35 32 22 26 44 60 55 63 63 56 54 67 91 100 100 99 96 100 100 95 88 97 100 100 100 83 50 38 30 23 12 17 17 21 22 24 27 30 34 35 34 34 38 46 50 55 56 58
26 30 22 18 54 54 56 51 49 51 52 56 72 96 99 100 94 98 92 83 84 99 95 92 97 86 80 65 50 44 19 18 17 24 24 26 28 32 34 36 35 41 48 50 53 58 57 56 58
22 29 28 19 58 44 52 51 49 55 60 82 84 88 90 98 99 86 100 100 100 99 91 87 86 75 72 59 50 30 20 20 28 29 27 36 32 29 31 36 46 46 55 60 60 59 59 62 61
23 32 27 20 38 49 50 48 44 58 88 100 100 99 99 100 89 97 100 100 100 93 80 76 61 61 63 53 41 28 21 33 34 49 61 60 48 37 46 50 49 56 62 63 63 63 64 63 56
20 24 20 29 37 45 46 47 50 63 70 92 98 98 99 99 100 100 100 100 98 100 77 62 72 73 66 57 34 27 31 63 69 75 75 65 63 61 65 61 64 68 68 67 66 67 66 58 53
20 17 18 18 25 45 48 50 52 54 58 85 99 92 85 98 86 77 98 95 75 77 83 65 65 69 69 48 33 43 68 83 82 79 72 64 56 57 64 75 75 71 69 68 68 66 64 62 58
19 17 15 15 32 38 43 44 45 68 80 78 83 81 80 84 69 62 65 58 63 66 63 61 69 74 66 36 41 66 86 88 86 77 72 70 61 69 73 76 76 74 69 67 61 53 57 54 44
19 22 18 21 35 39 42 44 44 82 97 90 95 83 57 59 58 62 59 56 56 58 54 68 62 56 46 62 78 73 83 82 81 74 69 75 73 77 69 63 64 66 63 53 44 44 43 46 49
22 16 27 35 36 42 34 41 48 74 90 98 100 82 63 49 52 52 61 61 60 59 63 62 54 52 65 74 74 82 74 71 74 72 79 91 87 76 72 74 71 63 42 37 40 42 46 51 53
22 17 34 27 31 36 31 49 49 67 74 85 94 89 71 72 58 58 61 60 62 62 67 65 65 70 76 78 80 85 85 88 75 55 59 69 72 76 72 68 58 36 39 39 42 46 51 58 61
26 23 26 28 25 35 31 54 52 64 71 78 84 93 82 75 67 59 66 64 60 62 66 75 71 72 70 73 85 88 82 81 61 56 61 65 72 57 42 35 36 37 41 44 44 45 50 45 34
27 25 27 26 24 31 36 53 59 59 63 66 70 79 79 71 62 63 58 64 62 67 75 82 73 72 73 76 92 89 73 62 59 56 53 52 42 32 34 37 38 41 37 32 25 19 20 16 21
27 23 24 24 20 25 39 52 56 56 57 62 67 73 74 65 62 67 60 62 65 68 74 74 68 71 78 84 85 71 59 60 57 50 43 35 32 35 38 37 40 35 31 24 14 11 12 13 12
23 25 27 25 22 20 28 47 52 55 54 56 59 67 66 71 74 74 69 66 63 58 71 79 73 77 82 80 77 68 56 58 55 50 43 38 37 40 41 40 39 40 36 26 12 7 7 8 18
27 26 28 29 20 26 35 43 54 49 46 48 55 55 58 57 63 67 66 68 67 71 58 52 67 68 72 75 75 60 62 59 55 50 44 40 43 46 46 41 42 39 28 12 8 7 6 12 25
31 25 26 27 23 35 24 51 45 52 52 47 46 54 51 54 61 64 69 64 61 70 63 35 43 61 74 80 76 62 56 53 48 43 41 41 47 54 44 41 40 32 19 8 7 7 14 30 58
29 27 27 25 37 34 32 41 37 47 54 45 39 42 48 47 51 57 60 60 59 68 63 50 59 72 84 83 73 65 58 54 44 49 46 50 54 55 42 39 30 18 9 8 9 21 39 62 64
22 22 36 43 44 54 37 40 41 54 42 42 33 38 39 44 46 49 53 62 67 68 64 64 63 67 79 74 67 63 71 66 57 58 55 54 56 54 40 32 19 10 11 29 14 35 53 62 67
28 36 46 42 62 58 44 45 42 30 34 32 32 31 33 41 40 48 50 59 60 63 64 70 67 69 74 73 75 69 74 76 66 61 59 58 58 43 37 23 11 44 77 21 32 45 63 64 60
29 33 54 44 64 43 51 52 39 30 28 28 27 25 23 30 43 40 45 47 48 53 59 68 70 69 77 79 79 73 81 84 71 64 62 61 47 39 25 13 67 62 17 23 38 50 64 76 68
26 32 33 67 77 72 52 46 24 28 34 42 37 34 32 32 38 42 45 48 44 46 52 63 64 72 84 85 80 82 79 81 70 63 64 53 45 32 21 69 73 19 19 19 28 39 63 68 65
26 32 36 59 54 57 50 38 38 33 31 44 54 38 31 36 39 44 43 47 46 49 54 58 65 70 64 71 77 74 70 69 64 62 62 48 49 28 63 44 28 34 19 20 40 41 54 59 62
36 33 37 44 62 59 66 49 34 31 25 30 31 39 34 37 41 44 47 47 48 54 56 62 69 72 73 73 73 72 68 69 64 58 49 48 36 50 47 40 39 36 36 30 27 52 58 68 68
31 34 36 62 39 78 78 53 29 26 25 25 23 23 32 33 36 40 47 52 55 55 58 64 68 64 68 75 73 68 76 71 65 54 53 54 42 46 56 37 48 36 28 30 36 46 57 61 61

GFSSGP_850_rhum_024.txt.gz
RH
17 14 10 22 34 34 29 25 22 22 62 75 74 74 87 97 76 77 98 98 90 82 82 86 78 56 43 44 44 38 29 15 14 9 10 14 15 19 24 25 26 31 37 38 36 38 37 40 43
14 8 23 26 31 32 22 22 25 45 61 54 56 76 91 91 93 97 99 95 86 87 85 91 77 55 48 50 52 43 23 16 12 9 12 16 18 26 26 27 27 28 30 36 39 40 40 44 44
11 22 28 35 35 28 24 20 61 59 52 49 52 82 88 98 94 96 98 92 90 91 88 94 79 55 53 54 54 35 16 15 10 11 15 17 24 28 28 28 30 33 34 35 40 38 41 41 39
16 30 20 24 25 21 19 17 36 53 53 49 59 88 98 100 98 99 95 93 94 98 98 97 80 56 58 62 50 25 18 13 10 13 17 20 27 29 28 32 37 38 37 35 35 36 34 31 37
25 23 27 19 18 14 25 64 68 67 63 68 60 93 98 96 100 100 100 99 97 100 100 98 86 68 70 64 34 21 13 12 12 15 18 21 28 29 29 30 35 38 42 42 41 41 40 40 40
26 19 26 24 18 16 58 59 66 65 65 70 83 86 99 99 95 98 100 100 100 99 100 99 97 86 86 44 27 15 20 13 15 19 19 22 29 31 33 32 32 36 43 45 44 49 49 51 52
32 34 29 23 24 36 58 56 64 66 59 70 78 91 100 100 90 91 98 100 100 100 100 95 99 100 76 37 24 25 18 15 17 20 20 24 30 33 35 35 34 36 38 46 52 48 56 57 57
25 32 26 23 32 54 55 56 56 52 66 68 82 94 96 100 95 98 100 98 96 90 97 96 90 93 76 44 26 22 20 18 22 20 23 27 31 34 37 35 34 34 46 42 51 57 59 60 59
22 31 32 22 42 42 53 54 58 70 80 98 92 90 98 100 99 100 100 100 99 100 94 99 98 82 72 51 40 31 25 19 22 24 29 30 31 34 36 37 37 44 45 50 56 61 63 63 61
26 37 28 22 22 43 50 51 56 72 94 99 98 100 100 98 100 99 99 99 89 87 89 82 84 82 72 72 57 33 18 17 28 28 28 30 30 31 35 45 51 58 58 62 65 64 66 64 59
22 27 22 18 22 45 46 50 55 74 82 92 98 96 98 100 99 100 98 97 92 87 100 100 97 90 77 67 43 21 19 34 32 37 50 44 33 32 40 55 60 63 69 68 67 68 66 62 57
23 19 19 17 22 45 47 49 57 60 67 75 84 84 95 99 98 98 97 99 93 53 51 51 53 65 60 50 34 21 26 34 59 60 62 62 57 55 64 68 72 72 69 69 68 67 65 64 58
22 18 17 17 34 42 47 51 60 99 88 88 100 99 98 80 74 84 98 98 87 58 60 61 67 66 56 48 33 29 53 68 72 73 70 65 64 69 72 76 75 73 72 69 66 56 53 48 44
19 19 23 30 41 42 47 52 60 100 100 100 100 97 81 70 59 86 96 89 87 77 59 64 69 70 68 46 37 48 74 80 83 80 75 72 78 81 81 77 72 66 66 59 48 41 41 45 50
24 22 29 40 41 44 37 48 78 100 99 90 91 80 71 49 59 60 67 62 67 64 60 62 70 84 65 39 46 82 87 87 84 77 75 83 85 86 74 64 65 70 61 37 38 39 42 45 50
22 20 35 31 36 38 39 57 78 100 98 95 82 85 74 72 61 55 47 51 58 63 66 72 75 65 50 56 71 76 84 85 84 80 75 85 91 85 76 74 72 59 36 37 40 43 44 43 39
27 23 30 34 33 38 35 58 66 97 96 98 100 72 65 69 67 62 53 56 55 59 65 71 63 52 57 76 82 86 80 77 82 80 77 73 78 81 77 67 46 37 40 42 42 35 24 18 20
30 26 29 32 28 36 39 57 66 80 83 88 92 85 70 67 58 59 57 64 65 69 65 64 62 67 75 78 79 83 86 86 90 72 64 71 74 77 57 38 39 40 41 38 31 23 18 17 23
28 25 24 24 22 33 42 60 66 75 74 77 84 88 82 71 58 58 54 60 66 71 65 66 68 66 69 73 75 85 87 91 81 65 66 69 74 58 39 42 41 43 37 31 22 14 10 10 12
28 26 28 26 20 23 43 55 61 68 68 66 71 78 76 70 66 61 60 65 65 57 63 66 70 63 70 74 73 80 84 71 63 62 61 64 55 41 43 46 45 39 34 26 16 10 8 8 12
27 26 27 29 24 32 42 52 60 52 55 56 61 64 71 69 64 62 66 62 60 54 50 52 60 69 71 72 80 85 83 66 64 58 51 45 42 46 49 49 43 38 29 20 12 10 11 9 18
25 26 26 30 27 36 29 38 44 57 60 54 56 61 59 62 66 61 57 60 62 60 57 60 60 63 67 72 82 84 79 67 60 56 53 49 49 51 52 53 42 37 31 16 10 20 35 14 25
25 27 30 29 35 36 35 39 36 51 57 54 50 50 55 50 54 53 52 50 53 57 58 58 64 70 69 74 81 82 79 66 60 56 54 53 52 55 56 54 39 36 25 12 47 74 60 23 32
24 24 35 44 45 53 36 40 43 52 45 44 45 44 43 46 53 54 54 61 62 61 61 66 68 58 65 75 81 75 78 74 63 59 56 56 52 55 56 51 39 36 17 27 68 67 14 18 38
32 36 47 45 61 57 46 47 41 29 36 41 44 41 38 39 45 51 52 54 57 60 58 59 68 64 58 73 72 66 73 76 68 64 73 60 58 58 56 47 35 18 40 62 59 29 23 28 25
34 38 57 45 63 43 49 48 32 29 29 26 26 27 32 35 37 41 42 45 47 51 57 60 63 71 60 66 70 68 83 80 73 74 72 71 64 60 56 47 62 45 58 66 60 35 14 36 55
32 36 35 68 77 71 52 43 27 25 33 40 38 34 31 28 32 33 38 42 44 46 49 52 58 67 66 69 60 63 76 80 81 80 75 75 67 60 56 50 47 48 60 78 20 35 41 54 62
29 37 42 57 50 55 50 44 36 27 31 41 47 40 34 36 31 31 34 40 44 41 45 51 54 58 61 64 59 65 77 71 85 85 82 75 64 60 45 43 43 50 50 26 44 38 36 55 59
36 37 45 47 61 58 66 47 37 29 29 28 32 31 32 31 33 32 34 37 39 42 45 44 44 48 55 64 64 62 73 76 89 100 91 73 63 63 51 39 46 45 36 40 29 67 48 55 64
30 35 42 62 44 78 78 54 28 30 29 24 22 21 26 30 33 38 36 36 36 36 41 42 44 50 55 59 59 59 60 84 89 84 80 67 63 50 40 45 45 46 37 46 74 42 48 52 51

GFSSGP_850_rhum_027.txt.gz
RH
14 14 13 23 21 23 20 17 20 17 34 81 80 60 66 80 67 60 96 99 96 95 87 81 63 49 46 47 44 34 22 15 11 8 15 15 16 23 28 30 31 32 30 30 30 33 37 42 46
14 8 23 23 18 17 12 18 23 51 59 64 72 84 76 88 89 97 100 96 98 96 88 82 60 51 51 50 42 28 16 12 9 13 15 17 23 27 29 33 32 29 29 29 32 38 40 41 46
10 17 27 24 23 17 16 18 36 56 57 57 64 88 90 95 89 93 94 94 99 95 92 82 60 54 56 53 40 22 14 11 10 16 17 24 26 26 26 27 28 29 30 33 36 38 34 39 44
17 32 20 20 20 19 17 15 45 45 54 56 76 86 93 98 95 96 98 95 100 96 95 88 66 61 61 55 34 18 13 10 14 17 20 27 27 28 28 31 33 33 33 34 36 32 36 37 37
25 24 23 19 17 13 14 54 68 55 56 72 73 87 93 99 98 96 96 99 91 96 100 94 74 74 72 50 26 17 12 12 16 17 25 28 29 34 33 35 36 37 38 39 38 41 44 44 43
25 19 20 18 15 14 28 60 64 61 67 73 77 80 99 100 99 99 100 99 94 84 100 100 96 90 91 45 24 18 12 13 17 18 27 28 32 34 40 43 42 42 45 46 47 50 53 55 53
27 23 20 21 22 36 49 62 62 60 58 74 83 80 99 100 99 98 100 99 99 97 99 100 97 98 90 56 26 18 16 15 17 20 29 29 31 32 34 41 49 47 47 52 55 57 58 58 56
26 23 24 22 22 25 50 55 62 60 68 80 82 80 95 100 99 99 99 100 100 100 100 100 100 91 71 43 40 25 16 18 20 24 30 32 35 35 34 34 39 47 51 55 59 60 61 62 60
22 24 22 20 24 33 54 51 68 77 83 91 95 94 100 100 98 100 100 100 99 100 100 100 100 65 54 43 39 26 24 24 27 26 28 33 37 38 35 34 39 48 54 60 62 63 64 63 60
24 27 22 18 17 32 49 53 65 75 89 92 99 99 99 100 100 99 100 99 100 100 100 100 86 67 53 44 41 31 37 32 26 26 29 33 40 38 38 41 46 50 61 64 65 66 66 63 60
25 23 21 19 18 40 53 51 61 72 74 85 98 100 100 100 100 99 100 97 91 94 100 98 84 75 74 60 44 54 52 31 32 30 31 34 37 36 38 47 52 65 68 67 67 67 65 62 62
23 21 20 19 24 48 45 54 59 68 63 70 100 100 100 99 98 99 98 98 100 99 96 87 86 77 71 75 67 38 38 37 31 34 36 34 32 37 55 58 68 70 68 68 67 67 65 58 49
22 19 18 20 27 50 50 55 70 96 97 89 96 100 97 100 100 90 82 70 90 99 99 100 94 84 77 76 45 34 40 33 38 53 58 61 57 61 66 75 75 71 71 69 66 54 43 39 40
22 19 24 33 47 46 53 66 63 97 100 98 99 100 99 99 98 97 92 59 72 92 86 82 79 76 78 64 50 28 32 48 75 75 72 69 70 72 75 72 72 73 68 63 52 35 39 41 42
26 24 30 40 45 44 42 50 76 96 99 100 99 99 98 97 93 91 94 83 56 61 66 62 63 65 68 50 38 32 58 71 79 78 74 75 77 82 80 78 69 66 68 51 36 38 38 37 40
21 22 32 32 38 43 36 54 84 100 97 94 94 85 98 89 79 79 48 75 75 59 64 70 79 84 84 60 38 42 72 82 85 80 79 80 86 86 82 70 70 72 55 36 39 38 36 31 22
26 22 31 34 35 38 34 55 70 97 91 82 85 77 84 82 73 64 62 60 66 63 58 66 70 78 63 44 41 76 84 88 83 83 85 81 85 88 82 78 72 56 38 40 39 33 23 17 18
29 26 28 33 29 36 37 54 72 96 92 91 84 80 70 64 51 54 52 54 60 61 62 70 73 74 64 48 62 68 80 86 88 83 81 80 83 85 86 74 58 39 42 42 34 24 16 14 16
28 26 25 23 22 34 39 47 67 84 88 88 91 92 80 51 53 57 51 48 54 59 64 66 66 62 54 59 73 81 80 81 84 81 86 77 82 85 80 65 42 44 44 37 29 18 12 12 17
29 27 26 25 22 28 33 42 55 74 76 74 78 87 83 65 63 62 60 60 57 58 65 68 66 61 62 71 74 78 79 83 77 88 83 74 79 81 77 52 48 45 41 35 24 13 11 18 27
29 29 30 28 26 32 36 34 55 54 70 68 71 73 77 77 62 66 64 59 57 60 58 58 61 64 61 66 71 73 79 85 86 82 69 67 70 70 64 52 52 46 40 30 16 11 35 56 57
29 25 28 30 27 28 27 26 35 54 54 53 56 63 66 66 60 55 54 58 57 57 64 65 63 65 73 67 72 69 69 70 72 68 64 64 61 52 46 51 53 49 36 25 13 47 66 60 47
26 30 29 30 31 36 36 30 24 46 54 49 49 53 54 59 57 52 56 54 56 56 57 58 61 65 71 73 70 68 71 76 78 73 64 58 52 48 46 49 53 51 38 28 24 66 66 68 69
29 30 33 39 40 41 36 32 28 33 39 37 40 48 45 44 47 50 51 57 57 57 59 61 59 62 63 68 64 69 79 78 84 77 64 58 56 54 52 54 56 50 38 30 59 69 74 80 56
29 34 39 39 47 44 43 41 30 24 27 32 36 43 42 41 44 48 50 47 55 55 60 59 63 65 68 73 72 65 83 82 85 78 69 63 61 68 56 55 58 51 36 53 57 61 80 61 15
33 32 46 44 51 36 46 45 22 24 28 30 31 29 33 37 40 40 40 43 44 46 50 55 56 60 63 72 71 74 84 78 75 84 81 71 66 74 71 64 59 40 43 66 63 71 48 22 48
34 36 34 56 70 58 40 34 25 21 24 35 38 34 32 31 32 36 37 39 40 44 45 47 54 60 58 60 68 61 60 64 66 78 87 77 74 80 74 64 49 42 83 58 59 42 40 48 44
30 33 42 49 51 51 41 42 30 24 22 26 32 34 27 28 28 29 33 36 38 42 47 49 52 54 54 60 66 70 67 70 63 81 94 86 81 84 77 60 45 83 52 48 55 44 49 71 37
37 38 43 41 48 45 45 34 30 27 25 27 26 25 29 26 27 29 30 33 38 44 49 48 49 52 58 59 59 63 66 66 61 68 95 98 94 93 88 55 76 48 43 54 40 46 75 66 48
32 36 40 53 44 56 56 41 25 28 28 29 25 23 28 28 29 28 32 35 39 39 43 45 48 51 53 59 69 60 66 69 64 64 79 93 95 97 84 58 54 41 57 42 51 76 57 42 52

GFSSGP_850_rhum_030.txt.gz
RH
16 14 15 21 15 11 12 9 9 14 17 53 58 34 21 46 38 47 99 97 100 97 90 54 59 75 77 76 65 50 43 29 13 9 15 13 15 17 22 28 30 31 34 36 37 40 42 44 44
14 11 21 15 12 12 10 10 15 26 34 49 57 61 52 72 85 98 98 100 99 100 98 90 53 55 60 53 48 42 29 15 11 15 14 16 20 23 28 28 29 31 35 37 37 37 40 43 39
13 11 17 13 10 11 10 14 12 34 47 43 49 69 82 79 92 97 98 96 99 99 99 93 54 52 52 50 42 28 16 11 15 15 16 21 25 27 27 29 31 32 35 38 35 35 41 36 34
24 23 16 12 11 10 10 8 15 25 35 41 47 60 90 65 87 97 92 98 99 99 98 76 55 56 55 45 29 18 12 12 17 16 22 24 25 27 29 32 35 36 38 35 34 38 38 37 35
19 17 13 12 12 9 8 16 43 38 30 44 50 63 76 98 80 88 96 100 96 98 97 71 58 60 53 36 22 17 12 15 18 23 26 26 25 28 33 34 35 34 34 36 41 44 46 44 40
16 15 13 11 10 13 16 32 46 44 48 54 51 59 90 99 100 99 98 100 100 99 99 94 81 74 67 37 23 17 14 18 23 27 28 27 30 34 35 37 38 39 40 45 50 52 54 52 50
16 13 12 18 21 25 36 47 43 45 44 54 58 54 99 98 100 99 100 100 100 100 100 100 94 92 74 33 21 17 20 21 29 28 31 34 35 40 40 43 42 44 48 51 56 57 58 57 56
17 14 15 18 18 23 31 42 51 48 46 67 66 61 96 99 100 99 99 100 100 100 100 99 95 90 69 39 26 22 20 30 30 32 38 40 37 44 46 46 48 52 55 58 60 61 62 59 58
18 14 17 16 15 17 27 36 52 66 58 66 80 71 93 99 100 97 100 100 100 100 100 100 98 92 51 52 39 30 34 28 34 33 32 33 38 40 60 59 52 56 58 61 62 63 62 60 57
16 14 14 12 12 14 22 37 46 51 56 71 96 100 100 100 100 100 100 99 100 100 100 99 98 91 77 74 71 47 47 42 37 35 36 50 41 71 71 48 53 58 63 65 64 64 63 59 57
16 15 13 14 15 15 34 39 49 44 43 54 92 99 100 100 100 99 100 100 100 100 100 100 100 99 85 65 62 64 47 35 37 38 34 42 37 38 62 53 63 65 68 66 66 64 62 59 55
17 15 15 15 18 25 36 46 54 52 65 75 98 100 98 99 96 88 98 100 100 100 100 99 95 85 69 54 48 48 55 55 38 32 37 40 38 38 43 56 64 69 68 67 66 64 55 43 39
18 15 16 18 21 41 40 40 48 73 92 92 98 98 100 99 94 100 99 98 100 100 98 72 70 61 59 72 67 58 49 33 29 36 76 64 36 36 52 64 69 70 68 68 65 54 39 42 40
18 18 19 22 28 41 41 45 47 82 91 97 98 97 99 88 97 94 97 100 98 100 94 84 78 75 82 78 59 38 47 66 71 83 48 37 41 56 66 73 73 71 69 67 57 56 60 45 34
20 21 20 22 35 34 38 36 50 79 74 79 89 79 76 91 91 89 84 94 80 98 99 89 99 98 84 91 79 64 80 78 82 88 68 70 69 74 77 77 74 70 66 60 40 39 36 38 25
18 17 21 25 29 34 34 37 56 82 71 61 63 69 72 82 89 88 80 61 94 96 98 100 100 95 90 83 86 69 73 76 90 75 76 75 78 82 82 79 72 66 68 53 42 46 52 52 48
17 18 21 23 25 29 29 33 45 82 66 50 55 63 62 68 76 76 85 75 86 88 92 94 98 99 79 72 57 52 78 83 94 83 76 72 80 82 86 76 70 72 64 39 42 38 42 46 46
18 18 17 23 24 26 27 31 39 66 63 55 48 52 54 55 63 79 83 85 82 86 92 93 98 98 93 94 82 68 72 94 89 83 84 77 81 87 88 78 78 73 54 41 46 36 26 41 46
20 18 17 16 20 25 24 23 36 52 62 63 55 51 50 52 56 67 74 79 84 86 86 89 93 94 96 90 77 72 90 97 91 85 86 85 88 84 84 80 80 69 54 60 38 34 25 24 32
21 19 19 17 18 21 19 21 29 43 52 53 53 58 52 49 53 62 66 71 76 81 87 88 88 93 93 83 71 75 84 91 93 82 78 81 79 76 77 80 77 60 58 44 37 31 26 49 50
22 19 21 20 20 19 20 20 29 35 46 51 53 50 52 44 49 57 65 69 72 74 79 79 83 88 92 83 76 91 92 83 79 77 75 72 79 73 75 79 75 49 47 43 38 33 22 59 64
23 18 20 22 22 21 21 20 22 25 38 45 48 51 49 45 44 49 63 68 71 73 75 79 78 83 90 91 81 86 81 88 81 71 66 73 68 68 78 80 69 45 45 44 38 28 36 50 72
19 20 21 21 21 24 24 19 19 28 30 28 34 41 45 42 42 46 49 56 69 73 76 83 85 85 88 94 84 88 87 85 92 67 77 71 65 65 74 72 60 49 50 46 35 26 41 71 60
21 23 24 24 24 30 22 21 16 17 17 16 21 28 35 39 41 42 46 53 57 69 75 80 84 83 86 91 68 75 86 90 91 77 69 72 71 68 65 59 54 52 53 47 30 31 71 68 71
21 22 28 30 33 32 29 30 18 14 14 17 18 18 27 34 38 43 46 48 55 62 76 80 80 77 82 84 65 64 74 84 64 70 68 78 78 68 60 59 59 56 58 56 32 55 82 76 72
23 19 28 39 36 25 32 28 18 14 17 19 22 23 24 30 36 40 43 46 52 63 73 79 72 78 82 73 56 64 68 70 67 68 74 92 89 77 70 63 81 68 63 50 37 83 82 75 63
26 26 19 32 46 33 22 20 16 13 13 21 22 25 26 26 26 32 38 45 54 61 73 81 83 78 83 85 84 77 68 64 71 71 74 89 84 79 72 73 88 66 59 32 66 85 72 42 52
24 21 30 30 41 38 25 24 18 15 13 15 14 18 20 30 34 34 38 41 48 58 68 82 84 76 83 95 95 93 82 80 67 76 77 76 87 95 81 76 82 70 79 52 91 63 53 78 92
29 26 27 26 29 31 31 23 15 15 14 15 15 20 22 26 32 43 44 46 50 58 67 78 86 74 84 88 99 98 98 91 86 63 75 87 100 100 90 82 88 95 63 82 50 42 72 69 83
19 20 25 33 32 36 42 27 14 15 15 19 18 20 24 31 34 45 50 54 56 62 68 72 78 79 81 87 96 98 84 85 88 88 94 99 98 100 99 96 99 90 70 65 43 61 74 89 99

GFSSGP_850_rhum_033.txt.gz
RH
18 22 22 16 14 11 11 9 6 9 9 20 28 25 14 38 55 55 96 86 80 89 94 87 99 96 92 85 78 73 68 45 22 8 15 15 15 19 31 36 40 36 37 39 40 42 41 36 30
28 20 16 13 12 11 9 6 8 8 16 31 37 45 29 59 77 91 97 93 89 85 93 86 98 98 89 86 78 75 49 29 9 13 15 16 19 28 31 37 41 38 39 40 42 42 39 33 29
19 19 15 12 11 9 12 9 10 11 27 30 30 52 70 75 67 85 94 91 96 90 94 89 83 85 87 83 80 52 36 14 12 16 16 21 28 29 30 33 39 40 40 38 43 39 36 32 32
21 17 12 9 10 7 8 7 9 15 19 26 29 51 78 69 43 50 91 86 100 92 96 69 74 84 86 81 55 42 22 11 17 16 23 31 32 29 31 35 39 39 36 39 39 37 37 37 44
15 12 11 11 9 8 7 7 14 20 19 25 29 44 82 91 59 39 54 96 99 96 78 69 71 82 70 55 45 27 13 16 17 23 32 33 31 30 31 35 37 34 36 40 43 47 45 46 49
14 10 11 10 8 8 9 15 21 26 27 32 31 53 88 97 100 94 94 93 100 99 96 71 68 63 57 48 31 17 14 19 23 33 32 32 30 33 34 34 34 36 43 48 51 54 52 54 53
13 11 11 11 14 34 26 28 26 31 31 31 39 50 96 96 99 96 90 99 98 100 99 84 83 72 50 34 20 14 16 24 34 35 28 30 35 35 38 37 39 43 48 54 56 58 56 56 54
13 11 12 13 15 35 21 26 32 32 30 45 48 45 75 96 99 99 100 99 94 99 97 91 87 76 47 37 32 24 22 54 37 40 36 38 39 38 41 42 45 48 51 58 60 60 57 56 50
13 12 17 13 12 14 16 23 33 42 40 44 76 87 91 97 99 98 100 100 100 100 100 98 92 86 64 37 32 30 37 39 44 47 46 48 47 53 64 54 49 51 57 60 62 62 58 52 50
11 11 13 11 12 13 18 24 31 33 40 53 99 99 99 98 100 100 100 99 100 100 99 99 96 77 53 58 56 69 58 43 66 59 49 66 48 63 57 50 52 57 61 63 64 62 54 54 50
12 14 12 12 14 15 23 26 36 34 72 67 80 99 100 100 100 99 100 100 98 100 100 100 99 74 70 64 57 62 62 86 80 76 81 68 42 74 49 53 57 65 66 65 63 57 59 51 51
13 12 12 13 14 20 25 28 29 43 57 64 99 98 99 98 99 99 100 100 100 100 100 99 98 86 63 75 81 80 89 76 61 43 44 37 48 68 68 78 78 68 72 68 71 59 47 35 33
13 12 12 13 16 26 29 30 32 57 68 88 98 98 98 96 96 98 100 100 100 100 100 100 95 89 93 90 100 89 71 46 39 44 40 36 66 80 77 76 77 74 76 72 73 55 62 52 53
15 14 13 14 17 24 30 32 38 57 65 78 80 95 88 91 84 96 99 100 100 100 99 98 99 100 100 88 69 56 53 48 50 50 42 77 76 82 80 74 77 74 72 72 67 62 60 54 56
15 15 14 15 19 20 32 52 39 59 61 69 81 74 78 74 76 69 95 98 98 100 98 94 92 79 66 54 58 53 55 58 64 63 74 86 76 77 84 79 76 74 72 71 64 47 56 56 50
14 13 22 23 18 21 41 71 44 52 46 48 52 56 59 67 64 66 75 90 100 89 77 78 67 77 67 67 85 84 71 69 64 73 75 91 93 72 75 79 79 77 78 73 63 62 59 55 48
13 16 31 28 15 20 38 75 37 45 40 40 39 44 46 58 60 69 80 88 98 91 93 94 92 86 88 84 82 74 70 65 73 76 79 90 95 85 84 81 83 77 76 69 65 63 57 54 47
16 14 15 24 20 18 23 22 34 41 39 38 36 37 39 44 50 60 64 74 80 90 92 93 97 92 91 84 82 74 66 72 70 87 91 96 91 86 84 82 85 70 76 71 66 64 53 50 48
16 15 15 18 22 17 20 28 24 35 37 41 35 42 36 37 43 62 65 66 72 80 82 79 81 84 88 95 78 63 62 70 82 88 86 94 88 86 80 84 84 74 74 68 72 63 49 51 46
15 15 14 15 14 15 15 18 28 28 34 35 35 39 38 36 39 51 64 62 66 71 76 74 76 78 78 73 66 60 58 63 75 83 92 93 98 84 70 87 82 77 72 72 65 52 54 51 58
15 16 18 16 16 13 14 16 16 18 27 33 33 32 33 35 37 44 52 60 66 66 68 68 71 73 74 71 66 59 58 67 71 88 97 99 84 84 90 85 86 84 73 76 51 42 46 51 62
17 13 17 16 17 21 15 26 18 16 22 28 32 31 30 32 34 38 45 51 58 62 69 70 68 67 70 71 62 59 63 64 72 84 92 97 76 72 91 90 91 85 80 70 62 55 55 45 61
16 17 16 17 18 18 16 17 21 12 19 21 25 31 31 31 30 33 40 45 50 56 61 68 67 66 67 74 72 64 70 71 71 81 98 96 100 89 94 92 92 90 83 68 59 54 45 36 70
14 18 18 18 20 29 20 17 25 14 13 14 16 22 28 29 30 29 32 40 47 51 58 64 65 62 64 70 79 74 74 77 67 77 94 96 96 79 92 89 88 87 80 65 66 58 35 45 75
17 20 28 32 32 32 18 19 16 19 11 12 12 14 21 27 28 26 28 33 38 48 59 64 65 62 65 70 77 84 83 80 79 78 88 92 87 72 74 84 87 87 84 68 70 66 69 77 86
19 18 27 58 58 33 22 23 15 11 12 12 12 12 13 20 25 28 28 29 34 40 53 64 64 65 63 67 75 80 89 88 86 88 86 77 70 78 92 64 96 91 82 76 89 72 77 74 96
19 23 15 22 26 33 25 16 12 12 10 11 13 15 16 17 21 26 27 30 33 36 45 58 64 63 67 68 78 83 88 90 94 94 82 57 55 64 77 92 95 86 76 84 88 85 62 89 90
19 17 26 25 51 45 22 19 18 14 11 11 10 13 14 19 24 23 25 29 32 36 41 55 65 65 65 70 77 90 93 98 97 96 71 71 71 87 86 93 87 77 73 82 92 90 74 89 86
22 24 23 21 24 39 34 23 14 13 12 12 12 12 13 17 24 31 31 30 33 38 44 52 65 70 68 74 82 90 95 98 99 98 83 91 87 94 100 97 93 85 78 86 96 84 86 78 86
16 20 21 34 34 33 35 28 12 12 12 13 12 13 16 20 22 31 37 39 39 42 47 52 63 69 70 78 82 86 95 97 99 94 100 100 100 100 99 99 99 98 86 97 97 84 90 81 94

GFSSGP_850_rhum_036.txt.gz
RH
16 22 22 24 17 15 14 10 8 6 8 35 45 39 49 62 36 57 71 62 62 94 70 82 99 83 76 76 68 65 63 46 21 9 14 15 18 27 32 31 40 60 38 40 38 30 27 24 23
16 27 16 14 18 17 11 11 8 7 19 26 25 40 45 72 68 90 91 84 85 93 94 93 99 85 82 80 70 68 58 36 9 15 15 18 31 34 34 31 35 37 38 39 35 30 27 25 30
15 22 15 15 16 15 11 10 11 9 10 19 22 42 59 78 44 84 79 86 92 95 95 94 97 87 85 82 72 70 46 19 12 16 17 28 37 37 34 34 35 36 40 36 33 32 35 34 35
27 18 15 14 10 8 8 8 7 10 12 15 26 67 69 65 64 79 80 74 86 97 84 91 98 90 87 82 78 60 33 11 17 17 23 33 35 35 35 36 34 37 37 37 39 40 46 41 35
17 13 15 13 11 7 6 6 7 13 15 27 22 81 71 94 99 99 92 61 53 81 95 99 99 78 89 83 75 45 17 12 18 22 34 33 35 36 36 37 34 37 40 45 46 47 50 49 40
17 13 12 12 10 23 29 37 13 16 19 20 61 63 77 84 81 97 97 60 52 48 97 99 99 98 91 88 54 29 12 21 21 27 38 36 34 35 38 35 36 43 47 52 52 52 54 52 39
15 13 13 11 16 33 43 31 42 24 21 82 84 82 82 99 98 94 89 86 63 65 99 99 99 100 92 60 38 18 16 21 34 37 38 38 38 38 36 34 42 48 53 56 54 53 51 44 36
12 12 13 14 13 18 40 45 36 32 52 45 61 82 79 100 99 98 99 100 100 75 95 89 90 88 63 45 24 21 25 28 30 38 46 43 40 37 36 41 47 52 56 59 56 51 48 44 36
12 14 15 16 13 14 11 17 33 41 62 59 92 99 99 99 100 98 96 100 100 100 99 91 86 91 58 59 62 58 35 47 42 48 53 45 45 44 45 47 50 54 59 61 60 51 47 48 44
11 13 16 10 12 14 13 19 28 51 54 59 65 98 100 100 100 100 98 98 100 100 99 86 91 82 66 65 43 44 59 52 55 52 54 50 54 49 50 48 50 56 61 62 60 50 55 58 50
10 13 12 10 13 13 16 22 29 48 69 63 59 92 99 98 99 100 100 100 100 100 100 96 92 82 65 53 61 71 67 74 66 54 49 60 62 61 47 49 55 60 64 63 58 61 66 59 48
11 10 11 11 13 15 21 26 27 54 51 76 93 95 96 100 98 100 100 99 100 100 100 100 93 75 64 74 83 78 69 60 60 63 70 55 58 52 49 50 55 65 65 64 69 70 56 34 33
11 10 11 11 13 17 20 24 36 59 91 94 98 90 92 99 97 99 100 100 99 100 100 100 98 85 77 78 82 60 57 61 72 52 57 59 49 43 54 69 68 70 70 73 73 56 42 45 32
13 14 12 11 12 18 24 34 42 56 74 86 84 94 90 94 95 99 99 100 99 100 100 100 99 82 79 77 56 69 79 81 84 53 46 53 73 56 69 83 80 76 74 74 70 65 54 56 44
12 14 12 12 13 18 27 31 46 54 60 67 71 80 80 90 95 98 100 98 98 97 98 98 97 88 94 97 95 92 91 74 60 54 46 73 58 73 80 77 76 75 72 72 66 61 59 52 51
14 13 16 16 16 29 36 65 38 47 56 59 56 64 64 71 79 84 92 98 100 98 97 98 96 93 98 87 85 74 68 63 62 50 55 41 50 72 76 80 78 76 73 73 66 56 57 56 51
14 16 17 21 17 30 40 66 43 48 40 46 48 49 60 71 60 78 90 79 98 98 92 90 86 79 64 62 65 59 55 55 70 63 72 72 77 84 76 81 80 78 76 73 66 63 60 57 50
17 20 17 23 18 18 46 64 69 66 32 33 35 42 45 56 64 72 82 91 84 82 68 63 73 69 53 58 59 65 60 68 68 63 71 71 68 95 81 81 80 82 78 75 68 63 60 54 51
12 17 21 17 18 19 22 55 73 64 32 32 31 33 35 40 65 72 76 81 69 78 81 72 72 80 59 78 91 88 71 67 56 72 78 73 75 91 84 87 83 80 76 76 71 64 62 47 50
12 14 16 15 17 16 13 34 61 70 36 29 31 36 33 36 52 66 69 76 81 70 82 82 70 73 87 88 70 71 68 60 52 71 81 76 86 86 83 81 86 72 75 75 68 66 58 49 48
13 15 14 16 19 15 14 14 42 40 27 29 29 38 36 32 47 58 66 69 74 78 82 86 88 80 78 79 64 76 65 60 60 72 68 67 94 85 87 77 87 82 74 76 70 66 56 55 54
16 11 15 19 18 19 17 27 22 23 23 27 27 29 32 34 35 49 58 65 67 72 75 76 73 72 74 77 71 73 64 56 63 71 73 70 80 93 84 94 88 88 85 76 73 74 60 52 56
15 15 17 17 17 20 20 23 15 16 18 23 27 28 28 30 33 38 47 57 64 67 70 67 70 71 72 67 68 70 61 56 58 69 79 83 92 87 75 96 92 92 90 82 76 74 73 59 56
12 17 19 19 19 32 26 20 18 17 16 17 20 26 27 28 30 34 38 45 55 62 66 70 66 68 66 68 64 68 68 59 65 68 72 77 75 76 92 91 94 92 90 88 84 83 80 69 57
14 19 30 32 32 40 22 21 20 18 22 28 24 25 38 27 29 30 34 40 45 51 57 64 68 69 68 66 70 69 66 66 66 71 75 84 82 78 81 74 79 78 88 88 76 98 82 76 66
18 19 34 45 55 43 46 32 16 15 15 12 13 27 28 27 27 29 28 36 41 45 50 53 59 62 64 63 66 72 61 69 82 74 76 77 71 62 52 67 85 89 64 77 88 96 84 80 78
19 24 17 26 41 62 75 32 13 13 13 10 11 13 13 13 26 28 27 26 35 42 47 52 59 63 63 62 64 65 74 79 69 62 84 83 78 77 77 76 79 80 81 87 93 94 81 87 93
17 14 33 28 44 55 32 27 21 20 13 11 11 12 13 17 19 22 26 26 28 32 44 48 51 58 62 63 65 66 76 80 61 62 89 81 63 76 92 86 88 90 96 99 95 91 84 96 94
18 22 26 30 28 53 47 32 22 23 13 13 13 11 13 16 22 25 25 24 27 30 33 45 56 63 61 62 64 69 70 74 83 76 91 66 78 92 97 96 92 98 100 95 91 85 89 100 92
16 20 21 37 36 36 56 35 17 21 16 14 13 12 12 15 20 26 31 31 30 30 34 42 50 58 62 64 65 68 74 81 85 68 95 100 99 100 100 99 99 97 99 98 91 88 98 93 99

GFSSGP_850_rhum_039.txt.gz
RH
14 20 31 32 37 30 29 22 15 16 27 40 33 34 57 74 80 80 74 61 71 42 79 90 75 62 62 58 59 59 50 22 7 11 13 15 23 26 34 39 33 30 27 24 23 22 28 52 58
15 22 27 30 29 35 28 16 16 14 29 36 33 31 54 75 70 95 98 60 60 60 52 90 84 67 67 62 62 60 40 11 12 13 14 21 27 26 33 29 30 30 28 26 26 25 34 56 61
14 19 23 25 31 31 25 14 12 8 10 19 63 61 70 81 76 70 81 83 69 88 95 89 73 76 74 65 65 57 28 10 14 15 21 27 27 28 28 30 32 32 31 32 36 33 49 57 59
22 25 21 24 27 19 16 22 29 10 11 37 51 73 72 80 69 76 75 98 66 88 94 88 87 82 79 68 67 46 15 13 15 19 28 32 31 30 30 33 34 35 37 41 44 35 43 55 53
28 26 28 30 26 18 30 32 28 44 44 64 52 82 66 98 77 80 62 77 83 70 63 98 92 94 82 72 65 30 12 16 17 27 32 35 33 32 32 35 38 43 45 46 47 43 34 50 49
22 19 30 28 20 27 27 25 24 64 77 69 60 64 81 98 85 96 75 60 66 70 57 61 98 95 86 84 75 20 17 17 25 32 33 36 37 34 34 38 43 49 49 48 50 49 33 31 45
23 26 28 22 17 27 31 22 38 73 73 83 67 69 72 98 99 95 97 69 67 77 97 90 98 100 85 86 75 38 21 21 31 35 35 38 38 37 38 43 48 53 50 46 46 41 32 28 44
17 20 21 19 22 28 32 32 44 54 88 91 54 82 88 99 100 96 98 95 85 91 94 98 97 100 97 86 55 31 25 26 38 36 40 46 44 38 41 48 53 55 54 46 45 42 33 33 41
14 20 25 18 18 19 19 28 52 63 70 61 69 86 83 92 99 99 98 99 82 90 80 73 99 99 90 87 57 38 36 41 45 44 44 46 40 37 44 48 54 58 59 53 46 48 50 44 42
16 24 21 14 15 17 16 28 52 52 62 70 98 100 100 100 100 98 97 95 86 100 100 100 85 88 84 72 59 67 49 60 54 46 42 41 40 44 47 49 55 59 61 55 52 56 59 53 46
14 20 14 12 14 14 26 35 46 56 58 60 79 100 99 96 99 98 100 98 98 99 100 100 98 98 87 79 61 52 70 61 55 45 44 45 44 42 44 41 46 60 62 56 58 60 57 53 53
14 12 11 12 13 15 24 38 65 57 69 61 87 89 94 99 99 100 98 100 96 99 100 100 93 88 70 69 59 59 71 60 60 50 47 42 43 53 48 52 53 60 64 60 56 54 56 57 38
12 12 12 13 12 17 33 55 77 95 92 87 88 96 98 89 99 100 99 100 100 100 100 100 94 79 77 72 67 72 67 72 65 58 49 44 48 53 50 48 52 63 65 67 59 66 57 38 29
16 15 14 13 13 20 35 50 59 85 77 83 84 90 93 88 99 99 100 99 98 99 100 100 99 80 72 80 91 80 74 68 51 60 44 44 48 50 48 62 70 68 69 71 71 63 46 48 40
18 21 17 15 13 29 24 38 65 69 80 80 77 89 94 85 89 99 99 97 99 100 100 100 99 82 87 83 76 76 58 41 55 49 47 46 67 67 73 68 75 74 75 74 70 67 58 54 45
22 20 24 17 30 32 26 45 48 61 66 72 70 74 87 86 84 84 100 99 100 99 98 99 99 94 85 74 74 66 51 52 60 50 48 56 73 80 76 73 78 76 75 75 73 66 59 56 48
26 30 23 19 20 40 38 50 45 52 68 64 66 60 75 92 86 76 87 97 100 98 98 96 94 86 76 74 66 59 58 65 64 49 54 53 58 57 46 56 74 77 76 75 72 67 58 54 53
32 24 23 25 25 37 56 60 48 46 69 63 61 63 69 82 83 69 75 93 99 96 87 82 84 85 79 88 81 74 74 69 63 65 58 62 64 64 47 64 81 78 77 76 74 67 62 60 57
20 20 21 23 23 33 49 64 46 36 63 60 53 57 69 70 72 64 72 85 98 96 92 88 90 93 88 82 71 68 64 70 66 64 72 66 76 68 58 70 81 80 77 78 72 68 65 62 55
21 22 19 17 21 24 49 58 47 52 60 46 44 50 63 68 75 75 72 76 72 72 76 71 70 65 62 60 61 57 58 58 57 66 66 63 65 74 74 70 82 79 81 81 76 74 66 64 57
21 21 18 20 21 19 24 71 70 57 54 50 36 36 46 64 70 76 77 69 59 63 60 64 61 57 56 63 60 65 72 70 65 49 49 68 76 68 69 83 83 82 83 80 78 74 71 65 60
23 15 17 19 23 34 20 39 70 58 49 47 38 34 42 58 61 66 69 72 57 52 51 50 55 58 57 70 67 67 69 74 65 46 53 70 73 64 68 73 76 72 85 83 79 76 72 69 59
21 19 21 22 29 26 26 34 30 46 51 43 42 41 38 48 51 61 64 65 66 62 57 57 60 57 61 66 68 64 58 67 63 58 61 62 75 70 70 71 75 86 89 87 80 81 76 76 76
16 21 21 24 30 48 31 33 40 47 42 37 38 40 37 38 45 47 50 58 62 68 69 66 62 67 68 64 68 76 74 75 71 59 60 72 74 81 78 76 82 87 92 91 87 78 85 82 84
20 24 42 45 52 56 42 42 38 26 27 24 33 32 36 36 39 46 54 62 61 62 66 69 70 72 71 71 66 60 69 76 71 56 57 63 82 76 73 72 70 73 90 93 89 87 80 93 93
23 26 55 48 68 52 46 45 36 28 26 17 29 28 26 36 37 37 39 44 53 54 56 64 68 68 74 73 71 69 62 69 74 61 61 73 77 67 78 75 66 72 87 93 88 92 97 100 100
22 30 24 38 55 64 67 46 36 26 24 23 21 25 25 23 32 36 37 38 42 44 50 52 55 61 67 71 71 70 69 66 66 69 63 58 64 58 61 77 72 74 88 92 89 95 97 100 97
20 20 34 44 68 68 60 56 44 28 23 18 18 26 22 22 27 32 34 37 35 36 38 43 48 46 47 51 62 68 68 70 71 70 72 66 61 64 71 81 72 86 93 92 98 100 100 100 89
25 26 30 38 53 65 63 50 34 33 25 19 15 15 17 20 26 30 31 33 37 34 36 42 51 64 58 74 65 65 66 65 70 74 76 74 83 76 76 93 100 97 98 94 99 100 100 99 89
21 24 28 65 53 54 68 47 26 25 26 17 16 13 15 19 22 21 27 28 28 39 47 54 61 52 43 37 69 69 68 68 84 77 86 92 78 100 100 100 99 98 100 96 95 100 100 97 92

GFSSGP_850_rhum_042.txt.gz
RH
15 20 29 29 36 38 35 26 19 19 22 39 41 45 73 82 72 74 99 89 84 71 82 64 83 65 57 52 52 47 20 6 8 9 11 14 20 24 35 28 26 23 21 22 43 55 61 66 72
15 19 25 32 34 38 34 23 17 18 31 39 50 58 69 78 87 94 98 85 82 84 80 62 83 91 56 54 54 37 9 9 11 13 16 20 25 30 26 25 22 22 22 27 43 57 66 73 77
15 18 23 33 38 36 31 20 29 41 52 52 63 65 75 80 82 85 98 84 66 65 69 74 55 83 68 59 56 21 9 12 14 19 22 28 30 27 26 26 26 28 28 29 47 61 65 63 69
25 29 25 29 30 26 20 19 35 54 54 51 61 69 74 100 94 91 78 80 63 60 65 64 58 73 74 68 51 13 14 15 18 27 25 28 26 28 29 31 34 37 37 39 53 62 57 58 63
28 29 30 31 29 22 18 31 55 64 59 57 54 74 76 82 99 91 76 90 89 90 84 89 84 97 80 74 60 14 18 19 30 30 27 27 29 32 34 38 40 42 40 37 56 57 52 55 63
28 24 35 38 29 20 23 31 59 60 60 54 56 66 69 66 80 81 78 77 89 80 87 89 78 84 97 90 30 14 21 30 35 30 28 29 32 35 39 44 44 44 44 38 39 51 52 58 64
27 32 34 29 23 21 29 38 59 64 63 72 57 63 59 82 95 91 85 65 72 92 98 97 94 62 95 93 27 18 22 32 37 35 32 32 35 38 44 48 46 43 48 44 29 32 49 50 53
20 28 28 24 21 23 27 38 55 60 75 73 60 74 78 70 100 100 96 66 68 88 81 76 99 99 90 81 39 21 21 33 38 34 32 34 38 42 48 51 46 40 45 38 31 28 38 51 49
19 26 29 22 19 18 26 38 61 58 64 83 94 95 84 92 100 98 99 88 81 81 80 90 99 95 84 94 36 26 23 37 41 44 40 38 41 46 50 54 55 48 39 40 39 33 36 47 48
20 28 22 18 16 17 34 44 61 58 67 91 94 100 99 100 99 97 96 92 100 98 87 86 60 99 99 90 52 37 52 50 51 53 46 38 42 49 52 55 57 56 42 45 47 44 39 36 38
18 23 16 15 14 19 54 55 53 50 56 69 89 92 97 100 100 98 96 99 92 100 84 78 85 92 85 63 42 38 44 49 56 48 44 39 45 48 41 41 57 57 49 48 52 48 46 46 43
17 16 15 13 15 20 40 54 75 62 64 57 72 87 91 96 98 99 100 98 97 100 100 98 99 94 89 71 41 39 54 42 46 44 38 43 45 38 37 39 48 61 59 48 48 46 45 53 46
21 17 15 14 20 44 45 66 84 89 83 83 80 85 95 99 90 100 98 100 100 99 100 100 99 98 86 64 57 56 51 52 47 44 43 40 36 42 44 41 55 63 63 58 47 52 51 39 31
21 22 20 15 14 45 73 86 66 91 86 89 87 95 100 99 99 92 100 100 100 100 100 100 100 100 92 83 66 68 67 55 49 46 41 44 41 45 42 49 54 63 64 64 60 51 45 39 30
20 22 21 18 16 35 40 49 69 83 87 90 88 90 89 86 93 94 98 100 97 100 99 100 97 87 78 60 50 58 68 61 58 56 49 45 56 50 51 58 56 63 68 71 72 62 48 41 41
24 24 25 18 30 32 30 44 59 78 84 81 80 83 80 72 76 95 94 100 100 99 100 100 98 89 73 58 55 76 60 58 66 51 44 49 50 53 59 56 73 71 75 76 73 62 54 48 46
30 34 29 26 23 37 36 45 50 81 81 84 73 79 82 82 87 89 98 100 99 100 100 99 98 92 78 80 79 71 61 55 48 47 39 45 59 70 57 63 72 81 78 75 73 72 63 59 51
35 32 27 29 35 38 51 47 59 64 70 72 68 71 82 76 75 78 90 93 98 99 99 100 99 90 87 84 84 72 59 50 50 48 45 54 62 58 56 60 62 74 76 76 75 74 69 66 53
28 30 30 23 27 39 50 48 57 67 75 71 65 64 76 80 86 73 84 94 99 98 99 100 99 94 90 87 81 76 62 52 51 50 46 56 66 61 64 61 56 69 77 76 75 75 75 67 59
29 30 29 22 23 29 52 53 52 67 71 76 64 64 67 79 82 73 70 82 83 91 92 98 99 96 84 75 73 66 60 55 56 54 51 51 57 65 78 76 63 73 79 79 77 78 76 67 64
29 31 29 22 21 26 51 54 54 47 58 54 63 57 67 70 66 68 66 69 74 81 80 79 80 80 77 72 67 71 73 65 65 55 54 52 71 70 80 78 72 76 75 79 80 81 78 72 67
34 26 23 21 28 33 28 44 70 53 55 53 54 53 67 74 66 60 54 49 50 58 71 73 78 87 76 78 79 75 70 65 60 56 57 64 70 68 67 75 77 74 80 79 84 86 81 77 73
31 27 24 23 28 29 30 36 33 52 55 52 55 49 59 69 64 66 58 48 37 42 49 57 74 79 61 60 64 64 61 61 57 60 59 59 63 52 74 78 65 67 79 84 80 88 81 78 75
22 20 24 29 36 47 34 38 44 63 45 41 45 43 51 66 65 59 54 56 50 42 41 42 50 54 60 62 57 55 54 53 54 53 52 44 38 49 63 73 68 73 73 71 74 85 83 79 77
24 30 44 47 55 58 39 46 44 30 37 40 43 43 42 51 67 69 67 64 61 51 47 48 50 52 54 58 63 64 62 63 61 46 52 60 58 54 60 70 82 79 74 70 74 92 90 84 80
29 32 54 54 70 47 49 48 38 27 28 30 34 39 38 44 53 59 58 52 54 57 55 52 49 47 46 50 57 61 61 62 56 56 67 74 64 55 67 85 82 78 76 77 73 88 96 93 89
28 34 30 40 57 66 55 46 34 30 28 29 25 33 37 43 45 47 50 50 49 55 55 54 63 60 54 48 52 53 55 60 66 69 74 80 70 57 62 69 73 79 86 84 76 92 99 96 96
23 23 35 51 55 65 58 52 44 33 25 24 25 36 37 38 43 41 45 46 42 44 44 50 53 55 50 62 64 65 67 67 66 65 68 79 71 62 76 84 78 71 69 75 98 100 99 100 100
27 30 34 40 60 64 66 57 45 35 29 24 23 19 29 33 34 38 40 40 40 38 45 43 50 59 66 67 69 66 68 70 72 74 78 81 76 82 78 89 80 74 73 94 100 100 100 100 100
24 25 32 49 53 63 71 46 32 30 35 25 21 16 16 19 20 24 31 37 39 42 47 54 48 55 54 60 73 84 89 88 88 92 82 79 98 94 70 81 89 93 99 100 99 100 100 100 100

GFSSGP_850_rhum_045.txt.gz
RH
16 20 31 33 33 42 41 29 23 26 20 49 57 68 89 89 88 64 92 93 98 99 80 54 52 57 61 63 49 42 34 18 30 34 26 16 15 26 32 28 22 22 24 30 36 43 57 62 66
17 18 25 29 36 39 33 26 30 61 56 54 59 69 71 87 94 96 93 90 99 99 85 70 68 65 61 56 66 49 47 10 22 18 20 19 29 31 24 22 23 22 29 41 50 53 54 62 64
16 19 22 38 42 36 32 22 33 44 53 57 66 71 77 83 81 81 91 87 92 96 95 79 75 62 65 72 78 25 12 12 19 27 37 34 31 24 21 20 21 29 44 57 62 65 66 67 68
26 26 25 32 31 28 24 21 40 53 43 53 55 67 83 78 66 62 80 77 95 92 96 90 72 61 69 70 85 19 13 14 51 54 40 32 24 22 22 23 25 35 54 65 63 63 63 66 69
26 27 32 31 31 26 21 26 44 60 55 53 62 60 82 99 88 72 76 87 98 76 78 83 75 80 71 95 79 26 15 27 63 53 35 26 25 26 28 31 32 42 61 62 57 58 60 66 71
28 25 38 38 31 24 20 30 51 59 54 54 56 69 91 100 99 98 76 98 92 76 73 79 88 84 93 91 79 41 15 48 75 49 32 29 29 33 37 38 39 54 62 57 52 53 61 67 68
29 36 36 33 29 22 28 38 56 61 64 67 58 68 86 89 84 100 97 82 97 92 94 100 98 95 96 92 91 64 20 52 72 39 35 33 36 40 42 41 37 45 55 52 52 52 56 63 63
21 32 30 30 24 22 32 41 56 59 58 66 64 74 87 97 97 100 98 80 94 99 91 96 98 98 82 75 82 64 30 47 68 38 37 37 42 44 43 42 44 39 34 40 50 51 50 50 50
20 31 34 26 21 20 31 45 57 56 65 79 85 99 99 100 91 97 99 90 90 100 100 96 99 94 86 88 73 68 47 65 71 38 41 41 47 48 43 44 46 36 28 30 45 50 50 49 48
24 32 25 20 17 18 31 45 60 66 66 83 86 100 98 98 97 100 100 99 100 100 99 82 79 99 100 90 74 71 67 58 44 41 40 44 50 52 46 40 34 29 26 25 36 41 42 42 40
21 27 22 17 16 16 49 59 55 53 58 59 72 90 95 94 99 100 99 100 100 96 100 90 80 69 91 92 83 87 78 72 52 42 41 47 53 55 54 54 44 38 29 32 33 34 34 30 28
19 18 18 17 15 32 57 55 68 61 54 54 58 80 91 84 83 93 100 96 100 91 84 86 97 90 82 82 79 82 82 64 44 41 44 49 49 51 43 53 55 40 31 38 44 42 40 39 35
22 21 21 20 18 31 48 64 69 81 71 76 76 89 89 95 98 97 94 100 99 99 90 79 79 86 99 95 88 69 63 60 47 49 42 45 42 35 40 51 59 57 46 42 44 41 40 35 29
22 23 23 19 32 52 63 77 77 83 81 82 84 91 92 97 91 90 93 99 100 97 89 87 93 99 94 84 78 66 58 51 56 44 41 44 36 37 38 46 60 62 60 54 48 46 40 36 30
21 24 24 19 26 49 57 66 89 70 89 87 92 98 98 100 98 92 96 100 100 100 98 94 96 97 89 79 91 70 56 56 46 40 44 40 38 41 46 48 57 59 62 65 65 46 42 36 32
24 26 29 21 31 36 32 47 54 81 91 93 91 87 99 98 91 96 89 100 100 99 99 99 99 99 94 72 94 74 62 48 44 47 45 48 47 49 44 51 56 49 63 67 70 59 47 45 45
32 31 30 28 21 36 40 44 51 86 96 93 88 80 77 92 98 88 97 95 100 100 100 100 98 95 91 99 86 75 60 55 55 58 62 54 54 53 52 62 63 59 64 70 71 69 62 51 48
33 35 30 29 26 40 46 45 58 94 90 86 76 72 66 76 85 89 97 98 100 99 99 100 100 100 100 96 79 63 77 76 73 55 62 58 73 46 59 59 58 60 66 74 73 73 72 69 62
28 30 33 30 24 33 46 48 52 77 86 82 81 75 67 63 75 91 78 98 98 99 99 99 99 98 96 88 85 84 74 85 67 56 62 61 72 61 72 65 55 53 68 66 74 76 77 73 68
33 35 36 30 25 32 40 50 53 75 81 78 71 70 60 64 76 79 78 87 98 99 99 100 98 100 91 80 81 78 74 67 60 51 50 49 53 47 55 59 59 62 70 75 77 77 75 72 70
36 38 35 32 26 36 46 44 59 52 66 74 72 58 60 58 66 71 67 62 79 82 89 97 99 96 92 85 82 78 77 65 58 51 51 49 49 53 58 63 70 81 77 77 77 79 78 78 78
40 31 30 34 30 39 34 49 34 57 62 65 67 70 61 59 60 66 65 58 48 59 78 83 95 96 92 90 89 83 80 71 57 51 49 48 49 48 53 69 78 84 81 77 80 82 82 82 82
35 30 34 35 34 33 32 39 32 59 62 60 59 60 61 58 53 55 57 52 38 43 53 69 77 87 93 94 88 80 76 72 67 57 51 46 51 49 53 72 68 73 76 83 82 81 87 88 89
27 30 30 34 41 52 35 38 42 53 46 43 45 47 49 52 53 51 54 61 52 44 46 54 63 68 74 73 74 69 62 63 68 65 65 58 53 50 50 65 66 68 77 74 72 75 75 83 93
31 33 49 48 57 56 36 52 46 31 39 41 43 43 39 45 50 53 54 56 53 49 45 46 47 54 68 72 66 65 66 68 70 63 61 53 52 48 46 58 61 46 73 77 82 79 78 73 75
37 37 57 53 67 44 49 56 40 33 27 25 28 28 38 42 50 52 48 49 49 48 43 40 41 42 52 58 55 53 56 64 64 56 56 49 45 44 44 46 47 49 65 89 76 92 83 79 79
37 41 32 42 61 66 54 46 35 34 31 32 32 38 43 39 46 45 51 48 48 47 45 36 33 34 39 40 44 50 49 47 48 52 48 46 50 53 51 68 75 63 84 74 91 92 68 83 93
28 28 38 54 54 69 56 57 45 28 25 26 33 32 38 39 39 40 49 48 45 44 45 49 39 34 30 34 39 42 47 50 48 47 52 61 64 60 63 80 89 84 83 94 94 80 76 80 99
31 36 36 38 57 46 48 51 48 32 32 29 29 23 25 35 38 39 36 43 43 45 48 49 52 46 45 43 41 44 46 54 61 63 65 63 69 76 79 91 95 76 90 96 100 96 89 94 99
27 32 37 44 47 69 68 38 29 36 36 37 33 23 18 20 29 36 38 36 46 48 54 53 47 51 53 55 58 59 56 57 63 66 66 74 79 81 81 91 97 57 81 90 100 99 96 99 99

GFSSGP_850_rhum_048.txt.gz
RH
16 19 27 30 30 40 41 33 26 27 32 67 72 72 77 75 59 52 92 100 97 93 68 66 62 60 54 49 49 43 42 40 71 74 57 47 28 14 21 46 44 37 30 64 46 38 37 42 43
16 18 26 26 35 38 31 28 24 44 56 57 61 66 71 80 96 90 93 94 98 98 68 63 62 56 53 50 51 47 44 44 64 59 49 38 17 21 37 34 29 30 46 87 77 62 59 56 36
16 21 23 37 43 36 33 24 21 40 48 57 65 65 75 73 85 89 86 97 100 95 66 63 63 63 64 55 46 49 37 31 45 48 35 22 33 34 29 29 29 30 64 68 56 61 61 59 50
29 26 25 35 31 29 25 22 21 48 43 47 60 62 72 78 78 80 86 84 99 88 81 68 66 66 64 54 49 52 40 27 22 30 25 37 38 36 34 38 35 40 46 54 57 61 63 62 58
28 25 33 32 34 28 25 21 29 52 55 51 62 61 73 86 83 91 84 97 88 100 93 76 77 72 68 64 65 68 68 31 16 40 38 42 43 40 46 44 42 42 52 53 59 65 66 62 56
26 26 38 35 30 25 23 22 49 54 54 52 54 67 88 95 80 88 90 97 98 100 98 85 85 77 74 70 75 63 56 62 28 47 46 36 33 37 46 40 42 50 54 56 60 65 67 60 55
30 37 35 33 31 25 24 37 51 57 59 64 61 69 76 92 86 78 94 87 100 94 86 84 91 88 86 79 71 76 43 68 51 48 40 31 32 30 35 49 51 57 56 55 59 65 65 60 54
23 34 33 32 28 23 22 42 53 58 52 67 65 72 79 84 92 98 98 98 100 98 92 87 93 100 91 81 77 54 66 61 32 41 34 31 31 39 51 60 60 58 54 51 55 63 61 57 50
21 34 36 27 24 20 36 45 52 58 63 76 83 94 94 96 87 90 98 98 98 98 90 89 96 97 90 91 74 65 80 73 47 41 37 34 40 43 51 54 56 55 52 48 50 50 49 51 48
26 35 29 24 20 20 26 39 45 62 64 77 94 96 92 90 95 98 97 96 99 98 100 99 100 99 100 99 76 66 61 59 60 43 37 41 45 44 45 39 34 33 37 47 47 48 47 43 38
25 29 24 20 17 18 24 54 56 62 58 54 72 91 93 87 87 98 100 100 100 97 91 85 96 98 99 100 92 82 83 85 64 43 41 45 48 50 50 40 33 28 27 31 41 40 34 30 31
21 20 19 18 19 23 53 54 62 54 51 56 60 83 93 89 93 93 94 100 99 100 88 80 89 96 100 99 95 69 70 71 60 54 45 48 46 41 39 36 34 31 30 29 31 29 29 27 30
20 21 22 21 20 24 45 59 64 71 62 70 73 87 94 99 99 100 100 99 97 96 91 86 84 87 100 92 98 94 94 95 75 60 51 54 52 49 45 40 36 43 42 37 36 38 37 34 28
22 24 24 20 19 52 59 73 77 64 68 74 82 95 99 99 100 100 99 99 100 100 86 85 92 84 97 93 87 88 84 75 64 55 49 56 56 52 56 54 45 43 43 37 33 36 34 33 29
22 26 24 20 20 47 57 56 85 63 73 79 89 99 99 97 98 99 99 100 99 100 100 91 94 93 96 100 91 83 82 79 76 75 49 54 48 43 50 57 59 56 55 48 35 35 35 31 32
25 27 30 22 37 36 45 45 43 68 77 86 95 98 97 99 97 98 89 97 100 100 100 100 100 98 100 100 93 86 80 78 69 65 51 53 44 42 46 54 60 63 62 59 56 44 37 34 33
34 33 30 26 23 38 40 47 55 87 88 89 94 97 100 99 94 93 88 82 96 99 99 100 100 100 100 97 78 65 78 78 62 70 50 51 46 49 49 54 58 54 61 64 66 66 51 44 43
38 39 35 32 24 39 48 51 51 90 96 90 84 87 94 95 76 81 85 90 98 98 100 97 100 100 100 93 99 88 89 77 58 67 56 54 52 53 54 61 63 58 67 68 71 73 68 62 59
29 31 33 30 26 25 30 37 30 87 100 98 88 83 83 78 78 82 79 98 98 97 96 100 100 100 97 93 100 89 69 62 57 57 73 65 61 59 67 64 56 64 67 65 73 75 75 74 73
31 32 36 31 27 29 34 40 48 76 89 91 88 79 71 76 86 84 92 91 98 98 98 98 100 99 100 94 100 90 74 73 60 71 80 64 70 66 70 54 57 62 63 65 65 75 76 77 79
38 40 37 34 34 31 43 43 48 50 70 74 80 73 65 60 70 81 91 80 98 99 98 96 92 96 99 100 100 94 84 75 61 80 75 63 54 49 65 66 65 64 68 70 70 73 78 78 78
43 36 34 35 37 45 36 55 36 38 56 73 70 74 69 61 59 64 73 75 67 80 91 95 98 92 95 96 93 88 76 70 67 75 63 61 57 50 60 64 62 52 65 80 81 84 82 82 81
35 34 37 36 43 37 37 44 36 58 45 53 60 58 57 54 56 55 53 60 59 63 72 80 89 96 90 84 81 79 76 77 68 72 58 53 51 51 50 56 54 57 66 76 79 83 80 81 87
29 33 37 40 48 60 44 43 42 42 40 35 42 43 43 43 50 54 55 57 63 61 70 77 84 84 96 93 86 81 80 73 71 62 59 57 52 51 50 51 51 52 61 65 69 74 77 80 84
32 40 53 51 64 66 41 47 38 29 33 36 32 28 33 37 41 50 56 56 56 55 48 55 67 73 84 90 89 86 84 79 74 69 63 61 56 50 48 47 46 48 55 60 69 63 75 82 87
42 43 62 58 69 46 51 56 42 35 28 24 27 27 29 35 36 39 42 48 48 50 50 40 40 52 63 68 65 70 76 74 75 70 70 68 66 59 55 54 49 51 51 59 63 54 72 97 100
42 46 35 46 57 69 52 44 35 32 35 34 30 25 25 32 35 34 39 41 44 46 46 45 38 34 38 45 50 53 61 67 65 63 61 67 68 60 61 55 48 48 53 60 80 84 77 88 96
32 33 47 58 54 64 56 56 44 31 33 30 29 27 23 33 37 36 39 41 39 39 41 44 44 40 31 36 42 46 47 52 60 65 66 68 61 58 51 46 49 52 60 71 82 97 80 78 86
36 40 38 44 60 58 58 51 47 32 30 28 29 24 22 26 34 28 31 34 38 44 40 39 43 44 42 36 35 40 44 44 43 43 42 48 47 42 48 53 53 61 71 84 98 100 86 83 100
29 32 42 59 50 72 72 45 27 39 34 38 34 24 20 23 23 26 25 28 37 40 46 41 41 43 42 45 41 39 37 38 45 48 47 46 53 52 52 53 64 69 71 91 95 100 90 90 99

GFSSGP_850_rhum_054.txt.gz
RH
15 21 29 28 17 14 14 14 14 14 17 25 43 40 30 33 33 37 93 74 92 99 99 70 68 63 60 43 56 55 72 68 66 54 48 44 39 40 47 50 76 95 93 85 98 71 59 40 55
16 20 29 18 15 12 14 14 15 14 17 36 44 42 40 35 58 69 86 87 90 98 99 96 74 65 58 53 62 61 73 72 65 56 49 49 42 42 53 60 78 85 77 74 90 90 70 26 32
16 22 17 14 12 12 14 14 14 14 20 33 33 47 46 40 67 81 83 85 94 96 96 95 71 66 66 64 66 70 77 72 64 58 58 56 48 42 55 62 71 66 58 86 75 70 28 31 33
22 21 19 15 13 13 13 13 13 13 23 30 31 32 52 69 74 95 82 82 95 92 99 98 67 65 65 60 65 74 76 72 66 68 66 68 51 34 61 68 60 67 89 94 32 30 28 31 26
24 17 13 14 13 14 14 13 14 14 23 30 37 29 40 73 83 90 98 79 78 90 99 99 73 65 68 80 72 78 76 73 74 67 62 54 41 34 62 67 74 76 83 46 31 26 20 23 22
16 17 13 11 13 14 14 15 16 20 23 29 35 34 37 79 85 97 75 96 87 93 97 96 82 69 69 74 76 74 74 77 79 70 55 46 46 48 65 77 72 87 81 54 46 23 18 18 20
15 14 11 12 14 16 15 23 20 19 24 25 44 37 41 66 85 98 86 92 93 94 94 94 91 78 72 76 73 69 74 71 75 60 47 34 57 61 73 73 77 77 64 57 40 35 22 16 16
16 13 12 11 15 14 14 20 22 26 18 51 48 33 33 73 70 64 83 92 89 90 100 97 96 88 89 86 94 93 81 76 60 60 49 54 74 74 76 58 62 61 63 52 48 40 29 20 21
19 14 12 10 16 13 15 17 20 36 30 51 54 50 65 82 91 94 98 93 87 91 94 99 96 89 83 78 80 84 79 71 66 58 60 37 80 85 56 62 60 65 63 54 51 41 34 23 21
14 14 12 10 12 13 14 14 14 25 25 37 48 67 80 81 84 92 90 98 94 96 99 99 83 76 88 91 84 91 98 98 73 61 68 84 82 73 86 56 60 66 66 62 52 42 36 44 42
14 14 10 12 13 15 15 15 18 21 22 26 35 51 75 76 81 90 92 87 97 94 90 99 100 73 78 92 97 92 100 91 74 83 80 64 80 68 63 56 61 64 71 67 58 50 70 73 71
15 13 11 12 14 17 16 18 21 25 24 43 47 54 66 71 80 93 98 86 91 94 95 100 100 97 90 99 98 98 99 94 92 89 74 66 77 66 89 86 92 82 90 83 74 79 78 78 70
17 11 13 14 15 18 18 20 21 24 36 52 62 68 70 76 84 95 97 96 92 94 97 99 95 90 98 100 100 100 98 94 91 84 79 83 54 71 81 84 85 83 82 86 83 79 77 73 68
13 13 13 14 16 16 22 16 40 22 44 55 67 71 80 87 94 94 98 98 97 97 91 94 93 94 93 100 100 99 98 91 96 86 52 53 48 62 66 70 69 72 80 81 75 72 70 66 68
13 17 15 15 15 14 22 18 31 23 51 52 60 67 75 82 84 90 97 98 99 100 96 90 94 99 100 100 100 100 99 90 89 88 55 53 49 47 42 50 59 62 65 69 66 72 65 62 65
17 17 18 12 12 16 27 20 13 32 47 45 53 61 70 72 75 73 90 91 95 100 97 94 87 86 92 100 100 99 96 97 88 57 48 43 42 42 36 55 60 60 57 63 67 70 67 63 61
19 19 19 14 14 16 28 20 17 36 44 35 47 53 58 61 75 77 87 97 92 99 99 99 95 90 95 100 99 90 96 92 87 69 50 57 54 52 41 37 55 41 65 61 61 61 61 61 59
19 20 15 16 13 18 20 22 16 24 36 40 39 48 51 59 62 73 96 96 92 97 98 100 95 93 100 100 97 96 96 91 92 73 71 65 55 54 42 47 44 58 69 51 52 61 52 56 53
15 17 15 11 13 17 17 16 14 16 27 35 38 45 52 52 61 74 90 83 99 98 99 99 100 100 98 96 99 100 96 90 73 75 65 84 61 55 49 61 47 61 74 74 64 67 53 60 52
17 18 16 13 16 17 13 15 13 16 22 29 34 40 47 52 62 72 86 94 85 97 98 100 98 100 100 91 98 99 91 87 78 74 69 80 69 57 60 71 59 59 76 75 70 72 71 72 59
20 20 19 18 18 17 18 18 15 14 23 30 34 36 42 49 55 67 80 87 96 100 98 99 100 98 99 99 100 100 100 97 94 77 91 76 80 70 77 62 76 69 70 66 67 66 80 78 83
24 18 20 20 22 17 17 23 14 15 14 20 24 38 40 46 52 59 71 81 87 91 100 95 100 100 98 98 100 98 95 94 84 73 68 88 97 76 84 61 63 63 65 70 83 61 62 82 78
21 18 23 21 23 20 19 23 15 13 17 13 12 21 35 41 50 56 65 70 80 86 97 100 96 98 99 100 98 97 96 92 82 86 85 93 74 76 66 64 62 68 74 64 75 59 59 91 87
19 23 24 25 23 33 20 20 16 13 16 13 11 14 23 36 46 54 62 70 75 84 91 99 99 98 100 99 99 87 83 88 84 77 75 74 76 76 61 60 63 73 73 60 61 63 58 65 81
22 26 32 34 34 33 19 24 19 16 14 13 13 12 22 32 43 51 59 68 71 81 89 94 93 98 98 99 100 96 92 74 92 86 78 70 74 69 66 67 68 72 70 65 65 68 61 66 76
28 25 28 35 36 26 28 32 21 15 15 16 14 16 20 32 42 46 52 63 69 74 77 59 89 94 99 99 99 100 100 96 95 88 80 69 60 57 63 62 56 58 61 63 63 60 58 58 53
28 35 23 28 37 37 27 24 19 15 15 15 15 16 17 22 35 41 47 58 66 74 57 50 47 78 90 97 98 97 100 100 97 85 77 68 61 64 61 57 60 55 58 63 61 58 60 74 88
28 22 38 34 41 41 26 27 24 19 16 14 13 15 14 16 22 31 43 54 64 71 74 50 56 73 80 90 96 97 98 99 99 97 88 72 69 62 68 59 67 68 64 58 56 56 61 81 89
33 33 29 26 29 36 34 27 19 20 23 25 18 15 17 19 23 32 41 51 61 68 76 54 55 81 79 85 92 96 95 96 98 96 93 91 80 70 69 64 59 63 56 56 69 82 76 77 76
24 27 28 35 37 35 42 28 19 23 21 20 20 20 20 21 22 27 42 52 59 65 69 74 63 71 69 78 86 86 96 97 96 77 65 67 72 83 82 79 73 72 80 80 82 87 81 92 96

GFSSGP_850_rhum_057.txt.gz
RH
12 14 33 22 18 12 11 10 9 9 10 14 20 19 20 21 19 31 71 80 89 86 87 68 62 65 83 76 70 66 58 57 59 54 52 44 50 49 42 45 71 77 81 83 85 83 84 73 68
26 26 24 18 13 12 9 10 10 10 11 18 20 21 18 22 30 36 57 88 90 78 84 83 61 64 86 75 67 66 79 61 62 54 54 42 50 66 65 65 82 79 76 76 40 60 58 66 68
26 22 18 12 12 11 9 10 10 10 13 15 18 24 27 22 40 50 80 92 94 89 83 92 67 69 78 69 62 76 67 70 65 57 53 48 70 74 71 77 85 77 65 48 52 31 29 33 60
21 16 15 12 10 9 10 8 9 10 12 17 19 20 28 44 52 67 84 82 98 84 82 93 83 68 67 65 62 75 76 73 72 73 53 63 63 75 79 53 81 72 35 36 74 20 21 32 45
19 15 14 12 11 8 10 8 10 11 12 17 21 22 24 45 63 78 84 77 95 89 88 86 92 73 68 74 79 82 80 89 77 68 55 51 64 62 72 77 66 38 24 44 25 22 27 34 39
15 12 13 11 8 8 10 10 10 11 13 16 22 21 22 56 60 73 75 70 93 96 85 91 97 85 71 72 88 80 87 90 87 67 61 58 57 66 83 65 54 54 33 22 22 22 28 37 42
14 12 13 10 8 9 11 13 12 12 14 15 26 22 22 43 59 74 86 65 95 94 86 89 95 90 75 77 84 79 94 92 82 69 65 53 55 72 72 74 83 69 41 33 20 19 31 38 44
14 11 12 10 9 10 10 13 12 14 13 30 24 19 20 53 72 82 86 84 84 95 81 91 96 96 81 77 89 90 99 92 80 74 68 56 49 47 75 82 86 67 51 33 22 17 28 23 28
14 14 12 9 8 9 10 12 10 15 16 21 28 32 38 63 67 73 71 85 88 98 82 84 95 94 90 98 91 90 79 96 88 77 63 55 72 70 75 86 83 63 50 37 30 24 18 19 25
13 12 10 7 7 9 9 11 11 11 14 17 21 30 52 63 60 61 64 79 95 99 89 86 93 94 89 96 93 99 84 99 85 74 70 73 69 79 95 78 70 61 47 43 36 29 20 38 34
12 13 9 8 9 10 10 11 11 11 13 15 19 24 43 58 55 66 65 78 90 98 89 94 93 77 86 89 93 96 93 91 86 86 72 71 71 78 84 74 69 61 55 50 44 32 55 68 67
13 10 9 8 9 11 11 12 12 13 14 23 27 33 43 48 55 65 68 82 99 99 88 90 99 82 72 85 84 86 99 90 88 89 74 76 77 72 78 74 78 67 66 57 43 60 68 70 69
11 10 9 9 8 11 13 13 13 12 14 26 32 44 41 43 51 63 75 90 98 97 97 91 99 98 76 68 69 90 88 97 98 82 82 84 86 75 82 82 87 85 84 81 74 73 72 70 72
9 12 11 10 10 10 13 13 13 14 16 27 35 43 45 47 51 57 75 87 98 90 100 96 100 99 91 83 84 86 98 98 92 88 90 86 85 74 84 85 84 77 74 74 70 70 70 65 69
12 13 12 10 10 11 12 13 13 12 16 25 33 40 45 51 53 56 62 84 95 99 94 99 98 100 99 97 98 99 100 100 94 92 82 69 62 80 82 81 73 67 68 69 66 71 64 59 66
15 14 16 11 10 10 11 17 11 13 21 22 28 34 44 48 48 50 60 72 100 90 95 93 97 89 99 98 100 100 100 100 100 90 81 92 70 82 79 72 68 66 68 66 62 63 58 57 59
18 19 16 15 10 10 13 17 11 17 22 20 23 31 38 44 48 49 55 69 94 92 90 92 88 84 88 91 99 100 100 99 97 93 82 69 91 82 71 65 59 60 62 60 61 63 59 56 55
20 19 17 15 11 12 11 15 13 14 18 20 22 26 33 39 43 49 60 64 84 98 95 95 97 85 90 98 100 100 100 99 94 67 79 86 86 66 58 61 61 62 59 60 62 63 61 56 54
16 16 15 13 10 12 13 12 12 11 12 15 22 23 30 34 40 47 66 70 84 100 98 98 96 92 98 99 100 99 89 97 80 76 74 59 62 54 47 50 48 62 65 62 62 65 61 57 55
16 17 17 13 11 14 12 10 10 10 11 13 18 22 26 34 38 49 65 76 83 99 98 100 99 99 98 99 100 93 94 94 71 59 68 60 60 51 49 48 51 62 68 69 75 71 68 56 55
18 19 18 17 12 14 13 12 11 10 10 12 16 17 20 29 36 47 59 74 84 93 98 95 99 100 97 100 99 97 99 97 89 77 70 69 64 79 57 62 76 52 68 79 84 86 79 68 68
24 16 16 16 17 21 12 18 12 11 11 13 14 15 18 24 33 40 53 66 82 84 99 98 99 99 99 97 99 96 97 98 84 77 69 73 65 59 57 74 80 74 71 75 88 90 89 75 69
22 16 16 18 20 20 18 18 15 11 12 11 11 13 17 22 29 37 47 58 70 75 96 99 99 99 99 100 95 99 99 90 81 80 73 72 77 63 75 76 84 85 84 80 80 88 84 83 69
15 18 18 20 21 31 22 18 16 13 11 12 10 10 12 21 26 34 42 53 62 70 83 99 93 97 98 99 98 99 98 95 90 80 76 81 86 79 83 85 85 81 83 82 80 81 83 78 79
18 22 31 33 34 35 19 20 17 12 12 12 11 10 12 16 23 32 40 49 56 67 76 94 99 98 98 98 98 99 99 96 95 88 79 76 88 92 81 80 86 78 70 63 73 73 76 78 72
21 23 30 39 40 28 18 24 16 12 12 12 12 11 12 18 24 31 37 46 52 64 73 79 90 97 99 99 100 100 100 97 100 97 86 73 63 65 62 76 82 68 66 62 64 62 81 70 68
24 28 18 27 29 36 21 20 15 14 13 12 11 11 13 16 23 28 33 41 50 58 70 75 75 82 95 98 99 98 95 98 98 96 86 84 77 61 58 64 68 66 60 58 64 70 79 77 75
23 18 27 28 44 46 27 27 27 16 15 14 13 12 12 14 17 22 29 35 46 54 62 76 71 69 78 94 99 98 95 92 87 86 87 82 80 68 74 59 64 64 60 64 68 67 66 72 75
27 30 29 24 28 38 40 27 16 21 22 21 18 14 17 18 19 20 23 29 40 50 58 72 76 66 65 79 93 96 97 96 96 94 86 91 89 85 83 75 71 72 74 76 82 75 72 76 75
22 27 32 36 43 30 38 33 19 20 19 19 18 17 17 17 17 20 24 32 38 48 54 64 76 72 65 65 80 86 88 90 94 90 89 90 92 88 85 78 74 78 79 82 83 84 86 85 85

GFSSGP_850_rhum_060.txt.gz
RH
11 12 19 29 21 18 15 11 8 8 8 11 16 16 18 16 18 42 67 67 78 83 85 75 60 57 64 75 72 63 53 50 52 45 45 44 48 51 44 42 58 67 71 85 80 81 64 63 69
10 25 26 19 23 20 12 9 10 8 11 15 15 16 15 19 31 36 65 79 78 75 78 73 63 58 63 81 80 72 63 56 62 52 43 44 46 49 56 77 75 74 62 78 70 63 69 61 62
20 26 18 18 17 18 13 9 9 9 11 12 13 15 22 21 38 44 54 46 42 62 81 73 66 62 73 80 84 84 71 66 65 63 52 41 43 53 70 82 86 71 41 46 64 54 47 71 72
25 22 16 17 16 11 8 7 8 9 9 12 16 17 24 30 38 55 51 49 63 54 85 83 83 69 74 94 93 90 77 73 66 62 58 40 51 62 73 83 88 73 31 23 38 24 40 59 78
24 14 16 16 14 10 8 8 8 10 9 11 15 19 21 46 48 42 34 42 80 79 82 86 81 84 81 90 84 74 84 81 70 61 55 53 65 74 80 90 86 70 82 27 15 25 43 55 59
17 14 18 16 11 8 6 9 9 9 10 11 14 18 23 49 56 55 42 35 68 85 76 94 87 84 83 74 72 83 89 93 77 66 57 64 59 66 74 90 82 50 22 18 21 22 24 34 39
17 15 16 13 11 10 8 9 10 10 10 13 23 21 18 45 51 66 73 55 55 79 88 91 90 93 95 78 79 93 93 95 97 73 54 56 62 69 72 76 51 33 32 23 22 19 23 38 48
14 14 16 13 12 11 6 11 12 11 12 21 22 16 20 59 63 62 68 81 79 89 84 89 94 93 97 93 85 96 84 77 93 76 61 59 59 68 66 62 58 37 26 20 18 21 28 33 45
13 16 17 14 12 9 10 11 11 10 14 13 19 24 35 55 58 66 63 73 66 78 92 83 88 94 96 95 85 89 86 78 98 80 67 67 63 66 63 75 77 44 32 20 20 19 20 28 43
13 17 15 11 8 8 8 10 10 9 12 14 15 19 35 54 55 54 54 66 77 83 93 91 90 98 98 91 92 95 89 74 97 87 76 66 60 60 41 80 78 50 30 21 17 20 21 22 54
13 16 12 10 8 8 8 8 9 10 11 11 22 19 42 53 50 58 58 64 80 93 91 92 94 100 96 95 93 78 86 86 99 99 89 72 73 82 79 89 74 47 39 30 24 21 22 26 66
14 12 12 10 9 8 9 9 10 10 11 12 20 24 28 43 48 56 60 69 80 88 100 84 97 99 98 93 87 84 90 75 93 93 84 70 62 78 79 84 70 50 46 36 24 36 49 37 67
13 11 10 10 9 8 8 10 11 11 11 13 23 30 33 36 38 53 61 80 78 92 98 84 86 100 97 97 85 95 80 75 77 83 89 72 76 77 70 71 70 54 48 38 52 70 69 67 72
12 10 10 9 10 9 8 9 11 11 11 13 23 30 36 41 38 44 66 76 89 85 76 86 91 99 100 88 85 96 97 87 67 87 78 81 77 75 77 70 71 60 56 44 72 76 71 71 74
11 12 10 10 11 10 10 11 12 11 11 12 20 28 35 44 41 42 54 70 86 92 82 83 93 98 100 87 87 89 92 87 93 92 79 84 76 75 65 69 71 68 78 67 70 72 70 68 73
15 15 17 12 11 10 10 16 11 10 11 12 18 25 34 38 44 42 50 65 87 93 92 86 81 95 99 100 97 100 100 99 98 94 90 83 82 80 58 77 75 67 83 69 72 68 64 63 70
20 22 19 15 10 10 11 15 10 10 14 17 16 20 30 38 42 42 49 61 87 97 99 80 82 84 88 99 99 99 100 100 99 100 89 80 54 80 78 69 69 67 77 70 70 65 60 59 65
26 22 20 18 12 12 12 13 11 12 15 18 17 16 25 34 40 43 47 56 81 83 100 92 81 85 81 84 86 98 99 100 100 98 89 83 64 88 92 83 80 72 75 66 63 61 58 57 59
21 19 18 15 12 12 14 13 10 9 11 15 17 18 20 30 34 44 51 55 76 87 98 100 88 84 81 85 98 100 99 100 100 95 77 92 85 77 76 66 61 60 64 62 63 63 61 58 56
23 23 21 16 12 12 12 13 10 9 10 11 12 18 21 25 33 42 55 61 74 88 96 98 94 84 86 94 100 100 99 98 98 97 75 93 77 78 73 66 61 62 60 59 61 62 61 58 56
22 23 21 19 15 12 14 17 14 9 8 9 12 12 18 22 31 42 56 67 74 87 96 97 98 88 94 97 100 100 100 92 92 95 68 61 77 69 66 55 48 50 62 62 67 62 61 58 55
25 16 16 17 19 23 14 24 14 11 10 10 10 13 15 17 29 40 52 67 72 84 94 97 99 96 96 98 100 97 94 97 85 68 59 80 65 62 55 59 52 42 44 49 74 71 65 64 59
25 19 20 19 21 23 20 22 16 11 12 11 12 13 14 15 22 35 48 60 73 79 91 97 99 99 94 95 97 100 94 95 81 83 71 72 72 67 62 62 58 47 49 63 82 78 73 74 76
19 20 22 22 24 36 24 23 21 15 12 10 10 10 13 15 19 30 42 52 66 75 87 96 98 99 99 92 98 99 99 94 88 71 78 72 65 66 55 53 61 83 67 61 81 83 74 71 71
24 27 36 42 42 44 23 24 23 15 11 11 11 10 10 16 21 27 40 50 59 69 79 92 98 98 100 94 93 98 98 94 91 73 61 64 70 68 60 64 62 63 73 81 74 76 74 70 69
29 30 37 56 56 36 21 26 20 13 10 12 12 11 12 16 19 23 33 44 54 64 74 82 98 100 100 100 98 100 99 99 99 94 79 66 68 77 72 69 60 55 88 81 79 66 63 63 65
34 47 23 34 34 47 38 20 14 12 13 11 11 11 11 13 18 23 30 40 48 60 68 78 86 97 98 99 99 99 99 98 98 93 88 75 67 69 85 72 63 65 72 84 78 62 60 61 69
31 27 42 34 53 62 36 26 23 19 16 13 13 13 12 14 17 23 26 35 44 52 64 72 79 83 92 87 95 100 100 99 98 100 95 91 82 67 71 68 60 68 80 83 79 62 59 60 62
31 35 40 40 32 52 54 45 32 27 24 22 20 18 18 17 18 18 23 28 38 47 56 66 74 76 81 85 85 94 96 99 99 99 96 92 89 84 81 77 70 72 79 84 79 78 70 62 66
24 29 32 54 58 39 50 41 26 27 22 23 22 18 17 17 17 19 21 28 30 43 52 60 68 72 70 76 79 77 74 98 92 84 85 91 89 85 74 70 72 71 61 64 65 72 72 72 74

GFSSGP_850_rhum_063.txt.gz
RH
11 10 12 33 44 36 34 24 16 12 22 18 18 20 20 20 34 62 69 60 56 52 56 60 61 67 61 60 62 54 49 51 50 43 40 40 40 39 38 35 31 43 79 84 70 61 50 59 65
10 14 27 29 38 42 34 19 18 17 15 14 14 15 18 36 50 64 62 56 76 75 46 60 66 62 67 67 69 62 56 54 54 49 45 39 38 33 38 47 58 78 80 87 80 58 63 67 67
11 25 30 36 37 37 34 16 14 14 12 12 14 14 22 40 36 42 25 27 36 76 79 81 71 61 65 71 76 70 61 56 56 53 46 42 40 32 48 76 72 70 78 83 84 57 69 65 56
15 28 29 28 32 24 20 15 11 12 12 12 16 19 29 30 24 23 21 22 22 55 87 88 84 68 62 70 79 78 70 62 61 56 48 46 45 42 63 76 77 65 83 88 52 53 64 67 70
20 27 29 30 26 18 14 11 10 12 12 16 17 21 41 39 33 35 30 29 25 36 79 92 90 79 73 77 90 90 86 78 70 61 52 47 53 62 61 76 79 59 84 49 46 56 72 69 72
24 20 32 33 24 17 14 11 9 11 10 10 14 19 47 48 46 38 43 40 33 36 63 90 96 87 86 80 85 94 93 86 83 72 56 43 59 67 50 85 81 60 46 23 50 58 67 65 64
30 32 30 27 22 16 13 10 13 12 11 21 22 23 54 54 50 46 47 48 49 50 74 97 100 89 86 91 87 89 87 96 99 98 64 57 68 69 59 82 79 53 45 23 33 57 54 55 68
26 29 29 24 22 19 12 12 11 11 16 21 20 21 58 53 52 49 46 52 63 73 84 80 96 98 94 97 86 86 88 86 79 89 99 75 82 73 58 65 58 39 26 29 44 27 50 61 63
26 29 27 23 20 17 11 13 12 11 12 16 16 16 21 46 44 43 56 65 70 70 69 80 80 93 98 100 93 91 89 87 75 79 89 91 87 60 58 54 49 44 33 27 28 31 39 60 63
24 27 23 16 15 15 11 12 11 10 14 14 17 34 42 46 42 50 57 66 66 68 73 75 79 90 100 99 98 91 86 91 90 78 77 93 78 66 66 54 49 30 23 25 29 41 46 62 65
23 26 18 15 14 14 13 10 10 11 13 14 28 38 36 38 48 51 55 58 65 81 80 84 90 99 100 100 96 90 85 80 75 80 94 88 82 72 73 78 50 37 28 29 23 29 33 64 63
27 19 17 15 14 13 13 9 11 11 12 15 19 30 40 48 50 48 58 62 73 81 87 85 98 98 100 100 99 92 92 81 68 83 91 84 72 59 69 83 54 33 23 17 21 21 38 63 68
24 19 16 14 12 13 12 11 11 12 12 17 22 23 35 40 44 52 57 65 77 84 90 89 100 99 98 96 88 96 92 75 83 95 93 76 58 54 69 76 58 41 29 20 19 19 54 70 71
20 18 16 13 12 11 12 12 10 10 11 11 24 27 32 36 39 44 54 60 70 80 88 94 97 100 99 92 87 96 81 76 85 86 81 71 77 81 69 80 57 43 34 23 27 25 62 75 68
19 22 17 14 12 11 12 16 13 9 10 11 23 30 35 37 40 41 50 56 68 71 85 98 98 99 98 94 89 93 87 83 82 84 78 65 61 79 70 70 59 47 37 52 66 66 60 71 76
28 25 26 16 14 13 14 20 15 10 10 12 12 29 35 37 41 41 47 61 69 75 77 95 100 100 98 94 89 90 86 89 90 89 85 68 67 74 67 74 61 51 44 72 77 72 70 73 73
32 38 29 20 14 14 16 18 14 10 11 13 15 26 34 38 44 43 45 51 57 72 77 92 97 99 98 99 97 90 85 92 92 95 84 75 72 71 64 70 66 58 57 62 76 72 67 72 71
46 34 26 25 18 16 16 16 14 11 14 19 18 19 34 39 42 43 43 49 58 69 76 88 96 98 99 91 99 100 100 98 100 95 89 80 77 74 70 70 69 66 71 65 76 72 63 67 69
31 31 33 27 19 20 19 16 15 16 15 24 19 18 28 38 40 43 44 48 58 72 75 98 92 100 96 100 98 98 100 100 100 100 96 88 76 78 96 79 78 76 71 71 77 68 60 63 66
31 32 34 26 19 21 20 18 15 14 14 17 22 19 18 37 40 44 45 48 55 63 77 94 98 88 92 87 88 98 94 96 94 99 100 92 99 93 88 79 76 78 79 78 69 62 63 62 60
30 35 34 30 22 18 18 20 18 15 14 12 14 16 18 35 41 45 47 49 55 64 74 87 98 94 89 97 99 99 100 100 100 100 99 91 83 94 86 75 80 78 77 78 66 62 63 61 62
23 19 22 22 24 30 20 36 23 18 16 14 12 16 19 37 37 42 48 50 52 62 76 87 98 99 92 100 98 98 97 98 99 97 96 81 66 90 80 82 81 82 73 61 60 61 58 54 62
42 25 27 28 30 30 27 35 27 21 20 14 15 14 16 32 36 40 43 47 49 56 70 78 99 97 99 98 98 99 99 98 95 85 99 96 77 76 74 74 66 50 49 54 64 59 51 48 59
37 46 36 34 33 48 35 33 34 25 19 16 13 16 14 25 36 35 40 48 53 55 66 79 85 98 98 96 98 98 93 86 84 82 74 72 63 69 63 65 47 48 52 63 60 46 49 52 58
40 60 63 58 58 60 31 34 29 24 18 17 16 16 14 17 38 45 48 53 58 57 63 74 81 97 98 99 93 93 90 83 83 80 71 71 78 72 60 58 50 48 48 56 59 54 55 54 76
42 48 72 64 67 48 30 39 30 20 16 14 13 14 15 19 39 42 43 45 53 56 59 66 80 82 98 97 98 96 94 93 88 87 72 63 58 60 59 56 53 52 62 66 58 69 77 66 75
51 52 34 56 65 67 54 39 20 19 17 15 13 20 21 21 36 35 42 44 47 55 56 56 69 74 96 98 98 99 98 94 92 89 82 62 56 60 64 72 64 59 57 75 76 77 73 77 78
41 32 63 85 91 95 49 50 51 34 20 22 19 23 21 22 25 39 39 41 45 44 49 55 60 62 55 97 97 98 98 98 98 93 86 75 59 60 64 63 64 70 66 60 64 73 74 72 74
42 54 84 77 64 71 69 59 43 35 33 30 28 22 19 19 24 31 40 37 38 43 51 58 60 64 65 61 93 98 98 97 98 99 91 87 83 80 66 61 59 59 60 60 62 64 65 66 69
35 42 72 100 83 70 63 71 42 33 25 27 26 23 27 32 33 34 39 51 54 46 54 55 60 62 63 58 67 81 100 99 98 98 99 99 90 86 80 72 64 64 60 60 63 64 68 70 69

GFSSGP_850_rhum_066.txt.gz
RH
19 13 13 26 45 44 42 32 21 20 21 19 18 19 28 30 34 43 50 52 36 33 33 42 61 64 60 54 47 46 46 46 40 39 40 44 54 61 59 48 38 32 27 22 41 86 93 73 73
15 12 18 32 48 47 42 27 23 19 19 15 15 18 25 57 42 48 48 49 42 31 34 56 62 68 66 62 53 46 49 50 45 42 40 41 44 43 41 37 30 26 35 38 55 96 83 70 70
12 16 28 42 49 49 38 23 16 14 14 13 15 17 28 51 33 24 23 27 28 26 30 52 72 66 71 68 63 53 47 52 52 43 41 41 41 40 33 33 46 70 76 88 94 91 68 70 70
14 27 32 35 38 33 29 21 19 14 14 13 17 32 32 39 30 22 21 44 41 35 32 51 74 77 66 75 73 64 54 49 54 48 44 43 43 34 36 47 73 81 77 80 97 69 73 76 79
22 31 43 37 33 24 20 16 15 14 14 18 16 28 42 36 30 26 24 26 49 49 44 60 66 83 73 70 80 74 64 56 56 54 45 42 36 43 60 58 74 77 79 84 72 76 73 73 80
23 28 39 42 30 20 18 15 15 14 15 18 19 48 52 46 33 33 33 33 35 50 71 81 90 87 86 79 82 83 76 68 62 62 50 44 37 58 70 66 67 71 81 78 69 76 82 86 81
32 40 38 32 28 24 18 15 15 15 14 19 18 44 65 53 44 40 40 46 48 44 48 73 98 96 86 92 85 90 96 88 89 96 93 74 60 64 77 65 59 65 79 69 76 76 80 84 86
27 39 37 34 32 30 18 14 13 12 14 20 20 61 66 50 42 44 53 49 47 52 61 71 88 94 87 85 90 92 81 75 91 100 98 96 86 80 78 73 46 36 36 68 75 72 76 78 76
32 44 48 35 29 23 16 17 13 12 20 20 20 26 18 36 46 49 47 57 65 66 74 72 77 86 90 88 91 94 92 88 86 80 82 85 99 89 83 75 58 21 36 60 73 70 76 73 73
41 47 43 27 22 20 16 16 15 12 18 19 26 24 29 40 45 41 49 56 66 68 69 75 77 80 95 95 99 96 96 86 72 76 76 77 91 88 81 85 58 34 28 56 68 66 76 68 71
32 41 27 21 19 17 17 16 15 13 15 15 34 42 47 46 47 48 51 49 59 65 70 72 78 86 97 97 100 100 96 90 86 79 73 77 82 96 97 87 74 35 27 39 51 60 71 75 80
40 29 26 23 20 19 18 15 14 12 12 14 17 26 36 39 41 40 49 57 56 64 70 77 87 97 96 95 98 100 97 92 93 80 78 72 98 82 89 68 36 23 24 33 33 54 67 75 76
39 33 28 24 20 18 16 16 16 13 11 16 25 34 35 37 36 47 50 58 62 70 73 71 98 98 96 95 97 95 94 90 88 70 83 83 90 85 78 54 35 27 25 27 41 54 66 70 77
26 28 27 23 19 17 16 15 14 12 11 22 29 37 40 40 40 50 55 54 60 72 77 72 89 97 92 96 95 99 99 89 89 89 100 100 81 74 76 59 45 30 24 22 34 47 65 68 80
26 30 24 22 18 18 14 16 16 12 11 12 25 33 39 42 40 36 40 44 54 62 64 77 76 98 96 92 89 100 99 82 80 96 100 85 76 68 83 68 47 37 22 20 22 47 66 70 76
32 29 35 22 17 16 16 22 15 12 12 11 14 24 36 40 33 34 39 45 58 63 69 60 76 99 98 94 87 92 94 77 85 95 86 81 65 54 52 62 52 36 25 17 19 60 74 67 72
39 48 36 27 18 18 18 22 16 13 12 12 11 22 34 40 40 38 38 44 54 61 67 58 91 93 99 96 92 88 91 90 82 90 89 86 78 68 62 77 53 39 27 28 26 69 70 60 74
52 44 33 30 21 22 25 23 18 14 14 14 12 16 31 39 39 40 40 47 61 64 71 62 84 87 93 94 88 87 95 96 96 92 84 78 89 81 78 81 53 42 37 57 60 55 58 62 68
35 37 41 33 28 29 28 26 26 20 15 18 18 22 36 39 40 43 41 48 65 68 72 64 89 96 95 100 94 99 98 94 95 96 89 86 79 79 78 79 59 46 60 71 75 72 68 73 69
35 39 43 33 25 27 27 29 20 18 17 17 22 25 37 45 44 44 44 50 62 60 71 67 74 98 99 100 100 100 99 98 100 100 100 92 83 88 73 68 71 57 50 64 75 73 71 71 68
30 31 39 38 29 24 30 30 22 18 15 14 16 18 23 40 43 44 46 48 58 64 66 63 58 97 97 100 100 100 100 100 100 100 100 95 93 86 76 64 78 67 70 66 74 73 68 66 70
59 23 22 27 31 52 29 50 27 22 21 18 16 17 23 40 37 41 46 50 54 62 66 61 65 98 98 99 96 92 88 98 98 99 99 100 98 87 81 86 89 75 74 73 77 75 63 62 68
46 44 49 46 49 46 36 42 28 24 24 21 20 16 18 27 36 41 43 42 50 60 62 62 65 95 96 100 97 98 91 91 95 100 99 100 99 91 94 95 91 81 81 86 80 73 64 60 65
53 52 50 42 47 67 43 42 43 31 22 19 18 15 16 37 39 36 44 45 52 62 64 66 63 89 98 96 99 95 97 90 100 100 100 99 100 98 95 89 85 87 83 82 83 69 66 62 62
57 70 69 68 69 73 39 43 38 28 24 22 22 18 16 35 46 50 49 47 52 58 65 68 69 62 98 98 99 99 98 97 90 98 98 97 93 88 92 83 88 89 85 77 72 66 61 61 52
61 76 84 91 92 66 34 45 35 23 19 18 17 16 20 44 49 45 41 41 46 54 63 66 66 62 75 98 98 100 98 100 90 92 82 79 77 70 73 84 80 84 70 65 64 60 58 50 51
76 94 63 85 66 91 60 43 31 31 23 19 19 26 34 48 50 44 42 40 43 51 54 58 62 61 61 76 98 97 100 99 89 84 77 74 76 81 76 70 68 68 57 51 52 60 63 55 49
50 61 98 98 97 94 57 48 52 40 38 29 32 35 44 47 47 42 39 38 40 43 51 59 63 59 57 57 80 98 97 96 92 83 82 83 79 65 65 66 63 61 57 47 53 50 53 58 69
60 96 92 82 82 96 77 72 64 51 37 38 43 46 48 44 54 60 60 59 60 60 54 55 61 66 69 69 59 82 98 96 94 95 93 88 87 76 69 67 62 56 56 52 51 52 57 55 66
53 74 75 99 86 81 86 95 74 55 42 32 43 49 52 54 56 53 57 63 68 77 82 81 82 71 66 70 67 60 69 97 98 98 98 99 92 85 76 68 66 59 58 61 54 56 57 65 68

GFSSGP_850_rhum_069.txt.gz
RH
17 17 13 27 41 50 49 37 27 24 19 19 20 21 23 29 28 31 39 40 34 29 25 35 56 56 52 48 45 43 43 44 53 65 72 78 79 76 71 70 64 55 46 41 47 64 73 74 70
21 19 16 35 53 49 41 34 28 22 17 19 25 34 35 50 45 40 36 27 34 32 29 30 45 58 57 51 47 46 44 42 42 54 70 74 73 74 73 69 56 42 35 37 74 82 89 75 75
21 16 28 44 59 49 36 28 19 18 14 18 18 21 31 43 38 31 23 23 27 30 31 32 38 50 61 59 52 49 47 47 45 44 50 63 69 70 62 49 39 36 35 55 70 80 87 76 75
17 25 33 47 50 42 32 23 22 18 14 14 17 33 35 30 27 24 21 24 22 23 26 31 41 52 64 65 60 54 51 51 48 44 44 48 55 53 45 39 37 40 44 75 79 80 78 76 76
23 32 51 49 44 34 25 22 18 19 16 14 18 36 39 30 29 23 24 24 24 26 32 45 51 64 66 71 70 62 55 54 53 43 42 42 44 43 40 39 67 77 75 79 76 73 78 75 77
28 32 50 55 38 26 21 17 17 18 16 15 20 45 48 36 36 33 34 28 31 36 42 57 71 72 83 73 78 75 65 58 58 51 48 53 41 38 42 77 83 81 78 73 75 78 75 76 79
28 41 48 39 32 27 21 16 19 18 18 18 21 61 56 49 42 38 40 41 42 45 50 56 87 92 90 85 83 86 87 89 81 74 72 91 61 47 65 73 76 74 74 70 78 78 73 78 77
28 42 44 37 32 30 20 17 15 15 16 20 25 67 66 45 49 44 54 50 51 50 46 55 81 92 91 87 89 89 99 90 98 94 94 85 83 85 73 76 75 71 73 79 77 78 70 82 79
36 47 56 40 34 26 19 19 16 15 16 19 28 26 22 34 48 56 50 47 50 52 56 66 72 79 80 79 87 86 94 96 65 72 90 94 82 84 87 78 76 74 52 76 84 88 91 92 80
50 61 42 33 25 25 21 20 18 17 17 16 27 32 22 36 44 51 48 43 50 46 57 72 73 76 78 78 87 86 93 99 72 81 89 84 72 80 86 82 79 80 62 79 87 90 86 78 75
43 45 34 30 25 24 22 20 19 18 20 16 26 26 25 40 48 51 42 42 42 50 66 73 74 77 81 84 88 91 94 97 91 81 97 76 74 93 93 94 82 84 88 79 83 82 78 73 72
47 36 32 32 28 25 25 21 19 18 17 15 14 19 30 39 43 43 36 45 47 50 61 66 74 81 82 94 95 94 97 100 99 100 90 74 73 69 82 91 86 66 91 77 76 82 75 69 71
46 40 34 32 30 27 24 23 21 19 16 15 13 33 35 34 36 39 42 43 50 54 55 60 73 81 90 96 94 99 99 100 100 92 98 91 82 83 84 85 74 44 69 74 76 81 72 74 72
31 33 34 32 33 29 26 23 19 17 15 13 17 43 35 32 34 42 47 48 55 56 51 51 69 79 93 92 94 97 100 100 100 100 93 89 81 86 69 90 64 45 54 71 63 79 73 74 74
30 36 33 30 26 24 20 24 22 15 14 13 27 42 37 31 37 38 33 40 47 50 48 47 64 90 92 87 90 99 100 99 100 99 96 91 83 92 74 83 62 43 45 46 57 76 76 75 76
35 34 44 29 25 22 19 29 20 14 13 14 25 47 38 33 33 38 38 40 49 55 50 49 56 85 95 85 88 96 97 96 93 99 100 99 97 90 68 76 45 38 33 30 44 72 73 75 80
45 56 44 34 23 22 20 27 20 16 16 16 15 40 41 35 43 40 42 46 51 52 54 53 52 78 98 81 89 81 99 100 88 95 100 100 96 92 85 69 44 32 27 26 43 65 71 78 77
57 51 44 38 27 30 32 33 25 20 20 18 16 16 36 38 35 36 42 51 54 54 61 57 49 75 92 96 92 88 93 92 87 95 95 98 95 90 89 78 47 32 26 28 32 50 71 74 76
43 44 47 39 30 33 35 33 28 24 25 21 18 17 25 32 29 38 44 51 57 61 63 55 45 75 95 91 96 100 96 93 88 93 94 91 90 86 81 82 60 40 27 22 23 51 72 75 80
34 39 45 37 29 31 36 35 27 24 23 19 17 18 18 31 43 42 45 54 60 58 60 58 51 61 88 83 83 93 98 94 96 96 99 96 95 83 77 87 79 44 28 22 22 62 72 71 77
43 37 42 44 34 34 36 36 34 26 19 18 16 16 18 19 39 44 45 50 60 62 57 59 50 54 86 91 92 91 95 94 98 98 100 100 99 89 94 91 84 51 33 36 30 62 68 58 74
58 34 38 29 33 55 34 62 40 32 26 22 19 22 25 35 39 41 43 50 54 57 60 63 55 55 79 94 97 96 93 98 98 98 99 98 99 88 96 93 91 67 40 53 60 63 66 63 71
54 56 57 53 56 51 46 55 44 27 30 26 22 17 17 20 29 40 39 42 51 57 58 64 61 58 66 96 98 97 99 98 99 99 96 100 100 92 88 94 95 89 64 59 75 79 74 71 67
50 62 57 57 58 74 48 50 51 38 30 24 20 17 17 17 32 39 54 50 54 61 63 69 64 61 75 80 92 99 99 100 100 99 99 99 100 97 97 96 94 91 84 72 67 73 76 73 67
64 87 86 79 79 69 46 51 40 33 29 27 26 21 19 17 29 50 52 55 54 58 62 71 68 63 67 88 88 83 88 97 99 99 98 100 100 100 99 94 96 95 92 82 84 87 85 80 69
62 90 96 89 88 76 50 57 37 35 31 31 23 20 17 19 24 38 41 46 46 54 60 68 69 66 67 89 84 91 92 88 100 99 98 99 100 98 93 89 92 98 95 88 76 88 86 90 76
87 92 85 93 88 90 70 47 34 41 42 45 31 20 18 23 36 49 51 46 44 49 52 58 64 68 64 63 84 96 94 94 82 91 100 100 100 100 98 90 90 98 98 92 85 88 89 88 74
86 77 100 100 98 95 66 67 85 62 53 55 62 62 47 55 61 65 56 50 50 53 58 68 70 73 73 73 80 85 97 99 88 85 90 99 99 100 96 93 86 83 89 91 94 85 82 82 77
92 97 97 93 90 93 87 93 71 75 69 61 62 65 66 63 70 73 74 71 68 69 72 76 79 85 88 85 87 86 95 99 93 89 84 84 90 96 98 88 85 86 86 82 78 73 68 66 66
63 78 95 99 98 93 100 93 74 74 63 59 60 66 71 79 73 74 79 80 78 76 76 77 82 85 88 86 86 83 83 96 100 92 88 84 84 81 81 82 82 85 83 83 74 69 63 59 58

GFSSGP_850_rhum_072.txt.gz
RH
20 20 14 32 38 52 49 34 30 26 22 20 22 25 26 21 28 29 31 23 27 24 27 35 52 49 51 48 45 48 57 59 57 62 70 76 70 59 59 59 59 57 56 53 55 62 67 75 84
21 21 18 36 46 43 27 37 32 25 18 16 29 32 35 34 38 34 34 32 25 22 22 25 39 48 53 51 49 56 64 57 51 54 66 74 71 69 67 65 64 61 56 54 59 68 73 80 83
26 18 24 49 64 38 29 29 25 20 17 16 18 25 27 35 34 30 28 22 19 20 22 22 28 48 55 53 50 57 60 56 51 54 63 73 75 76 70 70 70 65 72 73 68 69 77 76 80
26 24 32 50 56 42 27 21 22 22 14 15 17 28 31 36 34 29 22 20 21 23 26 29 29 41 58 61 55 52 57 54 53 60 71 80 76 76 75 74 71 61 66 70 71 80 76 83 82
22 29 48 59 51 39 33 25 22 21 18 15 16 27 37 37 30 30 21 23 24 27 26 27 29 46 62 68 64 57 54 57 57 60 64 69 79 76 73 72 52 61 73 68 68 77 71 74 84
30 36 58 56 44 30 26 21 19 18 18 16 20 21 29 35 33 28 26 28 31 33 32 33 34 53 72 75 74 71 59 58 61 60 66 77 56 84 73 52 43 50 66 74 74 76 75 78 83
31 47 53 46 38 33 24 17 20 19 19 18 17 38 33 33 37 33 29 31 35 39 44 46 47 63 76 84 84 84 82 78 74 82 93 84 74 61 66 74 78 83 80 77 75 66 78 79 77
27 40 44 42 36 32 19 18 16 16 17 18 38 51 43 26 36 38 34 38 44 48 46 44 50 81 85 78 81 93 93 88 91 94 80 99 86 80 78 83 88 82 76 70 63 74 80 76 78
35 44 56 39 35 26 21 20 18 17 17 16 16 25 36 37 39 43 39 45 50 48 43 42 56 84 80 88 83 87 92 92 94 84 68 77 87 93 81 93 92 83 76 63 70 81 84 77 75
47 61 37 36 28 26 22 24 23 19 20 18 15 20 27 51 45 38 38 45 48 48 42 44 62 69 78 79 78 79 88 93 90 88 66 74 79 87 90 81 88 83 81 74 78 83 80 78 75
50 48 35 32 26 26 27 25 22 21 25 19 16 16 15 19 64 42 43 47 43 46 41 50 66 73 75 76 77 79 80 86 98 85 81 73 76 84 92 80 92 86 87 83 86 86 83 78 74
54 44 38 32 29 31 31 27 26 22 22 19 18 17 16 20 45 49 38 44 48 46 46 39 63 73 76 76 82 82 82 88 91 92 80 79 86 91 77 84 78 86 85 84 87 86 86 78 76
50 46 38 35 33 31 30 32 29 25 23 22 20 15 13 23 30 48 38 50 48 47 47 39 56 74 76 76 89 86 85 92 96 96 95 99 95 86 88 84 88 83 83 89 89 85 78 73 77
30 34 35 34 35 34 34 33 29 26 24 20 17 15 13 20 29 43 44 42 46 44 50 42 55 68 78 80 93 92 91 97 97 99 98 97 91 87 93 88 82 79 84 87 88 82 76 72 78
35 43 38 37 35 39 31 34 30 21 19 17 15 14 13 22 41 42 30 30 38 46 48 51 59 70 76 86 91 93 96 99 99 100 100 98 87 85 87 87 87 84 86 87 84 81 74 74 78
39 41 51 34 33 29 25 38 27 20 18 17 15 14 14 26 32 38 36 36 38 51 48 56 58 71 83 88 87 89 97 99 100 99 100 100 94 93 90 85 86 87 86 92 83 80 77 79 74
48 56 52 42 28 26 27 33 22 18 20 19 18 16 18 29 42 39 36 41 42 50 50 58 58 69 86 86 87 84 98 99 99 100 100 100 99 100 96 93 82 86 75 97 88 82 78 76 77
56 57 54 49 31 30 32 36 32 24 23 24 22 21 17 20 31 32 38 42 50 54 57 64 63 66 92 86 82 82 97 99 100 99 97 100 100 95 99 94 82 81 61 92 92 82 77 76 74
42 50 54 44 35 38 40 39 33 28 27 28 23 23 19 17 15 30 41 48 52 59 61 64 62 59 94 82 87 86 99 100 99 99 99 100 100 96 94 89 86 64 49 59 70 78 76 78 80
40 41 41 38 36 38 42 41 35 30 29 25 23 21 19 18 20 31 40 48 51 57 59 63 61 54 95 99 91 85 82 100 98 100 99 98 97 99 96 86 86 59 45 55 61 65 73 78 80
54 54 51 41 36 35 39 39 34 27 29 23 20 18 17 16 20 31 36 42 48 59 57 60 60 55 86 99 94 89 90 100 100 99 100 100 91 84 80 87 88 56 38 36 50 63 66 73 80
72 47 44 40 45 54 36 58 40 36 33 29 24 20 19 22 26 30 39 42 45 50 59 59 61 59 71 100 85 83 84 98 98 99 100 100 100 99 95 90 86 80 43 35 33 51 52 73 76
69 53 64 58 66 58 53 57 42 38 37 32 28 21 18 19 23 28 28 31 43 49 56 60 66 62 56 100 96 91 92 92 96 90 96 100 100 100 100 97 84 99 80 46 26 25 46 76 73
54 68 61 62 70 88 58 56 51 44 36 30 23 20 18 17 21 36 48 51 49 49 57 62 64 63 51 79 99 98 94 93 90 94 97 100 100 100 100 98 100 93 88 60 32 34 42 73 68
66 79 91 89 88 86 50 58 43 30 29 37 42 34 25 18 18 22 48 55 51 47 56 60 61 60 46 61 98 99 99 99 98 99 98 99 100 99 99 99 97 92 95 80 48 62 55 53 67
82 70 92 89 88 78 56 64 47 43 43 52 58 57 35 24 20 22 29 42 44 52 54 56 59 61 51 55 91 100 100 100 100 96 96 95 96 98 100 100 97 94 93 93 82 56 72 73 72
75 96 82 100 100 98 69 55 50 64 65 59 65 70 66 35 24 27 40 52 52 55 55 58 63 66 58 53 70 91 98 100 99 99 99 99 99 99 95 100 100 97 94 99 93 87 79 82 82
75 83 99 100 98 89 69 76 95 88 77 69 75 79 80 65 50 60 77 84 89 85 72 68 64 65 61 60 59 69 89 99 100 100 97 96 99 99 99 100 100 100 100 99 97 97 87 90 87
83 88 98 96 86 98 95 95 78 81 72 76 77 88 96 91 82 85 99 100 100 100 98 85 72 69 72 71 69 71 76 85 94 98 99 99 100 100 99 98 98 98 96 95 100 100 97 90 76
77 92 89 100 99 97 100 97 76 68 65 67 77 87 98 100 100 100 100 100 99 100 99 90 76 76 78 80 82 81 80 79 79 88 88 91 98 100 100 100 100 96 95 89 86 89 92 93 96

GFSSGP_850_rhum_075.txt.gz
RH
18 17 19 30 25 30 21 19 25 21 18 20 23 22 19 22 35 26 34 33 29 17 19 22 26 31 41 49 55 59 63 62 61 63 67 73 73 64 50 52 60 61 82 83 78 74 61 58 66
22 23 17 36 22 16 10 25 23 19 18 17 27 32 32 24 33 33 35 21 24 21 18 18 20 30 43 50 53 56 63 64 64 66 69 74 74 64 52 55 59 59 76 73 66 68 62 73 80
25 19 24 32 32 15 10 18 20 20 19 18 19 28 25 32 34 30 26 28 20 18 19 19 20 29 44 49 52 51 57 63 66 71 72 73 75 63 57 60 62 63 63 70 71 72 75 81 84
30 20 29 31 31 25 14 16 21 20 16 15 18 18 25 31 31 29 30 24 20 20 21 22 26 30 45 54 54 52 54 56 60 68 75 76 76 65 61 64 64 65 63 65 66 78 75 85 81
26 25 28 38 34 29 26 20 22 18 18 15 17 17 29 26 27 27 26 21 22 22 24 28 36 45 55 61 62 58 57 57 54 58 72 82 76 70 72 73 74 73 63 62 79 72 84 78 77
27 35 30 23 34 26 21 23 20 16 17 16 19 18 20 15 25 26 24 23 26 28 30 32 37 54 65 67 68 66 63 63 56 58 72 79 78 79 81 78 83 74 59 73 70 68 80 76 77
24 33 23 29 28 24 18 20 18 15 15 18 28 24 27 20 28 27 25 27 30 30 32 36 40 50 71 79 76 77 76 74 74 72 79 92 93 98 88 85 80 68 70 70 76 76 72 75 78
27 28 31 32 24 19 18 20 18 18 15 18 26 31 31 40 41 30 26 29 34 35 39 43 45 53 69 80 86 88 87 83 79 82 84 86 94 88 98 82 60 66 67 73 81 82 73 75 84
31 27 28 27 26 20 20 18 18 17 18 17 17 18 30 34 52 44 28 32 37 42 42 39 43 48 67 87 83 85 92 92 88 84 82 80 68 67 73 76 74 83 83 84 87 83 72 79 88
34 34 26 26 21 20 18 22 20 20 20 18 20 16 21 25 48 49 34 30 37 41 44 38 44 50 72 86 90 86 84 91 94 91 85 78 67 62 68 79 86 89 75 81 88 81 77 88 88
43 35 33 29 25 24 23 22 23 19 22 19 21 20 20 24 36 45 39 40 43 43 44 41 38 51 68 80 81 82 79 79 94 96 96 87 72 68 68 74 92 97 95 88 88 90 89 85 80
40 44 36 29 27 28 28 27 25 26 25 22 22 21 21 23 19 26 38 40 53 51 47 41 40 49 67 73 77 83 81 77 70 75 91 88 70 73 83 73 88 93 98 93 88 90 82 80 71
38 32 33 32 33 33 30 30 28 25 26 22 24 24 20 17 16 16 27 39 49 54 52 43 41 43 67 70 77 85 84 80 83 85 91 79 79 78 67 89 90 96 90 93 91 86 80 79 74
30 32 30 30 30 31 30 29 34 28 26 25 26 20 17 15 14 24 32 37 48 55 54 46 41 50 67 72 80 87 90 81 88 100 98 88 95 83 73 89 88 97 88 87 86 84 85 81 77
31 34 32 33 32 30 34 38 37 31 29 28 22 18 16 14 16 16 20 26 46 57 54 50 46 58 60 78 85 87 85 90 94 96 89 92 90 91 89 91 94 98 84 91 90 92 91 79 82
31 35 37 33 32 30 30 26 22 25 24 22 20 18 15 14 13 14 26 31 45 61 54 52 53 58 64 73 82 88 91 92 99 92 93 99 96 97 100 91 94 100 82 98 92 96 84 78 82
39 40 44 37 26 27 30 31 23 23 25 22 21 20 19 18 16 13 20 33 44 57 56 49 60 57 70 77 88 86 89 95 100 100 97 100 100 99 99 97 92 96 82 99 93 91 81 79 82
39 45 46 45 32 30 32 32 25 25 25 25 24 24 22 19 16 14 14 35 51 55 53 52 60 60 77 84 91 87 94 96 99 97 98 99 100 100 99 98 92 96 97 99 95 86 82 78 78
32 36 36 31 29 31 31 34 31 28 27 26 24 24 22 18 18 17 17 32 49 51 54 53 60 65 78 92 91 89 92 99 95 96 100 92 99 100 100 98 97 96 94 85 89 87 82 83 81
39 42 42 36 29 28 28 30 30 28 26 26 24 23 23 18 18 18 19 27 48 45 50 55 57 66 79 70 95 98 94 97 98 100 98 88 98 100 99 99 99 93 94 84 92 89 84 84 81
57 60 57 55 43 36 35 34 28 23 25 25 25 24 22 21 18 16 17 22 47 46 47 53 55 64 71 89 99 99 100 100 100 98 98 89 100 100 99 100 93 86 89 71 86 85 85 85 80
70 52 52 53 53 55 33 46 33 28 26 25 23 23 23 21 19 17 18 26 35 46 51 57 54 64 74 98 97 97 99 98 98 99 100 100 98 100 100 100 96 90 88 65 64 81 85 77 76
59 54 57 57 60 59 53 55 38 32 32 26 24 25 22 20 18 18 17 31 44 53 52 61 58 65 70 94 96 99 99 98 98 99 100 100 98 94 94 83 77 87 81 56 44 49 72 76 76
52 60 58 55 60 77 53 52 45 34 28 29 30 35 36 30 20 21 27 33 44 57 58 64 60 65 75 87 98 95 89 93 95 98 99 99 100 100 100 93 86 82 85 52 42 46 59 70 72
53 62 73 76 81 63 42 55 45 34 33 51 53 52 54 37 24 26 36 41 53 49 53 64 67 66 75 81 99 97 95 96 93 89 92 100 98 99 100 99 99 88 96 84 53 50 43 54 62
66 60 74 78 74 66 51 55 44 60 56 59 64 68 66 48 28 26 39 49 49 61 60 70 66 66 72 66 91 96 95 97 96 96 94 94 94 98 100 100 98 100 91 90 96 60 39 34 36
72 79 63 100 75 91 52 45 61 57 61 63 71 81 83 75 47 28 52 67 65 89 92 81 71 66 69 62 76 93 97 96 97 98 98 96 94 93 90 100 100 100 99 96 97 80 52 49 51
65 73 100 98 86 78 53 57 78 76 74 70 79 88 97 90 73 48 74 82 96 98 100 90 80 67 68 65 69 82 88 100 98 98 97 96 98 100 98 98 94 99 100 99 100 100 76 58 72
77 76 97 98 80 78 85 92 77 82 76 83 86 92 99 100 100 100 100 100 100 99 98 100 90 74 69 65 65 71 77 91 99 98 98 98 97 97 99 96 99 99 100 100 99 99 100 89 64
58 66 86 95 89 93 90 78 86 78 71 78 85 90 99 100 100 100 100 100 100 100 100 99 96 84 74 75 74 76 79 83 92 96 99 100 100 99 98 97 97 96 98 100 100 93 92 94 96

GFSSGP_850_rhum_081.txt.gz
RH
14 23 26 16 13 10 8 6 4 5 7 8 12 10 8 8 12 20 35 47 48 59 29 22 20 21 22 26 33 42 56 68 69 71 70 68 62 63 61 58 59 60 66 71 70 65 64 64 62
26 29 22 13 14 11 8 6 5 6 4 11 12 13 12 13 13 22 35 51 54 57 21 17 17 19 21 29 40 44 46 58 67 69 72 74 68 66 69 60 62 66 75 76 65 70 74 61 62
28 25 15 11 12 14 8 4 4 5 8 9 8 13 15 14 16 20 39 48 46 48 34 18 17 18 19 23 34 52 57 62 68 69 70 73 74 70 74 68 63 69 79 71 74 74 72 59 58
29 22 15 13 12 8 7 6 4 4 10 9 8 11 14 18 28 29 43 47 46 50 55 19 17 19 20 21 30 41 56 60 61 64 67 73 77 74 78 74 69 69 74 69 72 77 73 60 65
21 15 15 13 11 8 6 6 5 7 8 9 8 9 10 16 24 33 42 47 52 56 61 20 20 21 20 23 29 42 52 59 61 62 68 76 79 79 83 76 70 70 75 76 80 74 68 66 71
21 16 16 14 10 7 6 5 6 6 8 11 10 9 10 15 21 32 43 53 58 65 60 22 22 23 24 26 32 46 59 60 63 62 74 76 82 83 87 80 75 76 78 80 81 68 64 77 74
19 15 16 13 11 8 6 7 8 6 8 7 7 10 11 14 28 32 44 56 67 65 42 26 24 26 28 31 37 46 60 65 70 66 79 80 90 80 98 96 85 83 88 81 78 69 69 80 78
20 16 17 13 12 10 6 7 8 7 7 6 8 11 11 25 32 50 52 55 67 61 45 46 29 29 31 33 41 52 60 69 72 74 74 76 81 83 87 88 97 93 80 85 83 69 70 87 80
21 21 20 15 12 10 9 9 8 8 8 7 10 12 12 26 28 48 51 56 59 78 82 36 35 34 36 37 56 56 69 72 74 75 78 73 80 83 85 73 88 97 87 90 85 67 71 84 82
18 20 17 11 10 10 10 10 10 9 10 11 9 9 11 26 24 36 50 54 55 68 84 88 45 37 37 90 98 87 88 80 81 86 87 80 81 79 82 68 65 75 87 74 75 74 72 82 86
16 20 13 10 10 11 12 12 11 10 11 10 12 12 11 15 17 29 38 46 52 61 73 84 59 40 38 78 97 97 96 99 97 98 94 85 84 82 93 77 79 76 86 80 76 75 82 91 95
18 16 15 13 13 13 14 14 11 11 11 11 12 12 11 12 15 18 26 38 44 53 64 79 97 85 68 85 93 93 80 87 99 92 94 98 88 88 85 91 88 94 83 76 84 79 87 91 94
12 12 13 14 12 13 14 14 13 12 12 12 13 14 13 12 13 14 17 27 40 44 60 73 89 92 40 29 55 78 91 93 95 98 89 97 95 89 91 88 91 91 78 74 84 84 90 91 97
12 12 13 13 12 13 14 14 14 13 12 13 13 13 13 13 13 12 16 18 30 42 54 70 96 54 37 33 44 64 72 91 79 91 91 99 99 98 97 90 79 79 78 84 94 98 91 90 88
18 19 15 13 13 14 15 17 16 14 15 14 14 14 14 14 13 11 14 16 20 32 49 72 98 66 46 39 38 57 66 93 98 83 84 91 97 98 92 90 80 70 75 90 95 99 90 91 86
18 18 19 12 12 14 17 21 13 12 12 14 15 15 15 14 12 10 13 16 19 30 50 70 94 71 60 52 50 40 62 91 94 89 83 88 89 91 95 92 70 73 77 96 100 96 92 87 77
20 21 16 14 12 15 16 21 14 14 15 13 13 14 15 14 11 10 12 14 21 34 53 71 98 66 53 57 36 40 62 77 99 100 97 87 89 94 97 88 76 76 78 97 99 93 91 86 78
15 17 17 17 14 19 22 19 15 15 15 16 16 15 15 13 11 10 13 17 26 38 56 75 97 97 93 48 42 47 49 79 84 84 90 92 95 99 99 95 84 84 83 98 99 89 91 85 76
19 19 19 16 14 16 18 17 15 13 13 14 17 17 16 16 13 12 13 18 31 42 60 79 94 97 93 53 44 40 51 89 73 84 86 87 90 98 99 99 94 94 88 97 98 88 91 77 71
22 24 25 18 16 23 24 22 17 15 14 13 13 15 17 17 15 13 13 20 40 48 62 78 94 97 84 75 57 45 81 95 89 89 86 85 87 85 94 97 98 98 97 98 99 92 88 80 79
23 25 24 25 22 21 22 23 19 15 17 16 14 13 14 17 16 13 13 19 44 49 64 76 92 97 77 88 73 66 80 97 88 90 92 87 90 90 94 88 94 94 96 96 90 85 86 85 85
29 21 26 32 31 28 18 30 19 14 14 14 14 15 14 17 17 15 12 18 40 48 62 72 86 94 95 88 72 78 98 97 99 97 93 84 95 97 95 96 99 89 98 100 71 87 86 82 80
30 26 35 34 32 28 24 26 19 15 18 16 15 15 15 16 17 15 14 13 33 49 65 74 82 87 92 93 88 92 86 97 99 100 93 90 90 87 84 99 100 100 99 99 96 88 88 85 82
24 34 35 29 28 40 28 24 19 17 23 22 19 19 16 17 16 16 12 12 25 45 64 78 81 83 87 89 88 88 86 95 99 99 95 93 97 86 81 99 100 99 100 98 98 83 77 84 87
34 39 36 26 39 42 22 28 21 19 28 29 30 28 32 31 29 22 18 17 24 45 68 79 79 86 86 89 91 90 89 100 86 98 94 93 98 95 88 100 100 100 100 97 99 93 83 86 88
30 35 37 44 38 45 36 33 34 30 28 31 34 40 44 50 50 34 24 23 34 48 72 78 78 92 87 89 91 90 89 98 98 100 99 92 92 99 88 98 100 100 100 96 98 91 88 89 90
35 41 27 40 36 40 28 20 26 35 35 35 40 48 57 65 70 53 30 39 43 60 92 89 79 95 96 89 87 87 91 98 100 98 94 100 96 97 95 99 90 97 100 95 92 92 99 93 86
33 36 65 51 62 49 28 27 75 60 53 55 60 63 75 88 95 89 42 48 54 76 98 95 92 97 99 92 87 97 99 100 98 95 90 85 86 90 92 91 95 99 98 96 98 97 97 77 68
40 47 48 57 58 60 55 78 71 70 68 69 62 70 88 98 100 99 87 66 78 99 98 99 99 98 98 99 96 98 98 99 94 94 96 88 99 94 93 95 96 97 99 100 99 95 91 85 67
24 36 43 68 49 52 60 66 68 65 67 68 66 78 92 100 99 100 100 100 100 99 99 100 99 99 99 100 99 98 99 98 96 95 99 96 95 92 95 94 96 99 100 100 100 100 100 98 94

GFSSGP_850_rhum_084.txt.gz
RH
7 16 23 26 16 14 13 9 6 6 4 5 7 10 9 8 17 26 42 41 36 18 21 21 16 17 17 18 22 30 44 65 69 69 67 64 60 57 58 57 56 60 63 74 72 74 76 67 58
8 32 29 18 17 16 12 7 7 5 4 9 10 11 10 10 10 29 42 46 54 12 20 18 16 16 16 17 20 28 43 60 68 71 71 69 67 62 63 62 62 66 69 76 81 78 65 62 62
14 28 20 17 16 16 14 8 7 4 7 8 8 7 9 11 10 24 39 46 52 32 19 17 16 16 16 18 22 31 42 57 68 71 72 73 71 71 69 70 64 69 70 75 78 70 72 59 56
21 32 20 19 16 11 9 8 6 5 6 8 8 7 12 15 24 28 37 41 44 53 24 18 17 16 18 18 21 31 44 55 66 74 75 73 73 74 73 76 73 69 74 75 71 71 72 60 56
23 21 22 19 16 11 9 7 6 6 6 8 9 8 9 15 19 32 40 42 44 51 45 23 17 18 19 20 23 33 45 53 61 64 69 76 76 78 79 78 75 71 76 77 72 70 70 57 60
26 20 21 19 15 10 8 7 6 5 6 7 8 9 9 9 17 28 40 46 50 55 40 22 20 19 20 22 26 32 43 53 58 60 61 70 88 81 87 84 82 81 78 80 77 76 68 57 69
26 21 23 18 15 12 9 7 6 6 6 6 6 11 9 10 15 32 38 49 56 59 42 21 22 22 23 23 26 34 44 54 58 60 86 77 88 92 90 90 76 99 98 86 82 74 65 69 69
28 22 23 18 16 14 9 8 6 7 7 7 6 8 8 12 28 32 43 50 62 69 52 22 24 25 26 26 28 32 42 58 65 67 75 73 82 88 87 78 61 66 91 95 88 81 72 74 74
25 27 27 21 17 14 10 9 7 7 7 7 7 8 10 22 27 40 46 49 58 72 68 32 28 27 29 30 29 29 42 58 70 71 73 74 77 79 83 83 64 74 76 99 92 87 72 72 77
20 28 25 17 14 13 10 9 9 9 8 8 8 8 9 16 22 25 44 48 54 65 78 54 35 32 35 46 33 25 46 61 71 74 75 74 71 73 83 80 79 66 77 88 92 78 70 78 76
15 22 18 15 12 11 10 11 10 11 11 9 10 11 10 12 16 19 29 42 50 58 75 83 66 43 42 76 49 41 72 79 81 80 84 84 79 73 81 83 77 69 63 82 79 81 65 71 78
16 13 12 12 13 13 12 12 12 13 13 10 10 10 12 11 14 18 19 31 42 51 63 77 79 68 43 53 43 39 76 75 81 84 90 92 91 84 80 79 76 76 75 76 86 75 68 59 83
12 11 11 12 12 12 12 12 12 12 12 11 11 11 11 12 12 13 15 18 29 43 53 66 75 77 62 83 45 38 87 78 74 84 88 91 93 90 85 83 73 76 76 73 85 82 77 64 83
12 11 10 10 11 10 11 11 10 10 10 11 11 11 12 12 13 13 12 14 19 33 49 60 71 84 94 62 33 29 60 90 84 89 94 93 93 94 89 89 82 75 73 83 85 78 77 82 85
17 18 16 15 14 13 12 14 13 12 12 12 12 13 12 12 13 13 12 12 15 24 37 57 65 85 89 55 34 28 34 56 83 80 89 92 98 98 96 92 89 83 87 89 79 82 88 92 90
19 17 20 13 10 10 11 18 12 11 11 12 13 13 13 13 13 14 14 12 13 18 30 59 62 74 77 53 42 31 28 37 65 86 96 96 94 99 99 98 94 89 77 75 81 88 96 96 89
21 27 20 16 10 10 11 18 13 12 13 13 14 13 13 14 14 14 14 12 12 16 23 55 58 72 78 86 77 41 32 42 51 98 97 98 95 94 94 95 91 84 74 78 82 90 97 100 96
22 20 17 16 12 13 14 16 15 14 13 13 15 15 15 14 15 15 14 12 11 15 26 54 62 74 78 99 73 42 34 45 55 77 86 94 96 92 87 96 93 86 73 83 91 98 100 94 97
20 23 23 18 13 15 16 15 14 12 11 12 12 13 16 17 16 14 12 10 11 16 41 57 64 71 84 97 60 40 36 50 54 96 100 98 93 90 95 99 95 90 84 78 86 99 94 91 86
19 20 21 17 15 18 17 16 16 17 17 14 12 12 14 17 17 16 12 11 15 27 42 57 68 80 93 91 55 54 53 57 65 63 90 84 87 90 100 97 98 92 92 89 90 94 97 99 85
21 22 22 21 17 18 24 23 18 15 14 16 15 14 13 14 17 17 15 13 21 32 50 63 73 89 95 88 79 76 85 90 99 98 95 80 84 92 92 97 98 99 99 99 90 99 92 86 90
29 18 19 25 26 39 22 38 21 14 14 15 16 17 17 14 13 16 16 13 26 30 55 66 82 92 97 90 85 71 59 65 75 86 89 92 94 96 95 97 90 98 83 98 97 99 89 87 92
21 19 24 27 36 38 34 30 20 14 15 14 15 15 16 16 14 15 16 14 31 33 51 66 80 90 93 94 90 80 67 75 74 86 91 100 98 94 98 98 98 91 91 96 100 100 97 92 87
23 28 26 31 36 52 37 26 24 21 30 30 24 25 31 20 15 16 17 15 28 40 54 65 78 89 91 94 92 79 78 86 86 92 96 99 98 90 92 89 94 100 99 94 100 100 87 86 90
30 37 42 41 36 46 48 59 28 37 36 29 29 40 45 53 61 58 44 16 16 41 53 66 79 86 88 90 93 87 84 86 88 87 99 100 89 86 85 79 85 96 100 96 97 97 94 89 86
29 36 48 46 51 42 35 84 47 34 41 53 54 56 59 65 72 77 71 40 23 48 60 72 79 81 87 88 89 89 87 82 90 93 91 90 83 87 87 83 96 100 100 99 100 100 92 92 90
29 34 26 43 38 46 34 43 65 65 49 50 55 60 67 76 84 88 79 54 27 46 64 73 78 78 84 89 90 91 89 86 91 92 96 89 86 86 90 88 98 99 100 99 100 99 95 90 81
27 26 59 80 70 52 29 38 86 83 73 59 58 63 75 86 94 99 99 90 56 53 69 78 75 77 84 84 88 88 90 92 90 94 93 98 97 95 92 92 97 100 100 100 100 99 91 91 93
31 40 38 49 54 69 84 95 92 80 71 64 59 66 83 94 100 98 99 100 100 88 80 76 85 91 80 91 86 90 94 94 93 90 95 90 91 94 94 95 93 92 98 99 95 96 97 92 91
25 27 38 68 55 54 59 66 71 57 56 57 62 71 88 98 100 100 100 100 100 100 100 100 95 95 87 99 88 91 99 94 91 90 87 86 95 88 91 95 96 97 97 100 99 98 97 98 100

GFSSGP_850_rhum_087.txt.gz
RH
8 10 22 31 36 30 27 20 14 12 9 8 10 12 13 11 25 46 48 34 37 28 24 25 22 17 14 15 17 27 46 56 63 66 64 62 58 56 57 56 53 55 60 62 63 65 69 74 68
8 12 32 31 32 32 28 16 15 11 8 10 10 9 10 12 23 46 46 38 36 18 25 20 17 16 15 15 18 24 41 56 65 68 68 66 64 59 60 60 56 56 57 62 68 68 72 73 62
8 28 33 35 35 30 27 15 12 10 8 9 9 7 8 12 30 41 39 32 25 17 20 18 16 16 16 16 17 20 33 49 62 69 71 71 69 69 66 64 61 57 63 68 72 71 70 66 64
12 32 30 35 34 24 17 14 11 10 8 8 8 8 11 12 28 38 47 33 17 20 18 17 17 16 16 17 18 20 30 46 56 65 70 73 74 74 72 72 70 64 66 75 75 68 63 57 59
28 30 41 38 30 22 16 13 11 10 9 9 8 10 10 17 21 36 40 43 31 15 18 18 16 16 18 18 19 20 26 41 56 67 72 73 76 77 78 76 76 71 69 76 77 66 62 60 62
24 26 44 41 31 21 16 12 11 10 8 6 9 9 9 10 24 32 40 44 45 17 25 22 16 17 19 19 21 21 22 33 51 59 66 72 76 80 84 83 84 88 89 86 86 75 69 62 72
39 41 41 36 28 21 16 12 12 10 8 7 6 14 9 15 20 37 39 41 45 43 39 28 19 18 19 20 22 23 24 31 46 55 56 78 83 92 91 90 90 93 91 91 97 82 75 68 78
33 43 45 36 30 25 16 13 12 11 8 7 7 10 9 28 33 39 40 41 37 38 36 31 23 21 20 21 23 26 24 32 47 55 60 93 82 87 89 91 87 89 69 63 97 98 80 75 77
31 46 49 42 32 25 16 16 12 11 8 7 7 7 11 22 26 48 49 49 51 49 35 33 28 24 24 24 26 30 27 32 46 58 64 72 69 72 80 89 73 66 56 57 73 99 87 75 76
26 40 40 28 25 24 18 15 14 13 13 12 9 7 17 21 21 21 40 57 57 53 51 40 36 29 27 26 28 31 27 34 47 58 66 68 67 70 72 74 71 62 61 62 78 100 88 77 78
22 26 22 24 23 20 18 14 14 15 17 14 14 12 9 17 21 20 17 26 50 61 57 55 54 40 33 28 32 37 28 45 57 62 68 72 72 71 72 74 75 75 67 69 72 94 84 76 79
27 20 18 16 16 16 15 14 15 14 14 12 12 12 11 12 17 19 19 23 33 55 57 56 57 56 44 34 36 43 40 63 66 73 76 78 79 78 74 75 80 76 72 68 84 82 72 76 75
18 16 14 14 13 13 14 14 14 14 12 11 11 11 12 12 12 15 14 16 14 34 62 56 55 60 60 41 45 50 47 74 70 74 79 82 85 82 80 82 83 75 70 70 78 76 74 66 72
14 16 16 16 16 16 16 16 14 13 12 11 10 10 10 11 11 12 15 16 15 19 45 58 56 54 62 48 45 64 53 84 82 76 79 81 86 86 87 88 87 88 74 76 72 67 68 71 71
21 25 21 19 17 17 14 18 17 13 12 12 12 12 12 12 11 11 12 12 14 14 18 52 61 61 64 52 40 61 77 78 83 76 76 78 85 89 93 92 86 85 77 81 79 82 81 80 86
31 28 31 20 16 14 15 21 14 12 12 12 12 12 12 12 12 13 11 13 13 13 12 32 62 60 58 61 45 52 81 76 70 76 76 73 78 90 97 96 93 87 84 76 82 88 85 88 90
34 42 33 26 18 16 16 19 16 12 14 15 14 14 14 14 13 13 13 13 13 12 12 34 59 58 56 63 56 45 45 74 77 74 80 76 81 95 99 98 96 94 87 80 83 86 85 89 93
41 34 30 30 22 19 20 20 16 13 13 13 12 12 12 12 15 14 13 13 14 14 13 33 50 56 54 59 60 44 51 41 54 60 60 63 97 99 99 98 90 94 86 86 85 83 86 92 100
27 26 28 25 21 20 20 20 18 14 13 13 13 13 12 11 12 15 17 14 14 14 14 36 56 59 54 53 60 48 68 56 44 48 70 65 89 97 99 99 94 90 89 84 85 81 93 94 100
26 28 28 23 19 20 21 22 21 20 19 16 16 16 14 13 12 13 16 16 15 14 28 39 53 57 56 50 60 46 67 52 44 43 52 68 92 97 98 91 91 90 92 80 78 85 96 100 96
29 31 29 26 23 21 24 26 28 22 20 17 14 14 16 14 12 12 15 16 16 14 29 46 52 53 59 63 66 62 76 71 63 57 58 45 94 90 90 90 90 89 96 87 85 87 90 96 96
34 26 26 24 30 48 33 57 35 27 22 16 28 21 15 16 12 13 15 17 17 26 33 48 50 63 60 68 66 61 72 66 60 54 47 71 86 94 94 93 92 94 89 87 97 92 98 95 93
30 25 28 31 37 45 40 50 38 29 25 18 62 54 26 18 20 17 15 14 19 40 49 45 49 64 62 61 62 78 86 75 67 64 84 93 96 96 98 94 88 94 97 100 100 100 95 94 92
25 34 39 40 42 57 42 55 55 41 32 50 67 67 72 69 56 52 51 41 36 39 48 50 50 56 64 63 70 91 85 76 68 71 83 94 96 99 97 100 99 95 89 96 98 100 97 100 92
30 43 72 61 62 60 38 49 61 79 73 65 67 70 78 79 74 62 53 51 37 65 57 56 58 58 71 71 87 92 85 72 73 73 86 91 93 99 98 96 95 92 98 94 100 100 100 92 90
40 46 73 73 70 59 37 52 69 87 68 60 68 71 79 88 84 85 84 71 53 40 53 64 61 65 71 82 90 94 86 89 87 78 87 86 96 95 91 85 80 88 96 100 100 100 100 96 96
40 46 38 54 51 62 43 33 67 70 75 72 60 68 82 90 93 98 99 97 76 55 58 53 60 63 77 82 90 87 92 90 86 88 90 81 84 86 93 91 80 84 99 100 100 100 99 99 92
33 34 69 85 91 81 46 76 98 84 69 72 72 73 88 95 98 98 99 98 100 88 73 57 60 62 72 79 82 86 87 87 81 82 85 81 84 88 92 89 89 92 98 100 99 100 100 98 94
42 46 47 59 74 87 86 87 88 86 76 76 74 79 91 98 99 100 100 100 99 100 76 76 66 66 78 87 82 86 87 88 90 88 84 82 90 89 89 95 94 96 100 100 100 100 98 100 99
43 50 55 70 68 73 78 90 77 76 75 64 74 81 92 98 100 100 100 100 99 99 100 98 99 95 93 92 93 91 88 90 87 88 85 83 84 83 88 92 98 100 97 99 100 100 100 99 98

GFSSGP_850_rhum_090.txt.gz
RH
16 9 23 30 35 35 32 27 16 14 14 8 12 12 12 12 24 30 39 36 36 25 24 33 37 33 26 17 21 31 41 48 57 62 60 56 53 55 54 53 53 59 57 65 63 68 70 73 82
11 9 27 34 40 37 33 22 17 14 12 10 9 10 11 12 36 40 40 36 39 27 19 26 31 24 18 17 21 27 36 44 53 61 63 62 57 56 58 57 53 54 60 68 67 70 72 73 70
10 18 34 43 44 35 28 19 16 12 11 10 10 8 9 19 32 34 40 38 37 17 20 22 19 18 18 16 19 24 32 41 52 61 66 66 64 61 60 61 65 59 62 69 70 71 75 74 68
11 36 35 44 43 32 22 16 13 15 12 10 8 8 10 21 30 38 40 38 32 15 20 18 17 18 18 17 16 19 26 38 47 55 64 70 70 69 67 65 67 64 65 68 72 73 78 76 67
25 35 49 49 43 32 23 19 18 17 14 11 9 10 12 29 26 32 27 19 12 16 19 18 18 17 16 15 15 17 22 33 41 49 59 71 74 74 75 72 73 73 70 74 77 80 80 72 68
25 31 54 49 34 27 24 19 17 15 13 12 11 10 10 26 29 33 34 27 18 16 17 18 18 18 17 16 17 17 19 26 39 48 54 66 73 78 79 79 80 84 87 83 86 84 80 75 75
33 51 53 44 37 30 23 18 17 16 15 12 8 14 16 38 31 32 37 34 29 18 16 19 18 19 21 19 19 19 20 22 32 43 49 54 72 79 82 82 84 84 83 79 80 78 83 84 80
38 52 52 45 40 39 24 20 18 17 14 12 9 11 11 35 39 46 49 45 36 24 17 20 20 20 21 22 21 22 23 23 29 41 48 51 68 83 81 77 80 82 84 80 75 66 62 87 79
35 56 65 54 46 38 28 25 21 17 13 13 13 13 12 23 45 47 50 52 46 37 31 24 22 22 23 24 23 24 26 27 25 38 46 51 71 83 87 80 82 80 73 69 70 65 63 98 86
32 50 51 40 36 33 27 26 24 18 16 14 13 13 34 45 45 46 48 49 50 43 40 37 25 25 25 26 27 28 28 29 24 38 49 53 69 74 73 82 82 72 72 60 67 63 75 92 90
28 36 29 24 22 22 26 25 23 20 19 14 14 12 12 23 47 48 50 47 45 45 45 41 40 33 27 27 29 31 31 28 30 47 54 59 64 67 71 78 77 83 73 66 68 73 82 89 90
30 23 22 20 19 20 19 17 18 17 16 14 13 13 12 11 14 34 48 52 52 53 49 41 41 49 48 29 30 36 34 28 39 52 59 61 65 66 70 72 74 75 68 66 64 67 87 84 86
28 26 24 22 20 19 18 18 18 16 14 12 12 11 11 11 10 10 21 20 25 47 49 49 47 51 53 52 31 41 42 37 47 56 66 67 66 69 73 74 74 76 75 73 67 76 72 82 82
16 16 18 19 18 19 20 20 17 16 14 13 12 12 12 12 11 11 11 14 24 19 31 39 55 60 56 54 42 34 45 44 64 63 61 60 72 73 75 78 76 80 81 75 69 77 76 69 78
26 31 29 23 19 19 16 18 18 12 10 12 11 11 11 11 11 10 10 10 12 20 16 16 33 60 61 60 51 39 37 44 75 70 70 64 72 74 76 81 78 80 81 76 74 77 77 76 78
31 32 39 24 20 19 18 26 17 13 13 13 13 13 12 12 12 11 11 11 12 13 16 15 20 46 57 61 62 49 36 43 62 70 78 70 78 78 77 85 83 83 86 83 79 78 77 80 80
39 50 41 32 21 23 22 27 19 14 14 15 14 14 13 12 12 12 13 14 12 12 14 14 14 27 46 56 62 55 47 41 62 66 78 76 77 74 77 69 88 90 88 90 85 85 81 81 82
48 45 40 38 26 22 26 25 20 16 16 16 15 14 13 13 12 11 11 14 14 13 12 13 19 23 40 49 69 69 63 48 74 76 80 84 78 75 84 94 86 91 96 94 91 88 85 89 86
33 36 37 29 23 24 24 24 20 18 18 19 18 18 16 15 14 14 13 11 14 14 13 13 20 24 43 49 64 60 65 49 58 97 92 85 78 67 99 99 92 90 95 88 89 89 96 93 91
32 36 35 28 24 23 23 23 20 20 20 18 18 21 19 17 16 15 14 12 12 17 16 14 18 18 33 43 57 59 59 44 37 50 87 80 79 89 91 95 95 89 93 94 88 86 87 86 93
34 36 36 34 29 26 28 31 29 26 26 23 22 28 53 55 31 19 16 15 12 16 18 17 17 18 34 42 52 71 64 56 48 55 74 83 89 84 91 94 99 91 94 90 87 91 90 87 98
36 30 31 34 36 42 35 55 34 32 28 25 24 72 72 72 59 22 19 17 14 14 16 22 18 19 34 45 55 62 52 51 45 42 54 64 80 94 95 96 97 91 92 90 84 82 90 89 96
31 29 33 34 43 48 39 54 34 44 83 80 72 78 83 67 83 84 60 34 21 18 18 27 24 25 37 54 58 64 62 56 43 47 57 65 69 78 91 89 92 92 93 92 95 87 90 89 100
25 32 41 42 51 64 42 50 57 87 89 72 73 80 91 72 80 98 100 63 40 34 65 52 46 34 58 54 65 66 66 62 54 62 70 58 84 86 87 93 99 97 99 97 95 91 97 96 98
28 48 70 75 69 72 38 51 53 80 74 70 72 86 94 91 90 98 99 83 60 85 87 79 71 61 51 57 57 71 76 61 55 64 72 64 88 87 96 99 99 99 94 98 100 99 99 100 99
41 47 73 82 70 47 41 60 76 74 68 69 88 88 83 83 98 98 100 99 88 59 75 45 52 53 53 65 72 85 78 72 66 66 62 74 80 82 87 99 99 100 100 98 97 99 99 100 95
42 55 40 61 54 73 56 72 72 65 66 75 88 88 91 95 98 100 100 100 100 85 79 67 53 47 50 62 82 84 83 78 72 74 71 83 84 88 93 98 99 92 86 97 99 100 100 100 99
40 43 55 82 81 84 59 53 78 75 72 68 81 89 93 98 100 99 100 99 100 100 100 99 72 66 52 54 66 81 85 80 80 84 81 84 84 88 88 90 91 92 88 93 100 100 100 100 100
48 58 71 67 79 83 87 80 83 80 76 78 77 88 98 100 99 100 100 100 100 100 100 100 77 65 67 62 64 88 85 85 84 85 84 81 80 85 88 92 92 87 88 98 100 100 99 100 100
37 67 88 99 90 81 80 68 71 75 71 76 84 89 98 100 100 100 100 100 100 100 100 74 67 93 90 83 73 87 84 90 83 80 80 83 79 80 85 95 97 93 98 100 100 100 99 96 100

GFSSGP_850_rhum_096.txt.gz
RH
17 17 18 29 25 36 30 18 24 18 12 12 13 13 14 12 16 25 28 38 38 24 21 37 46 51 52 51 50 46 43 42 39 38 38 39 43 48 49 49 60 69 69 70 66 55 55 66 81
19 12 23 30 24 26 19 26 21 16 12 13 13 12 14 16 13 22 40 41 34 29 24 38 47 52 52 53 53 46 43 49 45 43 42 42 45 50 52 53 56 62 65 73 71 60 62 73 83
15 16 24 44 42 26 20 19 18 16 16 16 14 14 13 12 17 31 27 29 26 22 26 35 45 51 52 55 55 46 47 54 53 50 49 48 49 53 57 58 59 57 59 66 65 67 67 74 82
12 25 30 40 42 39 22 18 22 24 18 16 16 19 13 11 11 19 30 25 16 15 26 33 42 46 51 53 49 45 50 57 58 57 57 55 54 57 58 61 62 61 58 58 62 63 69 73 74
19 33 47 52 50 38 31 24 22 26 22 19 17 17 14 14 26 20 35 26 24 19 22 33 38 41 43 42 38 40 48 56 59 61 62 61 59 58 60 62 65 66 62 66 65 73 74 72 73
28 38 51 44 39 32 28 23 21 22 21 20 16 17 14 14 33 52 42 36 36 30 26 32 34 31 29 28 28 34 42 50 57 60 62 65 65 64 64 64 67 70 90 74 74 74 74 76 79
29 45 44 45 42 36 28 22 23 22 26 19 20 21 14 15 15 51 51 49 42 36 30 33 29 24 24 24 23 26 30 37 45 54 61 65 70 70 70 70 71 73 76 77 73 71 76 81 82
26 40 50 51 43 39 27 23 21 27 25 24 20 20 20 16 14 37 60 54 47 36 33 31 29 28 26 22 19 19 20 25 28 38 50 61 71 76 76 76 75 75 78 82 76 76 82 78 73
43 63 73 47 45 34 31 34 30 30 28 25 24 22 18 16 16 33 67 65 59 43 38 32 31 31 26 24 21 22 22 21 25 31 41 55 67 75 78 80 80 78 80 85 84 81 82 78 69
48 76 53 47 35 36 35 38 32 28 28 26 21 15 14 15 14 14 56 64 46 51 38 32 28 26 23 21 23 22 23 23 22 24 31 38 55 67 75 81 84 85 85 88 87 87 88 83 71
34 52 44 36 36 33 30 28 27 27 31 22 19 15 15 14 15 15 31 62 62 44 36 34 30 24 23 23 24 24 24 24 24 25 27 31 44 56 69 81 91 90 90 91 89 88 92 88 78
35 33 30 29 28 28 28 22 24 23 21 16 16 15 15 14 13 12 12 14 46 58 56 40 31 33 26 24 24 24 22 23 24 25 25 26 37 48 62 75 92 93 92 94 89 88 86 92 86
37 34 30 28 25 25 24 30 27 21 17 17 16 15 14 13 12 11 11 11 11 19 42 52 59 57 55 40 28 25 23 23 24 28 25 22 32 43 57 72 82 83 93 93 83 80 71 79 81
23 23 21 22 23 23 22 24 22 19 17 16 15 15 14 14 13 13 12 12 11 11 12 21 47 52 65 54 39 30 26 26 26 28 28 21 29 43 52 65 73 74 86 85 86 85 70 66 75
27 36 32 30 28 29 22 26 25 18 16 17 16 14 14 14 14 13 13 13 12 11 11 11 13 38 51 56 54 45 38 32 30 30 30 28 30 43 52 65 72 72 79 82 89 77 72 77 80
30 35 40 30 27 24 23 31 21 17 18 19 16 16 16 16 15 15 15 15 14 13 13 13 12 11 19 45 51 59 52 51 44 35 35 36 36 46 56 69 77 78 80 81 81 75 78 82 89
39 49 42 35 27 27 24 30 23 18 20 20 18 17 16 18 19 20 20 22 20 18 17 14 13 13 12 25 49 50 49 55 55 46 44 40 44 52 63 72 84 86 84 84 85 82 83 83 89
49 47 43 40 29 28 32 32 27 22 21 20 19 20 22 28 30 29 27 29 28 19 17 18 16 14 14 14 46 44 48 50 60 60 51 46 52 59 68 74 85 91 91 90 90 94 83 85 87
35 38 43 38 32 31 34 32 30 25 23 24 30 53 63 61 57 56 48 30 30 29 18 17 20 15 15 21 46 46 53 53 58 63 57 52 60 65 69 75 82 94 91 93 100 98 85 96 94
34 38 41 35 31 34 36 34 30 29 26 53 72 69 68 64 54 48 59 57 47 38 28 24 21 19 14 15 18 45 35 49 48 70 75 53 56 70 72 76 82 88 86 100 100 99 98 100 95
41 42 41 40 34 33 36 42 29 25 55 69 64 60 66 79 79 68 62 76 59 61 44 30 21 18 16 18 23 30 44 59 53 52 59 69 57 60 74 88 86 85 89 93 99 96 96 99 99
49 38 38 41 44 52 32 54 28 48 59 71 62 58 78 86 81 84 80 87 85 78 62 43 26 17 24 26 29 29 26 39 33 40 56 76 86 60 71 99 92 88 85 94 98 98 100 100 100
45 38 42 42 47 54 46 53 47 65 68 69 66 74 84 79 83 88 98 97 99 97 89 60 41 22 37 33 32 26 27 27 37 55 50 45 69 74 84 98 89 84 84 92 97 100 99 99 100
28 34 41 52 56 61 47 51 52 51 73 73 68 80 77 83 83 89 97 100 100 100 99 89 75 32 43 50 37 33 30 42 62 56 55 47 64 78 98 100 93 89 79 86 91 99 97 100 100
32 39 53 55 68 61 48 56 50 52 69 74 79 87 86 89 94 87 95 98 100 99 99 100 99 91 86 73 69 42 56 56 64 51 45 65 81 78 99 99 99 87 83 86 83 98 99 99 100
43 42 58 64 71 60 41 60 51 63 65 75 90 86 87 90 98 76 94 98 100 99 98 99 98 99 99 100 98 99 96 82 74 60 52 51 60 54 68 88 90 86 85 86 97 89 92 98 99
45 51 46 54 58 65 54 50 48 73 75 90 88 85 93 96 99 85 91 99 100 98 99 99 100 99 100 98 98 99 100 92 74 60 71 75 57 50 59 72 74 84 90 92 92 93 92 94 98
36 44 75 86 86 75 63 59 66 73 79 90 89 93 98 99 96 89 95 100 98 99 98 100 100 99 100 99 100 99 100 94 78 67 76 72 55 57 60 69 88 84 87 92 95 94 95 96 97
37 53 77 81 88 97 93 81 91 96 95 93 86 94 99 100 100 99 97 100 100 100 100 100 100 100 100 100 73 79 94 83 75 67 79 73 70 65 76 85 86 91 92 94 96 98 99 99 99
44 82 75 93 92 88 94 85 86 88 89 88 92 95 99 100 95 94 96 100 99 100 98 100 100 100 100 98 89 71 60 68 58 88 98 86 69 78 84 89 88 89 94 99 96 100 97 99 100

GFSSGP_850_rhum_102.txt.gz
RH
16 14 13 23 14 10 9 8 7 9 9 10 11 12 10 9 10 12 14 42 53 46 22 28 42 47 45 44 45 42 41 44 54 61 63 65 68 69 65 62 58 54 54 52 51 50 54 56 59
20 16 23 16 12 11 9 7 8 7 10 13 13 13 12 12 14 20 28 58 54 74 30 28 36 42 40 44 44 43 42 43 52 59 63 67 70 71 69 66 64 61 61 59 57 54 51 54 59
20 18 17 13 12 12 10 8 8 8 13 12 12 13 14 14 19 26 35 48 37 69 38 34 30 37 40 44 45 44 43 43 45 51 58 68 70 70 70 67 66 66 67 66 64 60 54 57 64
24 20 16 14 14 11 11 9 10 11 11 12 13 12 14 19 26 28 44 32 38 65 76 51 34 35 40 44 45 46 46 45 45 47 52 62 66 66 67 66 68 69 69 70 68 66 60 60 69
24 17 14 16 14 12 12 12 11 10 12 12 14 11 14 16 21 34 38 36 53 66 75 61 45 48 46 47 47 49 50 49 48 47 45 47 52 57 61 64 66 70 71 70 72 69 64 66 72
17 18 17 16 13 11 13 14 13 13 13 13 15 15 15 17 19 34 34 33 49 61 45 52 49 53 56 52 50 52 53 53 53 51 50 50 52 54 62 66 68 69 67 68 69 68 69 69 73
16 17 17 15 14 14 14 16 14 14 15 15 18 18 16 17 20 33 42 38 49 58 54 43 54 57 61 58 54 56 57 58 58 58 56 56 55 56 62 67 70 68 69 69 65 64 70 73 73
17 15 16 16 16 15 12 15 14 16 14 22 20 16 18 20 18 25 46 68 93 68 60 51 56 61 65 66 62 61 62 63 63 63 61 60 61 61 62 64 66 67 69 72 73 72 70 73 74
20 16 16 14 15 14 13 15 16 23 21 19 21 20 20 18 18 18 27 48 89 87 68 58 59 61 65 70 70 68 69 66 67 66 65 66 67 66 67 66 66 68 70 72 78 76 74 74 77
19 16 15 11 12 13 12 16 14 17 14 16 18 17 17 17 18 20 19 26 75 91 70 54 56 61 66 68 69 70 74 73 71 71 63 68 74 92 94 90 72 71 74 76 78 80 80 76 82
17 20 15 16 18 14 13 14 15 14 16 16 17 17 17 17 18 20 18 17 35 70 88 60 54 58 61 63 67 68 72 78 83 83 85 67 93 96 86 99 85 81 82 90 81 84 86 85 92
17 16 15 14 14 18 15 15 14 14 14 14 15 16 17 17 16 16 16 16 17 26 49 78 59 53 55 60 59 58 56 55 55 48 42 49 48 94 94 94 100 99 99 100 100 100 99 98 97
20 13 13 14 15 15 14 14 15 15 16 16 16 18 17 16 16 15 16 16 18 19 23 42 77 32 55 47 41 42 42 41 40 40 40 46 48 58 85 92 96 98 100 99 100 95 92 94 92
14 17 16 19 19 18 19 15 16 17 16 17 17 17 16 16 17 17 17 20 25 24 25 21 36 75 78 63 53 45 35 34 33 33 34 39 49 64 45 53 57 94 100 98 98 91 94 95 94
19 20 16 17 17 15 18 18 17 18 17 17 16 16 16 17 18 20 30 32 37 37 34 20 15 19 78 41 56 66 52 36 34 29 31 34 43 45 42 40 48 60 98 99 96 95 92 95 95
21 20 23 16 16 17 20 20 16 15 16 14 15 16 18 18 25 39 51 50 48 31 20 19 23 19 18 63 71 80 74 68 69 57 36 33 36 41 43 41 39 50 71 76 83 97 98 98 95
22 23 22 19 19 18 20 19 14 16 16 16 16 16 18 23 38 51 55 56 58 50 28 19 21 22 22 23 64 78 78 45 82 70 54 39 33 37 48 42 44 51 80 87 83 98 98 98 95
25 24 21 22 17 19 19 18 15 12 14 18 17 18 24 34 42 54 56 60 62 61 45 38 31 26 23 22 49 81 83 36 66 67 63 48 43 36 48 49 44 52 74 77 78 96 98 100 99
22 21 22 19 17 22 19 15 13 15 17 18 17 25 34 43 48 49 56 61 67 69 73 72 45 41 42 46 50 68 81 69 22 70 88 57 49 45 45 48 49 56 66 69 73 83 96 99 98
25 25 23 18 16 16 18 19 17 16 16 16 19 35 44 47 48 54 57 63 68 74 82 87 84 67 66 82 74 62 72 80 90 87 92 44 61 46 49 52 49 57 70 74 87 85 97 100 99
27 24 22 19 20 22 24 23 18 17 18 30 36 45 51 52 55 57 62 67 74 78 85 92 96 98 78 86 87 67 82 81 96 98 73 27 68 57 54 58 55 68 77 84 95 96 99 99 98
28 19 19 23 29 27 22 21 18 16 24 31 39 47 51 56 59 61 65 70 78 85 96 90 95 97 94 92 98 90 72 72 80 86 52 46 63 72 60 58 62 65 78 81 82 99 98 100 94
26 22 29 26 30 29 25 28 15 17 24 31 37 51 57 62 63 64 67 72 76 92 93 90 91 94 97 100 100 97 87 82 75 86 100 99 81 53 63 55 46 74 62 67 77 90 95 88 96
27 32 30 30 30 39 25 24 16 21 21 29 43 56 64 66 65 65 67 72 78 92 98 97 91 92 96 98 99 99 99 88 78 83 100 98 99 74 57 56 65 69 51 41 53 69 94 90 89
39 36 49 50 46 36 19 22 16 21 31 36 51 60 66 68 68 67 68 74 84 97 96 92 94 98 100 100 99 100 98 90 92 88 95 99 99 74 69 50 58 63 56 44 46 52 95 92 88
39 32 45 52 35 26 29 29 37 50 55 62 64 66 68 67 68 68 72 81 90 100 99 94 93 98 98 99 99 99 99 90 96 96 95 98 98 100 98 64 51 67 56 44 54 71 98 89 82
30 36 23 33 32 34 24 28 54 64 65 62 61 63 65 66 69 72 75 86 96 99 98 98 97 97 100 100 100 99 98 99 98 91 90 96 98 100 96 76 73 55 88 55 68 87 97 87 90
34 27 48 42 46 40 22 22 28 63 60 48 50 58 65 68 71 75 80 90 100 99 97 96 98 99 100 99 100 100 95 94 97 96 96 93 98 98 98 86 61 76 92 100 85 92 90 90 98
28 38 50 46 44 44 38 34 57 56 50 50 48 61 70 73 77 80 84 91 98 99 99 95 93 98 98 100 100 100 98 96 98 98 96 99 99 98 82 66 77 88 99 98 80 98 99 83 92
25 36 35 42 37 43 57 41 50 53 53 53 51 65 74 80 82 82 86 91 98 100 96 92 94 96 99 99 100 100 100 100 100 100 100 99 99 100 90 65 62 60 99 99 97 99 92 84 96

GFSSGP_850_rhum_105.txt.gz
RH
19 17 22 19 14 10 9 7 5 6 7 7 8 8 8 8 8 12 16 40 60 64 65 48 42 40 42 46 44 42 40 37 41 51 61 58 63 65 61 57 52 48 46 48 51 52 54 56 59
30 21 20 16 14 11 8 6 7 6 7 9 9 8 8 9 11 16 22 34 47 63 70 53 46 45 44 46 42 42 39 38 43 56 62 61 64 68 65 61 57 53 52 53 52 53 54 56 61
27 22 17 12 13 12 8 7 7 6 9 8 8 10 11 11 13 19 28 44 53 58 69 80 49 50 52 46 44 43 40 39 43 53 61 63 66 69 69 65 62 59 58 61 58 58 56 58 60
21 18 16 15 14 10 9 8 8 7 8 9 8 9 10 15 20 22 33 45 64 63 69 81 53 53 58 50 48 46 43 42 44 54 63 66 68 70 71 69 66 63 64 67 66 63 62 59 62
22 16 16 14 13 10 8 9 9 9 8 9 9 10 10 14 16 20 31 48 69 74 72 78 52 54 53 54 52 47 45 44 44 49 59 66 69 68 69 70 66 66 68 70 67 66 64 58 63
16 14 17 15 12 9 8 10 11 10 10 10 10 11 11 13 15 19 31 52 75 85 82 83 55 49 53 58 55 50 48 48 46 48 54 59 62 61 64 68 65 65 65 70 70 67 64 60 61
17 14 17 15 13 11 10 10 12 11 11 11 11 15 14 14 18 18 25 45 74 92 95 94 71 53 58 60 60 56 54 54 51 51 52 52 53 55 60 64 64 66 65 69 68 67 62 64 63
15 13 16 14 14 12 9 10 12 12 11 16 16 15 14 14 19 17 18 29 60 90 100 99 98 57 58 62 62 59 59 60 57 57 57 56 56 57 60 67 69 69 68 69 68 67 66 65 67
18 15 17 15 13 11 10 11 11 12 16 14 16 16 16 18 17 15 17 21 45 84 96 98 100 99 61 76 68 65 65 65 63 64 64 63 62 60 61 65 68 68 70 67 70 73 75 69 74
17 18 16 12 11 11 10 10 12 12 13 14 13 14 16 16 16 16 17 17 25 61 84 96 100 92 72 95 100 79 69 70 69 69 69 70 70 94 95 87 72 70 70 69 71 80 81 75 88
17 20 14 12 12 13 12 11 10 10 13 12 13 14 15 15 16 16 17 16 17 34 69 85 98 97 77 71 79 90 98 96 89 78 92 84 94 92 95 89 91 80 75 76 75 78 87 91 94
18 15 13 13 13 12 13 14 12 12 12 12 12 13 13 14 15 16 15 15 17 18 36 69 84 98 99 99 92 95 96 97 91 93 96 92 93 85 82 78 88 92 97 96 98 89 93 96 97
16 14 14 11 11 12 11 10 10 10 11 12 12 13 14 15 15 15 14 14 16 18 20 28 57 80 94 99 93 97 98 93 61 87 81 86 83 82 80 78 78 90 90 98 94 89 85 92 96
14 12 13 14 12 13 12 12 12 12 13 12 12 13 14 14 14 15 15 16 22 27 27 34 30 53 73 84 96 95 94 91 95 93 55 54 57 70 86 80 79 79 92 90 93 95 92 94 94
17 17 14 13 14 15 14 15 15 13 12 13 13 15 14 14 15 15 20 27 30 34 37 47 51 34 54 74 82 87 90 92 82 86 95 34 44 47 90 95 93 86 82 85 90 88 95 99 96
21 20 23 17 14 13 15 21 12 12 13 14 13 13 14 15 16 20 35 35 36 40 49 56 58 63 45 32 66 77 77 89 88 79 88 69 35 41 55 91 94 97 75 87 90 96 86 96 100
28 31 25 20 14 15 15 20 13 13 14 13 12 13 14 15 19 34 40 39 44 44 54 59 63 66 72 46 29 54 74 78 82 83 81 94 70 74 40 73 54 78 83 90 100 93 90 94 98
39 34 25 24 16 16 17 19 14 12 13 12 13 13 14 16 23 38 40 46 50 53 59 59 61 64 73 71 49 34 54 70 75 76 81 88 90 63 68 64 46 55 71 89 86 96 98 97 97
30 31 32 19 14 17 18 16 13 12 12 11 13 15 15 21 32 36 46 51 56 58 62 67 70 72 69 69 67 58 49 51 67 74 76 83 98 98 94 92 93 52 50 83 80 100 100 99 98
35 32 33 27 19 17 18 16 12 10 10 12 13 14 20 30 32 41 46 51 60 64 72 77 77 79 80 78 76 76 68 53 54 64 75 82 94 100 98 98 95 55 49 84 91 100 96 100 98
58 47 33 42 35 19 18 17 15 13 12 13 14 18 30 34 38 42 46 52 59 64 76 82 86 83 87 93 91 85 80 69 51 73 74 82 89 90 72 60 97 53 49 61 66 92 87 98 94
76 43 32 38 32 29 16 29 17 14 15 15 21 30 33 40 43 45 50 53 58 62 76 86 94 90 95 99 99 99 92 73 47 51 67 83 86 93 99 82 100 87 59 63 56 71 99 99 83
63 40 45 41 30 26 25 27 18 13 17 21 25 31 41 47 48 50 52 56 58 66 77 89 97 97 98 98 95 97 99 97 79 56 61 66 86 91 100 100 100 70 92 68 84 100 99 98 94
59 63 42 37 32 46 42 30 22 19 15 20 27 38 48 50 50 52 53 57 60 70 83 95 100 99 99 99 100 98 98 99 94 70 68 70 84 84 96 99 98 86 77 66 65 50 94 88 81
65 87 81 77 70 61 25 28 28 19 14 21 36 43 51 52 52 52 54 60 67 75 87 100 100 99 100 99 100 100 100 99 99 97 78 71 86 88 91 98 100 94 77 61 38 30 88 98 96
59 70 63 75 66 50 30 39 50 36 38 45 47 50 52 50 52 55 59 65 73 80 93 100 100 98 100 100 99 100 100 99 99 98 83 85 93 78 82 98 99 100 97 73 60 42 97 92 96
63 57 36 46 42 44 52 49 56 50 51 45 47 48 48 49 54 58 62 69 77 86 97 98 100 98 97 100 98 100 100 100 99 92 84 91 95 89 81 99 99 100 100 99 88 92 94 88 92
33 36 47 50 68 46 34 40 50 65 51 42 40 43 44 46 52 60 63 70 78 88 97 98 100 97 95 100 100 100 98 100 100 90 87 94 84 94 83 92 98 98 96 91 94 90 98 99 98
30 62 53 58 53 54 48 60 63 59 44 42 40 43 45 49 56 60 66 71 79 88 95 100 100 99 91 91 98 99 99 98 100 96 89 95 92 92 93 98 100 98 98 89 64 51 87 98 99
26 27 41 75 53 65 44 54 51 43 42 35 35 40 45 54 59 64 68 72 80 89 96 100 100 98 100 96 94 98 98 100 99 88 97 93 88 83 92 92 95 98 99 75 67 68 66 91 99

GFSSGP_850_rhum_108.txt.gz
RH
14 17 22 20 19 16 14 9 6 6 6 7 7 6 8 8 8 19 28 35 46 61 64 52 43 38 36 38 42 42 42 39 34 38 50 56 56 62 58 55 49 45 43 46 51 52 54 54 51
20 29 19 16 20 18 12 7 6 7 8 8 8 8 7 8 10 15 23 36 49 58 63 57 48 46 41 43 46 44 42 38 36 41 51 59 57 65 62 60 56 51 48 49 52 52 54 54 57
23 23 17 16 17 18 13 8 7 7 8 7 8 9 9 11 16 18 27 38 55 50 62 59 46 46 46 48 50 45 42 37 37 43 50 60 59 65 67 64 60 57 54 55 56 57 55 55 58
22 18 18 19 18 12 10 9 7 7 8 8 8 8 9 12 18 19 27 40 57 62 62 69 50 45 47 52 54 47 42 39 38 42 52 61 62 65 68 68 64 61 58 59 60 62 61 57 57
21 18 18 18 15 12 10 8 8 9 8 8 8 9 9 14 16 17 26 39 59 70 69 70 67 52 51 54 55 49 45 41 42 44 54 62 64 67 70 68 66 64 61 64 66 62 63 62 58
18 16 20 19 14 11 9 8 9 10 10 10 9 9 10 11 15 18 20 33 52 52 81 77 74 61 58 59 53 53 48 45 46 47 51 60 66 69 70 69 64 64 65 66 68 67 64 66 61
19 18 20 17 16 13 11 9 10 10 10 10 10 11 12 13 18 19 19 22 44 66 90 86 87 73 61 63 56 56 52 49 49 48 50 55 63 66 68 66 64 64 65 65 66 65 63 68 65
17 16 19 17 16 14 10 9 10 11 11 12 14 14 15 15 18 18 16 18 29 65 72 95 96 77 58 59 60 60 57 54 52 52 52 52 57 60 64 64 66 67 69 69 65 64 62 60 67
17 19 21 18 15 13 10 9 10 11 11 13 13 14 15 16 17 16 15 17 21 52 75 71 97 96 67 62 64 65 62 60 58 57 56 55 55 56 58 61 65 69 75 73 68 67 70 67 64
17 20 20 15 13 13 11 10 10 10 12 14 14 14 14 16 16 16 16 17 18 26 68 74 76 98 97 84 70 68 66 63 62 62 60 60 61 61 61 59 63 66 76 80 72 68 71 74 76
17 21 18 16 15 15 13 12 12 11 12 10 12 12 13 15 16 16 17 17 16 20 46 66 70 88 98 98 99 93 77 69 67 68 65 63 64 68 77 79 74 73 75 84 80 72 73 76 80
20 16 16 16 16 14 12 12 12 13 13 12 12 12 12 13 13 15 16 16 16 17 23 67 67 72 88 98 96 99 94 84 75 72 70 71 72 73 86 80 83 80 73 76 78 77 78 76 76
21 18 16 15 14 14 13 12 12 11 11 10 10 11 12 13 14 14 15 14 15 17 22 24 54 81 78 87 93 91 89 93 91 96 87 76 80 77 78 94 80 84 80 77 80 82 82 83 79
22 20 18 17 13 13 14 13 12 12 11 11 11 11 12 13 15 14 14 15 19 24 28 29 27 48 75 85 79 91 97 90 93 89 96 91 89 88 78 82 83 82 84 83 85 82 88 81 84
22 23 19 18 18 16 14 16 16 15 14 13 12 12 12 13 14 14 15 21 26 31 35 44 47 43 49 74 80 84 78 86 89 90 84 82 79 82 92 84 85 73 85 82 84 81 89 87 89
28 27 34 24 19 17 16 23 15 14 13 13 12 13 13 14 14 15 22 32 32 36 44 54 59 61 45 36 73 78 85 82 85 89 91 84 77 67 68 78 82 81 81 79 83 72 89 86 90
32 41 38 31 21 19 18 22 15 14 14 12 12 13 13 14 15 21 35 36 40 42 52 58 61 63 65 46 28 36 75 78 84 83 84 90 84 78 56 70 72 61 76 82 89 84 79 82 85
38 33 29 32 25 21 20 20 15 14 13 13 13 12 12 13 16 36 38 43 48 53 60 63 67 69 67 57 51 42 31 35 70 80 88 85 86 84 79 82 92 71 72 65 87 80 76 83 84
30 32 35 28 23 28 30 29 17 14 15 14 14 13 12 14 30 37 45 50 56 60 67 69 67 59 59 62 70 69 66 65 56 62 73 86 83 81 92 87 90 98 100 66 73 72 80 86 91
34 42 45 40 30 29 35 45 43 15 14 13 13 12 14 16 30 39 44 50 59 63 68 66 65 54 56 66 66 67 68 63 61 53 68 75 70 80 81 96 84 97 99 93 74 57 72 98 93
34 38 46 48 38 34 39 55 44 23 14 12 12 11 14 26 34 39 44 51 57 61 71 77 75 71 71 77 78 83 81 74 67 46 49 67 78 68 79 87 91 92 84 89 95 90 65 77 97
45 35 40 47 56 81 44 83 47 25 19 13 12 14 28 36 38 42 47 52 55 63 72 81 82 78 84 83 81 88 98 98 74 77 67 51 77 78 70 65 74 94 82 89 76 95 94 96 94
43 56 62 73 77 66 61 65 44 24 28 22 22 29 38 42 44 46 50 54 58 67 78 86 78 74 73 82 87 94 93 97 96 80 61 65 65 80 73 78 75 85 82 80 47 92 99 99 93
57 72 67 70 72 94 58 53 61 42 26 18 26 42 44 46 49 48 51 56 64 72 81 84 75 78 88 98 98 98 98 94 95 98 89 59 61 66 77 67 71 86 93 87 81 60 77 96 82
55 91 92 92 93 68 36 53 60 37 47 24 55 48 47 49 50 50 55 63 69 76 84 85 83 89 99 95 98 100 100 100 99 97 98 85 59 76 87 76 72 87 88 84 83 79 99 83 65
53 78 74 90 85 57 41 90 73 70 56 65 73 61 48 49 52 55 59 67 72 80 88 94 91 97 99 91 97 100 100 100 99 98 99 98 76 83 73 83 78 76 81 98 99 96 95 64 60
75 91 57 67 71 94 74 56 56 70 61 65 73 62 45 47 50 55 58 67 74 83 89 98 96 99 98 95 99 100 100 100 100 100 99 98 87 70 91 93 88 83 81 86 100 96 78 64 51
50 46 97 94 88 87 46 56 84 68 64 52 54 45 42 45 49 54 59 68 77 85 91 98 100 100 99 95 98 100 100 99 100 100 99 100 87 92 90 81 87 84 84 86 98 88 81 77 81
36 41 80 97 55 78 60 96 95 92 82 56 42 40 44 47 53 58 63 70 78 86 94 98 99 96 99 98 96 96 98 98 100 99 99 100 98 94 88 91 93 96 92 95 97 99 100 98 80
28 35 70 98 94 90 82 77 84 88 63 36 32 39 45 52 58 63 68 73 81 89 96 99 100 98 100 100 99 96 94 89 100 99 98 100 88 68 91 89 88 98 99 98 98 98 98 83 83

GFSSGP_850_rhum_111.txt.gz
RH
10 18 24 24 30 32 29 20 14 10 10 8 8 9 9 8 16 38 37 40 46 57 54 54 40 35 33 34 35 35 37 37 36 33 43 54 55 59 57 54 51 44 39 39 43 45 46 46 44
13 24 30 24 32 35 29 16 12 11 9 8 8 8 8 12 16 27 26 31 50 52 60 56 48 41 36 37 41 42 41 38 34 33 40 52 55 62 60 58 56 50 45 43 45 47 51 54 54
21 24 27 30 33 35 27 14 10 10 8 8 8 8 9 18 17 26 26 22 43 54 58 63 60 48 42 41 44 46 46 40 34 35 42 53 57 61 64 61 59 55 51 51 50 49 49 49 52
22 22 20 30 33 24 19 15 9 9 9 8 8 9 10 11 16 19 24 18 19 60 63 65 65 56 50 46 49 51 47 41 38 37 43 53 59 60 65 64 62 59 55 55 56 56 56 54 51
29 22 32 32 28 21 15 12 11 9 10 9 8 10 11 13 16 18 20 16 19 49 66 70 70 60 51 50 52 56 49 44 40 41 44 51 60 62 66 66 65 62 59 57 60 58 60 59 57
24 21 34 37 28 19 15 12 11 11 10 10 10 10 10 15 16 18 19 18 17 26 53 71 73 70 53 54 55 56 51 46 42 42 44 53 62 64 66 67 66 64 62 59 62 62 61 59 58
25 31 35 31 25 21 16 12 12 12 12 12 13 14 16 19 18 18 18 19 22 34 34 54 80 75 65 57 59 59 53 49 46 45 46 54 62 66 69 69 65 64 64 62 60 63 64 61 61
19 26 29 26 25 24 15 13 11 12 12 12 13 16 15 18 18 18 17 17 20 34 37 44 54 80 78 62 61 60 53 52 49 48 47 51 57 66 69 69 66 65 65 64 62 65 67 64 62
19 30 30 26 23 19 15 18 15 11 11 12 14 14 13 16 16 16 16 16 18 26 46 42 61 72 88 69 60 61 58 56 53 52 52 50 53 58 60 60 60 61 64 65 66 65 67 66 65
23 34 28 20 18 20 18 17 15 14 13 13 12 13 14 14 15 16 16 16 17 38 27 67 66 70 91 82 66 62 60 58 56 55 55 52 52 51 53 55 57 61 66 69 70 70 69 69 66
22 28 22 20 17 18 19 18 16 14 17 14 15 14 14 13 14 16 15 16 17 22 50 28 64 70 79 96 78 73 68 65 62 59 58 58 55 54 56 56 58 61 66 71 70 72 70 67 65
29 24 21 19 17 18 18 17 17 14 14 12 12 12 12 12 14 14 16 15 16 17 24 66 74 84 83 85 95 95 85 78 69 65 64 64 62 61 59 57 58 61 64 66 67 66 68 66 68
30 27 24 23 21 19 18 16 16 16 14 12 12 11 11 11 12 13 14 15 16 22 35 64 75 79 93 97 94 96 99 90 86 76 69 67 66 64 62 61 59 61 64 67 69 65 67 70 71
30 29 28 25 22 21 21 20 17 15 14 13 12 12 12 11 12 14 14 15 21 24 32 33 32 39 76 95 99 91 91 98 99 94 86 85 79 73 67 69 72 76 68 72 74 63 65 68 71
30 35 30 28 23 23 20 24 22 18 16 15 14 15 13 12 13 14 17 24 29 34 39 37 42 36 36 62 92 88 82 94 89 90 97 90 89 86 78 74 72 78 81 80 85 81 68 76 74
38 36 44 30 27 25 27 36 23 18 16 16 16 16 14 12 13 15 19 27 34 37 42 46 42 45 39 34 54 80 88 80 78 84 84 86 87 87 87 82 87 78 88 82 87 84 78 82 85
46 56 47 39 28 29 30 35 24 29 25 17 16 15 14 13 15 22 27 34 39 44 47 51 50 47 38 30 28 40 67 82 89 82 79 84 82 82 80 87 86 89 90 85 79 79 78 74 89
55 54 44 41 29 38 43 37 27 26 28 25 16 14 14 14 23 32 38 43 46 48 51 52 53 58 56 46 31 24 22 32 75 83 87 89 89 85 81 81 84 84 85 91 87 82 83 82 77
41 41 39 33 32 39 43 42 45 37 36 34 19 14 14 25 40 43 47 51 49 52 51 53 52 53 53 55 52 44 36 31 29 32 61 80 84 88 76 86 87 81 79 84 94 87 80 87 88
34 38 44 38 32 38 43 50 40 35 37 36 32 14 16 43 46 49 51 52 54 56 59 55 56 56 54 51 57 62 60 51 45 33 40 46 63 77 94 87 86 91 86 74 78 91 80 96 85
32 42 43 42 36 41 48 52 45 34 32 32 28 18 17 43 48 52 55 57 59 60 63 64 63 56 50 50 51 55 62 65 66 62 52 40 51 72 78 86 89 85 92 88 79 93 95 99 97
44 36 58 65 74 86 64 85 52 42 38 33 35 25 44 50 49 53 56 60 62 63 61 65 65 60 63 63 62 73 79 74 70 75 68 63 50 49 62 65 85 82 84 80 76 82 88 67 69
56 63 69 72 79 76 68 86 55 40 39 34 41 40 51 51 51 54 57 60 61 55 58 65 62 62 66 71 77 82 83 85 85 87 86 75 68 60 59 66 88 94 80 70 70 74 76 66 69
59 70 65 70 82 95 61 66 59 47 46 58 54 49 51 51 55 59 60 60 61 61 57 58 58 59 62 67 76 80 83 84 84 84 90 96 92 71 58 62 77 88 94 80 62 66 77 61 60
76 79 94 93 97 86 38 64 64 47 53 63 68 73 57 57 60 64 67 71 67 74 72 66 61 63 65 69 73 80 89 87 92 91 88 94 98 96 77 66 67 73 95 92 90 71 76 80 76
74 75 87 94 92 87 64 92 74 77 90 93 87 83 70 60 60 65 70 74 77 80 81 76 71 74 76 78 78 82 86 87 95 99 98 98 99 98 98 83 61 68 74 65 69 78 74 79 80
73 91 57 86 74 90 73 65 69 83 92 91 80 75 62 57 61 66 71 75 77 80 82 83 82 78 82 84 85 84 86 86 92 98 99 100 99 98 99 94 67 74 67 41 71 91 74 81 83
61 57 95 96 93 89 59 74 97 98 100 95 81 57 63 69 66 69 75 77 80 82 88 87 85 89 94 91 87 88 88 90 90 98 99 100 100 99 100 95 78 79 63 66 84 89 79 86 78
59 68 78 88 97 96 85 99 100 100 99 95 82 65 61 65 70 73 78 82 85 87 93 100 92 94 96 96 91 90 92 94 93 95 100 100 99 100 99 99 94 81 74 76 82 78 88 86 91
39 53 61 97 92 98 98 99 92 84 88 82 55 62 66 74 74 79 83 87 92 98 99 99 100 99 94 95 93 94 98 100 98 100 98 99 100 100 100 100 82 77 77 76 82 67 85 82 100

GFSSGP_850_rhum_114.txt.gz
RH
9 18 22 22 30 37 35 25 16 14 9 9 8 8 9 12 18 30 42 34 32 42 49 48 44 45 39 37 37 35 35 38 38 35 44 52 54 55 50 44 45 42 37 36 37 40 42 45 53
10 25 26 25 36 40 35 22 14 12 9 8 8 9 12 20 33 37 36 28 26 31 55 56 46 48 42 40 42 42 41 41 40 35 40 51 54 58 56 51 50 44 41 39 42 44 46 48 48
24 23 25 33 40 40 33 16 13 10 9 8 9 9 13 20 26 29 27 21 17 21 40 58 55 50 47 43 41 43 45 43 41 37 42 51 54 60 60 55 52 45 45 45 46 49 51 55 56
26 23 24 33 36 31 23 20 15 10 9 8 8 11 13 17 17 17 18 21 15 13 32 57 65 59 52 46 43 44 45 43 40 38 43 52 55 60 64 60 57 51 47 49 51 51 53 53 54
26 27 34 35 34 27 21 17 15 15 10 9 8 10 15 19 17 17 19 15 14 12 25 58 69 69 61 51 48 46 46 44 40 39 42 50 57 59 66 65 61 57 50 47 54 57 57 58 57
22 26 39 41 33 25 21 16 15 14 11 10 10 10 18 24 21 20 18 17 15 15 17 31 70 71 69 59 53 50 50 46 42 39 41 46 56 59 63 66 64 60 56 51 52 60 58 60 60
26 34 39 33 32 27 20 15 17 16 13 13 13 15 20 19 18 19 18 17 16 18 25 24 34 58 71 63 59 56 55 49 44 41 41 44 52 58 61 66 65 62 58 57 56 58 61 60 62
21 31 31 30 29 28 19 18 18 15 15 14 13 17 22 19 18 18 18 17 17 21 30 34 36 47 60 72 63 63 61 54 48 44 44 45 49 55 59 63 64 62 60 60 60 59 60 62 60
24 33 41 32 25 24 18 21 18 17 16 14 14 14 14 17 17 16 16 16 16 19 28 45 42 58 58 70 73 64 64 59 52 48 48 50 51 54 59 63 64 61 61 61 60 60 60 63 64
26 38 32 26 22 22 20 20 20 18 18 15 13 13 14 18 17 16 15 15 16 25 35 44 51 59 62 63 74 71 66 62 55 52 51 52 50 52 55 58 61 59 58 59 60 62 63 66 63
26 30 24 22 21 20 21 20 19 19 20 16 13 12 12 12 16 17 16 15 16 16 25 44 58 73 79 78 71 72 74 68 61 56 54 53 53 52 53 54 57 58 59 62 64 64 65 65 62
33 27 26 26 25 26 26 22 22 18 18 16 15 14 13 12 12 16 16 16 15 15 17 34 79 80 89 92 89 83 78 74 69 63 58 56 57 55 52 51 53 53 55 55 60 61 62 66 64
38 33 31 30 30 29 26 24 24 22 20 17 15 14 14 13 12 12 13 14 15 18 22 60 76 93 98 93 97 92 85 86 86 74 67 63 61 60 58 55 55 55 54 54 57 59 62 65 68
35 37 35 31 30 27 27 25 23 22 20 19 18 18 16 14 13 12 13 15 22 33 61 84 85 66 81 90 92 96 98 97 98 98 91 75 70 67 66 64 59 58 55 52 55 57 61 64 70
36 43 38 35 30 29 26 30 30 22 22 21 20 19 17 16 14 14 13 18 28 36 41 45 44 43 48 77 90 84 89 97 96 99 98 88 84 83 76 75 69 63 63 60 63 67 76 73 73
43 44 54 34 28 28 29 41 27 25 27 28 28 28 26 18 16 15 18 30 44 46 47 45 41 41 42 42 48 75 88 89 88 91 89 91 97 92 85 85 84 76 72 77 84 78 80 84 77
52 69 56 43 30 32 35 43 34 29 30 31 31 30 28 26 18 27 38 42 45 44 44 41 40 40 39 37 35 36 53 76 86 90 90 90 79 82 93 87 84 82 76 79 85 90 87 88 81
65 64 54 52 39 36 43 40 31 31 35 35 35 33 30 25 30 50 52 51 50 46 40 38 36 36 33 27 26 26 30 32 49 68 86 86 87 86 85 93 88 82 82 84 81 89 88 86 82
51 54 55 46 34 39 39 39 39 35 35 33 32 33 33 48 67 66 63 60 56 53 48 41 32 24 28 31 30 29 27 29 29 32 43 65 79 87 88 87 89 95 89 85 81 76 86 88 87
56 59 54 37 33 37 42 47 40 36 34 31 32 32 53 64 69 63 60 56 51 46 43 36 33 33 34 36 41 43 40 35 37 37 33 32 43 61 74 80 87 88 93 89 85 80 78 74 75
49 50 44 43 54 45 51 60 43 34 34 32 31 30 46 54 60 66 62 58 53 44 44 39 39 38 36 36 43 51 53 53 50 50 48 47 46 38 48 62 76 82 94 92 90 82 77 75 76
54 55 59 64 70 74 63 80 46 38 38 36 34 47 64 71 74 65 63 62 60 56 48 45 40 36 38 41 45 58 62 58 58 62 60 56 57 56 53 47 57 72 76 86 90 89 74 73 85
60 61 66 70 80 89 68 93 46 37 42 40 61 83 83 81 79 74 67 63 63 56 41 47 42 26 34 45 47 54 65 68 65 68 78 76 75 75 70 65 56 55 67 74 94 91 90 80 84
65 65 64 75 87 99 58 72 70 54 58 63 74 85 89 82 80 75 74 67 60 52 42 54 48 33 45 52 60 63 70 75 74 73 80 80 82 86 89 82 76 67 60 65 76 96 94 89 78
68 72 89 88 86 87 56 67 63 93 94 80 83 93 93 86 86 80 75 71 66 61 51 53 44 47 54 57 62 71 76 79 81 79 81 87 87 89 85 94 95 83 68 58 77 94 90 91 89
78 72 89 90 93 89 58 88 99 95 97 99 95 97 100 98 88 83 80 80 76 61 57 64 62 58 59 62 68 76 80 82 82 84 84 85 96 97 90 86 100 99 92 70 69 92 90 90 93
77 86 59 86 87 96 71 74 76 96 100 100 100 100 100 100 98 94 88 83 78 70 76 79 69 65 66 71 76 79 82 84 88 88 88 88 86 88 87 84 89 100 99 93 71 83 79 86 79
63 64 93 96 96 96 70 92 94 100 100 100 100 100 100 100 99 97 92 85 80 85 79 82 89 88 88 85 84 86 86 87 91 92 92 89 83 85 90 95 99 98 99 97 75 77 68 69 70
73 72 81 81 94 97 95 97 98 100 94 97 99 100 93 88 89 94 92 94 94 95 96 93 86 86 84 84 85 87 91 93 94 89 90 89 82 87 89 97 99 99 99 99 82 81 68 67 73
52 61 74 94 88 97 94 97 95 86 83 76 79 87 91 92 87 83 83 85 93 100 99 97 88 87 86 84 89 91 92 92 93 90 88 88 91 97 98 98 99 100 100 98 99 73 72 80 77

GFSSGP_850_rhum_117.txt.gz
RH
10 18 23 23 29 38 35 27 20 15 12 9 9 9 12 16 19 21 45 39 38 38 48 41 46 46 44 42 39 37 37 37 40 44 49 48 50 51 37 39 42 40 39 36 38 42 45 54 66
14 22 25 23 35 38 30 26 20 16 13 10 9 9 14 28 36 40 37 35 34 35 41 47 43 46 44 44 44 41 40 41 41 42 49 52 53 54 47 38 42 42 39 38 39 42 46 50 54
23 22 23 35 45 38 31 21 22 17 14 11 9 10 16 24 32 29 26 22 19 24 39 49 48 47 46 44 45 44 44 45 43 39 43 51 53 56 56 46 42 41 42 41 43 45 47 49 52
23 22 23 34 36 32 26 23 20 19 15 12 9 11 18 19 23 25 20 18 17 15 23 47 53 52 52 48 47 47 46 46 44 39 38 48 52 57 59 55 49 42 41 44 46 48 49 52 55
23 24 34 35 35 29 23 19 18 20 17 11 9 10 19 21 18 20 19 18 14 14 16 27 50 65 62 54 50 50 50 48 44 41 37 43 51 55 60 61 56 52 45 44 48 51 53 54 55
24 27 41 41 35 27 22 18 18 19 18 15 14 12 20 26 22 25 24 19 18 19 18 22 35 52 63 65 56 52 51 51 48 42 38 40 48 54 60 64 61 59 53 48 49 52 54 56 58
28 36 39 36 34 29 21 18 20 19 19 16 15 21 21 28 26 22 19 18 18 18 22 26 27 34 51 68 66 58 52 53 52 44 41 43 47 56 59 64 65 63 60 56 53 56 55 56 59
22 34 32 32 32 30 20 19 18 18 19 17 16 21 22 20 19 18 18 18 17 17 18 24 32 36 38 49 66 65 61 57 56 48 43 44 48 54 59 61 66 66 66 61 58 56 59 59 59
24 36 43 33 29 25 20 24 20 20 19 18 16 15 14 19 19 18 17 16 16 16 17 21 44 46 54 58 67 71 66 65 63 53 47 48 49 50 56 59 63 64 67 66 63 62 62 62 63
28 41 37 28 23 26 23 24 23 21 20 19 17 16 14 14 13 17 17 16 16 16 17 18 41 56 70 68 67 80 84 73 71 60 52 51 51 50 55 59 62 65 68 70 70 69 68 67 67
28 34 29 24 22 26 29 29 26 22 23 18 17 18 15 15 14 13 16 17 16 16 17 17 20 46 73 80 84 78 82 84 77 67 59 55 54 54 55 58 62 65 69 71 76 75 74 72 70
34 29 30 30 31 32 34 30 28 26 24 23 22 19 16 15 14 13 13 16 16 16 16 18 54 65 67 86 91 96 88 88 84 74 67 65 62 58 54 52 56 60 61 58 65 73 74 72 72
40 37 37 36 33 32 30 32 30 28 24 22 22 21 21 20 19 18 16 13 16 16 16 22 68 80 74 86 86 91 100 93 87 83 77 72 67 62 60 56 53 52 56 57 60 65 69 74 76
39 41 40 37 35 34 34 32 27 26 23 22 25 27 27 26 26 23 18 14 15 17 18 37 69 72 72 78 86 89 88 92 99 97 97 89 79 72 68 65 62 59 59 60 59 59 60 66 76
38 46 43 38 34 34 30 36 33 20 29 29 28 28 28 27 26 25 25 18 29 37 30 64 73 59 61 80 94 93 84 78 80 97 99 100 100 92 84 78 73 70 68 65 65 66 70 75 80
46 48 56 38 31 29 32 44 34 30 28 29 31 30 28 28 28 25 24 27 46 47 69 78 74 63 50 65 84 88 83 80 80 76 82 93 100 100 100 99 94 83 78 78 77 73 76 77 81
59 69 59 46 33 34 36 42 34 28 27 32 32 30 31 28 26 32 35 45 55 60 57 53 45 42 43 42 40 38 44 66 77 80 82 89 94 97 100 99 100 96 96 92 80 82 84 75 84
69 71 60 52 38 40 46 43 31 28 30 35 34 33 30 32 35 51 62 69 71 65 59 52 49 45 41 37 32 28 28 32 37 51 62 69 80 83 86 92 97 90 93 88 93 85 73 52 82
54 59 64 53 44 47 45 41 36 32 34 36 34 34 32 55 76 76 75 76 73 68 59 50 45 37 31 27 24 22 21 25 29 30 31 35 45 64 77 82 85 87 78 86 90 91 76 62 98
61 67 67 54 45 44 48 47 40 37 38 33 33 35 50 78 79 80 75 69 66 60 55 45 35 31 28 27 25 24 24 25 28 30 33 36 38 37 36 53 73 81 84 90 97 98 97 95 88
62 67 64 60 55 52 56 60 41 32 31 30 31 32 38 69 80 81 76 69 64 55 48 45 39 34 30 27 28 32 31 35 36 37 39 43 46 49 47 44 40 46 66 77 84 99 100 99 91
71 49 55 63 66 80 58 77 43 42 53 62 80 89 82 89 94 95 85 75 64 66 55 44 35 24 17 16 14 17 17 26 33 35 35 37 46 60 65 63 60 54 46 51 67 81 94 99 99
56 60 58 66 77 84 82 85 72 66 81 91 88 94 100 99 97 94 84 76 67 65 70 51 46 31 27 26 23 25 29 37 41 48 49 48 51 65 73 79 76 71 67 64 56 62 78 89 88
64 62 66 83 86 98 65 68 77 94 97 88 85 89 96 99 100 100 99 85 74 61 66 56 58 47 44 41 40 41 38 46 53 55 59 61 62 63 74 84 88 91 86 83 76 69 64 83 88
64 68 96 93 96 90 59 75 95 95 95 95 96 100 100 100 98 99 99 94 84 72 65 67 64 66 63 54 56 51 55 60 69 69 73 72 71 72 75 84 86 87 99 100 99 89 69 86 99
78 74 87 91 91 86 68 80 97 96 95 98 99 99 99 99 100 98 97 96 92 93 86 78 75 71 64 63 69 74 78 79 80 79 81 83 83 79 82 82 89 90 88 96 99 100 97 81 99
76 85 61 86 89 97 76 96 98 96 95 96 99 100 100 97 98 100 99 98 99 94 88 80 80 78 68 74 78 81 83 83 84 86 87 86 87 85 77 78 83 96 98 98 98 100 100 96 92
63 63 87 93 91 92 76 86 95 99 100 100 99 99 100 100 95 92 95 94 97 93 90 85 85 82 81 80 82 84 87 88 88 88 85 83 84 84 81 78 78 84 94 98 99 100 100 100 95
74 81 78 81 90 92 95 88 88 98 96 98 98 99 99 100 99 94 91 95 96 97 97 95 93 90 87 87 88 90 88 88 88 89 90 88 88 90 86 88 92 98 99 98 99 99 99 100 89
59 65 84 92 94 90 95 90 75 89 86 89 86 99 99 100 99 96 96 98 99 100 90 89 87 87 91 91 90 86 87 90 89 91 92 92 95 99 100 100 100 93 97 99 99 100 99 100 93

GFSSGP_850_rhum_120.txt.gz
RH
11 18 22 23 26 33 30 25 22 19 19 13 11 11 11 18 31 28 42 36 33 41 36 40 41 43 46 47 45 42 40 38 38 38 37 40 40 37 25 36 38 38 37 35 39 45 52 54 59
12 20 22 22 32 30 26 27 21 19 17 15 10 14 20 27 28 34 34 30 28 32 45 41 46 46 46 46 46 46 44 44 42 45 46 46 48 47 33 32 37 39 37 36 38 42 45 47 51
20 20 20 37 43 31 28 22 24 20 16 16 11 12 17 22 29 34 30 26 21 24 33 43 45 49 50 49 48 47 45 46 45 44 48 52 52 53 47 34 35 39 39 38 38 41 43 44 46
20 20 24 34 33 31 27 26 22 21 17 15 13 12 19 23 27 30 26 22 20 20 27 40 51 52 53 53 51 50 48 48 47 46 46 51 54 56 55 45 38 36 40 40 42 44 45 46 50
21 23 37 36 33 29 26 21 19 23 20 18 15 18 19 22 24 23 25 26 26 25 34 45 53 54 54 55 52 50 49 50 50 48 44 49 54 57 59 57 48 41 38 42 44 47 48 50 51
24 27 40 39 34 28 26 20 20 21 20 18 18 20 19 30 28 28 25 21 20 24 25 34 46 56 61 60 57 54 51 50 51 49 44 46 53 56 60 62 58 51 45 42 45 49 52 55 56
30 38 39 36 35 30 23 19 21 21 22 19 17 24 18 22 34 29 24 20 19 18 20 22 24 28 41 58 65 63 59 58 57 54 49 46 53 56 59 63 64 58 54 49 47 50 54 57 59
23 36 36 35 35 30 22 21 21 21 22 19 18 18 17 18 20 19 19 18 18 18 17 18 19 22 30 36 52 65 67 64 64 63 56 50 55 60 59 64 67 65 61 56 53 52 55 58 60
23 39 44 34 31 27 22 27 24 23 21 21 18 17 16 16 17 16 16 18 17 17 16 17 23 38 39 40 48 65 71 67 67 69 64 58 60 63 64 63 68 70 68 64 59 58 56 59 62
30 44 39 30 26 25 27 29 30 26 26 24 22 22 22 20 16 15 14 15 17 18 17 17 22 38 48 58 62 60 74 79 70 70 69 60 59 64 67 66 66 71 74 74 69 65 64 64 66
30 38 31 26 25 34 35 34 30 27 30 25 24 24 21 20 19 20 20 16 14 16 18 17 23 33 54 68 67 66 66 74 92 80 75 68 65 67 70 70 68 70 74 78 78 74 70 69 69
36 31 32 35 35 35 37 33 31 28 28 26 25 24 25 26 25 24 24 22 19 17 17 23 24 29 51 71 79 78 72 75 78 94 83 74 69 68 70 73 73 72 73 75 78 76 73 69 70
41 40 40 38 38 37 35 37 35 32 28 27 28 28 27 25 24 24 24 25 25 20 17 23 26 51 72 60 77 87 78 80 84 96 91 84 79 73 72 76 78 75 78 81 82 78 77 73 70
42 43 42 39 36 34 39 37 30 27 29 27 24 21 21 21 21 22 22 22 21 23 19 18 19 39 45 67 65 82 72 76 99 88 90 90 89 86 84 81 82 78 76 79 77 74 76 75 77
40 48 46 39 35 36 32 30 33 30 28 24 23 22 22 24 24 27 25 22 23 27 38 27 30 37 42 56 58 76 82 82 95 95 88 88 88 94 94 92 94 90 83 76 74 71 72 76 80
48 51 57 35 38 32 32 43 31 32 28 27 25 24 25 27 30 32 30 24 37 44 79 91 100 98 71 72 77 85 83 82 80 87 83 87 82 84 92 98 98 98 93 87 82 82 78 75 74
64 60 60 50 35 38 39 45 36 28 30 31 30 30 31 33 33 44 57 59 68 84 88 88 85 81 80 77 83 86 83 80 77 75 73 75 76 78 82 91 98 99 100 99 92 84 86 88 78
64 72 64 59 40 42 49 49 40 32 31 32 34 33 33 44 65 73 76 86 86 81 76 72 68 63 58 54 49 44 40 37 37 40 52 64 69 73 78 80 80 84 91 96 83 83 85 91 83
56 55 60 57 48 56 56 48 42 34 36 37 35 35 42 77 92 91 90 86 81 75 69 63 57 52 47 42 38 33 30 28 28 29 31 33 37 41 48 60 71 75 79 82 80 77 78 90 94
63 69 73 62 51 48 52 54 46 44 46 73 88 64 80 97 94 89 83 78 72 69 63 57 49 44 41 40 35 29 27 27 29 30 31 33 35 39 41 42 38 38 51 70 80 84 100 100 99
68 71 70 70 56 55 64 61 50 52 75 86 98 98 100 100 96 89 81 78 72 68 64 65 61 53 52 43 41 34 32 32 31 31 33 39 40 41 41 43 47 45 42 41 48 71 84 97 96
80 60 62 62 68 79 57 84 71 74 81 77 97 99 100 100 100 98 86 80 76 79 78 74 70 48 74 61 56 36 28 18 14 13 15 28 41 47 50 52 58 58 57 54 52 52 62 83 97
66 52 59 66 76 82 77 85 71 83 86 85 94 100 100 100 99 99 99 94 92 89 75 73 75 70 65 66 74 55 52 28 32 31 35 32 45 54 58 60 68 76 76 74 68 63 66 64 80
61 64 65 84 85 94 74 75 76 92 95 95 98 99 99 99 99 99 100 98 99 91 82 75 71 66 56 57 70 68 63 45 46 45 43 43 48 59 63 67 73 81 84 86 93 94 92 86 73
62 69 95 95 95 90 63 77 84 94 95 94 96 99 98 93 90 92 97 98 97 98 84 76 76 72 72 61 71 77 77 66 71 63 56 61 63 67 67 72 75 76 85 88 95 98 98 99 100
78 71 81 94 92 78 69 89 82 85 88 95 98 99 100 100 100 100 98 93 91 86 79 75 75 70 78 73 82 90 81 77 75 72 74 79 82 79 79 80 81 78 80 94 98 97 98 99 99
80 82 68 94 91 96 80 88 93 87 90 96 99 100 100 100 100 100 100 100 100 97 94 86 83 84 87 88 89 90 89 83 75 75 79 82 81 82 88 97 96 87 88 96 93 97 99 98 97
67 64 92 99 94 90 76 81 91 98 98 94 98 99 99 99 98 91 89 89 93 98 100 99 92 90 98 91 90 92 89 83 82 83 84 87 90 94 98 99 99 100 96 100 99 99 96 98 97
78 81 77 81 88 90 92 88 83 87 89 95 97 99 99 99 97 96 92 90 91 95 93 94 92 90 96 98 99 98 92 92 92 92 94 98 98 98 99 100 100 100 100 100 99 100 99 100 98
67 72 77 94 91 92 94 89 80 82 85 90 96 97 99 95 94 97 93 94 93 93 93 94 92 89 91 96 92 89 93 93 92 94 95 98 100 100 99 98 99 99 99 99 100 100 100 100 98

GFSSGP_850_rhum_123.txt.gz
RH
12 16 19 21 18 20 20 20 19 18 18 16 16 12 15 19 28 23 47 47 44 33 34 34 40 40 42 42 41 42 42 40 36 33 33 32 30 22 28 31 34 34 33 32 35 40 43 47 51
14 18 21 21 20 19 18 21 21 19 18 18 13 18 16 20 31 37 39 33 31 37 36 37 40 41 44 45 44 45 46 46 44 40 39 40 37 31 22 29 31 34 34 33 34 38 40 42 45
20 20 20 24 27 20 21 21 20 19 19 17 13 14 19 27 31 39 34 32 29 33 41 41 45 45 46 48 48 49 49 49 50 49 47 47 48 44 30 26 29 33 34 34 34 37 40 42 43
20 20 22 22 24 25 22 21 20 18 18 17 17 14 20 27 37 38 38 33 30 28 33 44 48 50 49 49 51 51 52 52 51 51 52 51 52 52 47 33 29 31 34 35 36 38 41 42 43
21 22 24 27 27 25 23 22 20 19 20 18 18 18 21 30 29 29 38 38 34 30 31 36 45 52 54 54 53 53 53 52 52 52 52 53 54 56 55 48 38 32 34 37 39 40 43 42 44
23 26 26 26 28 25 22 22 20 21 22 19 18 21 18 24 38 38 31 26 23 22 22 22 23 36 52 56 57 56 56 56 56 56 54 53 55 57 58 58 52 44 38 39 42 44 46 47 48
25 25 28 30 30 27 22 21 22 22 22 19 19 18 16 16 25 30 24 21 22 23 22 23 24 26 38 56 60 58 58 59 59 60 58 53 54 57 60 61 60 56 51 46 46 48 50 51 53
24 26 31 29 29 26 22 22 24 24 22 22 21 18 18 20 17 20 19 18 19 20 20 22 29 29 30 37 50 68 70 65 62 62 63 59 56 58 58 62 64 63 60 56 53 53 55 56 56
23 28 33 30 29 25 24 26 29 26 23 26 19 22 23 22 20 16 15 14 17 19 20 19 24 31 38 48 46 53 64 73 71 70 69 66 60 61 61 62 66 67 67 64 62 60 60 63 63
25 32 31 27 25 24 31 31 31 28 27 27 25 24 24 22 21 20 19 19 18 15 16 22 25 35 47 49 53 57 64 70 74 73 73 73 66 61 63 64 65 70 73 72 70 69 70 71 69
31 29 28 25 28 37 34 32 32 29 28 26 27 28 26 27 27 26 25 25 24 21 18 15 18 29 42 61 67 66 66 64 76 83 78 77 74 67 66 71 69 68 74 78 78 76 75 82 72
31 31 30 35 38 38 35 35 31 29 26 28 28 28 24 22 22 22 22 22 22 23 23 18 15 25 37 56 74 74 65 68 66 70 93 88 82 73 69 73 77 73 70 75 80 81 78 77 75
38 38 42 41 40 39 39 35 32 31 31 28 26 23 21 21 20 24 22 19 20 21 22 23 17 18 40 46 66 62 82 84 74 72 86 96 96 92 77 75 79 82 77 74 77 80 82 83 81
43 42 41 40 36 39 36 32 33 32 29 28 24 22 24 26 36 30 25 21 18 18 19 21 21 20 62 56 46 47 53 82 73 73 83 92 91 98 99 95 93 95 95 94 84 82 84 85 85
42 41 37 33 35 32 34 24 28 32 30 28 27 28 30 40 36 40 44 39 28 26 27 28 30 26 42 55 54 54 45 51 71 73 82 80 86 83 85 88 97 98 99 98 99 83 88 91 94
42 43 31 30 32 35 29 30 26 32 30 28 29 30 34 53 59 67 74 76 76 79 87 86 88 96 100 99 74 70 70 61 64 68 63 68 68 73 77 74 70 81 94 94 94 85 88 85 85
51 31 47 36 33 32 33 38 30 31 33 33 32 35 44 64 75 88 94 94 96 97 98 98 97 97 99 98 99 99 98 93 90 90 84 75 75 75 77 78 85 86 83 99 98 98 92 90 84
33 46 52 44 32 38 43 42 36 35 36 48 62 60 84 84 96 97 93 91 88 85 81 79 77 78 81 80 79 76 71 68 66 64 62 58 60 64 68 71 73 79 82 89 94 100 100 97 91
46 47 51 48 42 51 48 44 38 41 74 81 80 85 99 100 99 89 85 82 78 75 71 66 61 62 59 60 59 57 53 50 47 43 41 38 35 35 36 39 45 54 66 75 79 79 89 98 98
54 58 55 52 46 46 44 46 52 69 86 95 95 96 98 98 96 88 77 73 71 68 65 62 60 59 59 59 54 51 51 52 50 50 49 45 46 41 38 37 39 40 40 42 48 66 77 95 98
61 62 62 60 52 47 50 48 65 64 78 91 96 98 99 100 99 91 79 74 70 67 64 64 63 59 54 52 53 56 60 58 60 54 48 49 51 53 47 46 44 52 53 50 50 49 56 76 99
68 55 56 60 56 60 51 61 58 69 71 83 95 100 99 99 97 89 84 78 76 74 72 67 68 67 66 59 52 43 44 44 65 60 50 51 54 62 56 55 50 54 65 63 62 62 61 60 72
52 52 53 56 63 70 61 66 69 66 68 94 95 100 99 94 98 83 80 80 80 80 80 74 72 71 67 68 68 69 54 40 75 80 69 59 62 69 64 63 62 61 77 83 82 82 82 78 71
53 58 62 70 70 77 57 57 63 69 69 88 94 100 98 98 100 100 100 98 92 88 86 82 80 74 73 66 70 72 70 63 66 63 66 58 59 69 70 76 70 71 82 91 90 100 99 99 99
52 61 66 78 86 67 60 70 47 78 74 74 82 98 99 99 100 100 100 100 100 95 88 88 86 81 69 75 69 70 67 65 69 79 65 68 75 74 74 77 75 75 80 86 90 95 96 97 98
64 53 60 74 74 58 62 68 55 72 80 82 91 99 100 99 99 98 98 98 97 99 92 91 88 82 78 77 75 71 86 82 79 73 77 85 92 89 89 84 84 84 84 89 92 91 93 97 99
70 73 52 71 82 87 54 56 76 79 83 89 97 98 100 99 99 98 89 88 91 88 89 90 91 89 88 85 84 76 75 81 80 77 87 95 100 97 99 100 97 99 99 99 99 99 96 92 99
58 54 84 95 85 80 55 58 62 99 99 94 96 99 100 99 100 98 92 88 88 91 89 90 92 91 92 98 97 98 93 91 89 90 94 100 100 100 99 99 99 99 99 99 99 98 99 99 98
67 69 69 69 82 68 56 56 77 88 77 87 88 100 99 99 96 89 94 90 91 88 89 90 93 94 97 93 92 92 93 85 90 92 95 100 100 100 99 99 98 100 99 99 100 100 98 99 100
54 61 64 86 89 93 90 62 67 64 65 78 88 100 100 100 88 83 88 96 99 94 95 97 96 97 99 100 97 99 95 93 91 90 92 90 92 97 99 100 100 99 99 99 99 98 100 99 98

GFSSGP_850_rhum_126.txt.gz
RH
12 17 18 21 14 11 12 15 14 14 13 13 14 12 13 14 20 24 47 52 47 45 44 42 40 44 42 40 37 38 37 36 36 33 25 27 25 24 29 33 33 32 31 34 35 38 44 49 49
16 16 21 16 14 12 13 14 15 14 14 14 11 13 13 20 30 40 42 51 55 46 41 35 42 46 45 43 41 40 40 38 38 35 32 33 31 24 27 29 33 34 32 32 34 37 41 44 45
17 19 16 14 14 12 14 14 15 14 14 13 10 13 19 28 36 42 59 46 47 53 43 38 43 46 47 47 46 45 45 45 44 41 40 40 39 33 25 29 30 34 34 33 34 36 39 41 42
24 19 17 15 14 17 15 15 15 14 14 13 12 12 21 33 42 53 50 42 39 41 45 43 47 49 48 49 49 48 48 49 49 49 48 48 46 44 36 30 30 34 36 35 35 37 40 41 43
21 18 16 16 17 16 15 16 16 15 15 14 14 16 19 28 48 58 65 46 34 30 37 43 49 52 52 51 51 50 50 51 51 51 52 52 53 51 47 40 36 34 36 37 37 39 41 43 45
19 18 18 16 18 16 16 17 16 17 16 14 15 16 17 22 26 36 32 28 22 23 30 39 43 51 58 58 57 57 58 57 54 53 53 53 54 56 55 51 46 41 38 38 38 39 42 44 47
22 20 18 19 20 20 17 18 18 18 16 16 18 15 16 19 23 24 23 34 37 27 28 29 29 36 49 60 64 65 65 66 64 60 59 56 53 54 57 58 55 52 46 42 42 42 44 46 49
22 20 20 19 21 21 18 18 20 20 18 22 20 16 17 22 23 22 22 22 28 36 28 37 34 36 46 56 64 68 69 69 68 67 67 65 60 57 57 59 60 59 56 52 49 48 49 50 52
22 20 16 18 21 20 20 19 20 23 21 22 20 21 25 26 24 24 24 23 28 18 17 20 29 38 38 41 50 56 66 73 73 71 71 72 70 65 60 59 62 63 62 61 58 56 56 58 58
20 20 18 20 19 19 21 23 23 20 18 20 20 22 25 26 27 28 26 25 28 29 23 18 16 17 29 44 45 48 55 55 64 72 80 74 76 96 98 92 65 65 67 68 66 64 65 66 84
21 19 20 20 23 25 22 21 24 21 18 17 24 22 25 23 25 28 27 27 29 29 28 30 19 16 17 46 62 57 86 92 92 83 96 84 77 77 74 95 92 68 69 75 76 74 76 77 96
22 20 19 21 29 27 24 24 21 18 18 20 24 25 22 22 24 28 31 34 36 31 33 23 24 26 41 80 88 93 93 88 76 67 70 88 86 87 84 80 80 99 99 99 99 98 96 97 98
22 22 28 28 29 27 25 23 20 17 24 24 24 22 22 25 33 37 49 52 52 38 21 20 21 23 46 95 96 94 87 73 69 67 65 71 90 94 93 88 81 94 94 94 94 94 95 93 96
32 30 28 26 22 23 25 17 22 23 26 26 23 22 24 41 52 54 59 66 52 57 46 30 24 24 26 97 98 98 95 89 81 76 70 59 78 93 95 96 93 95 96 99 93 86 88 92 92
32 28 20 18 21 21 23 16 20 24 25 22 21 23 31 59 68 75 79 77 73 75 62 52 46 40 46 99 100 100 93 76 69 89 70 63 66 73 88 97 97 94 90 94 97 99 96 95 99
25 27 16 21 21 26 18 10 17 24 21 21 24 30 45 71 80 85 88 84 78 71 73 83 92 97 98 91 99 100 100 100 99 99 92 83 82 90 99 79 78 75 72 79 88 88 88 97 100
29 12 19 17 20 20 18 18 15 20 23 27 34 40 58 70 78 86 86 86 87 88 89 89 91 92 94 99 100 100 100 99 99 98 99 99 100 97 100 99 100 99 87 84 81 90 95 92 90
11 19 23 16 19 22 22 20 20 23 30 46 44 57 64 72 79 86 87 89 88 83 77 75 76 77 78 85 92 90 86 86 87 88 87 84 81 79 78 77 76 77 85 87 90 99 99 99 99
23 22 20 17 21 32 25 25 22 29 44 49 57 67 74 80 83 83 87 88 86 74 68 65 61 62 66 63 64 72 69 80 67 59 55 52 49 48 51 59 57 56 62 87 86 88 95 96 96
29 28 25 22 30 35 24 27 31 46 60 66 65 72 80 83 84 84 82 84 83 79 66 61 57 54 51 52 52 54 58 64 63 63 64 59 55 52 50 50 49 52 48 48 50 64 89 96 98
32 32 26 30 30 28 34 25 46 51 64 72 78 80 87 89 86 84 84 83 85 86 79 69 62 61 59 54 52 54 50 68 54 50 51 49 53 54 57 56 56 60 54 54 60 59 59 92 88
26 27 33 36 37 31 35 28 34 40 54 56 65 77 83 86 87 91 90 98 96 88 81 80 74 69 65 65 68 67 87 81 56 58 45 47 52 50 52 56 57 64 60 62 71 74 79 80 81
26 36 37 38 40 41 32 43 25 38 45 51 56 77 85 94 100 99 100 100 99 93 86 84 92 79 74 74 65 69 74 73 76 80 54 48 54 58 58 68 67 72 70 71 88 97 97 99 98
35 41 43 44 41 46 27 34 19 40 36 44 54 70 80 95 98 100 98 98 99 98 98 94 96 90 84 79 74 72 70 68 78 76 80 54 61 67 72 73 82 80 82 78 86 98 100 98 99
38 41 43 39 48 34 39 39 26 34 40 44 54 65 86 95 100 99 100 100 100 99 98 98 98 98 85 78 76 76 77 74 67 61 68 69 62 76 79 87 78 82 77 84 94 91 93 95 100
42 38 36 39 30 30 41 46 38 41 49 57 59 69 88 100 98 100 100 100 97 97 89 92 97 97 86 80 77 86 77 86 80 78 76 82 76 90 87 90 99 100 99 99 100 99 100 100 99
47 57 32 41 39 61 32 25 58 59 68 64 67 78 93 100 99 100 100 99 97 99 90 85 89 92 86 86 81 79 82 87 91 96 92 97 91 94 98 99 99 98 99 100 99 99 99 100 99
43 35 67 58 61 55 28 28 37 82 90 72 70 82 94 100 100 99 92 95 100 100 94 90 90 88 89 92 88 92 89 89 93 96 92 99 99 99 98 99 100 99 99 99 99 100 100 99 99
52 55 52 46 47 50 42 36 64 78 61 72 70 81 98 99 93 90 86 88 98 100 99 99 94 93 95 93 93 94 95 89 92 97 95 94 100 99 100 99 100 100 99 99 99 100 99 100 100
30 35 40 68 65 67 68 53 37 38 45 51 57 77 100 92 88 80 80 85 96 100 100 100 96 93 90 93 93 94 93 92 100 98 100 99 100 100 100 99 97 96 96 99 99 99 100 99 100

GFSSGP_850_rhum_129.txt.gz
RH
22 23 21 18 14 10 9 10 9 10 9 10 10 11 12 19 23 33 48 59 62 62 72 46 46 44 42 36 36 39 35 34 38 43 39 24 24 27 36 37 35 35 37 39 42 42 52 57 57
19 21 20 14 12 10 9 10 11 10 11 10 8 10 11 22 32 36 44 60 62 68 60 47 43 46 46 41 37 37 36 35 35 36 35 29 30 25 31 37 38 37 36 39 41 43 53 56 53
20 21 15 11 11 10 12 10 11 11 11 9 8 12 18 26 33 38 57 56 57 63 69 58 44 48 50 46 42 40 40 39 38 37 35 34 36 30 29 33 33 37 36 35 39 44 53 55 52
19 17 14 13 11 12 11 11 12 10 11 10 9 12 22 34 42 48 52 49 52 62 70 52 50 52 52 53 51 47 45 45 44 43 40 40 40 39 33 30 33 33 35 35 38 42 47 51 49
19 16 14 13 11 12 11 12 12 12 12 11 10 13 18 21 31 41 49 51 58 63 74 42 49 53 54 56 58 57 53 52 51 50 49 48 47 46 43 37 34 32 33 35 36 39 43 48 49
18 15 15 12 12 12 11 13 12 13 13 12 12 13 16 19 22 26 31 44 54 68 78 83 51 55 57 58 59 61 62 60 58 56 55 55 54 54 51 47 43 39 35 36 36 37 40 45 47
18 15 14 13 14 15 14 14 14 14 14 14 15 14 14 19 22 22 24 24 37 60 77 91 94 53 59 60 62 62 63 65 65 63 60 58 57 59 60 58 53 49 46 41 39 40 41 44 47
17 14 14 10 13 16 15 15 16 16 16 19 18 14 16 22 22 22 21 21 26 31 43 67 82 78 90 54 54 53 57 62 64 65 64 63 62 59 59 61 62 59 56 54 47 43 44 46 48
17 16 12 11 12 16 16 15 16 18 17 18 18 18 22 24 22 24 23 22 26 28 32 24 32 66 82 90 82 55 53 63 69 70 69 68 67 67 61 59 62 63 62 64 61 55 49 49 52
14 13 13 14 13 12 15 17 15 16 15 15 18 19 21 21 22 26 23 23 26 29 30 29 38 26 70 73 74 87 79 59 60 67 74 77 80 94 90 90 69 64 63 65 68 65 60 57 62
13 14 16 14 16 16 13 14 14 14 13 13 16 19 19 18 20 24 26 28 34 39 40 60 66 63 61 67 68 71 71 78 86 97 94 96 95 93 92 95 91 84 64 67 74 72 69 63 85
17 12 13 11 19 17 14 14 14 12 12 14 17 19 17 18 23 30 37 40 47 50 60 72 44 27 39 66 73 66 64 65 69 78 86 89 86 93 82 92 89 92 96 88 89 87 94 87 96
13 9 15 16 19 19 17 17 15 13 14 18 18 17 18 24 36 38 46 50 58 61 70 39 26 24 26 44 72 77 81 81 80 84 90 97 91 83 86 88 86 88 91 92 95 93 89 89 90
20 19 18 18 16 15 16 14 14 12 17 17 18 18 25 40 46 49 55 59 66 72 77 38 37 36 38 44 82 95 85 91 98 98 95 99 95 88 85 95 85 88 97 92 86 88 87 85 84
21 20 13 13 13 14 18 14 12 15 20 16 16 18 32 51 54 63 66 65 67 73 83 78 71 66 66 69 90 91 95 93 100 100 99 94 77 67 80 97 98 99 98 96 95 92 90 90 87
18 16 15 9 14 16 16 10 12 17 18 15 17 22 38 53 58 64 66 65 67 77 73 78 79 82 88 92 92 98 100 99 99 100 98 100 96 78 88 97 98 98 96 99 99 93 87 92 92
18 13 14 14 13 11 14 11 10 13 15 16 21 27 42 51 58 67 68 70 73 77 75 75 74 74 75 80 86 95 88 99 100 100 97 100 98 99 99 99 99 98 98 98 98 99 99 95 86
13 18 13 13 14 16 15 15 11 12 16 24 28 37 44 51 60 69 72 76 74 79 82 70 67 65 62 69 72 84 90 89 88 90 93 92 92 92 91 93 94 89 92 94 94 97 99 95 98
14 16 12 10 9 17 21 18 13 13 20 27 33 42 49 57 64 67 73 76 76 80 79 74 58 56 54 55 59 81 71 72 73 75 75 69 64 65 59 60 60 53 49 59 76 95 95 93 96
20 18 16 13 13 22 20 17 13 17 26 35 37 46 51 56 58 66 70 73 77 81 82 81 82 66 57 64 65 62 75 86 69 67 78 68 59 48 46 47 48 45 46 46 47 52 56 69 87
19 19 18 18 16 18 20 20 18 27 39 44 49 50 56 57 58 65 71 79 83 88 91 88 90 90 82 65 82 82 80 76 80 82 61 53 69 48 40 43 48 49 49 50 54 60 66 60 56
21 14 21 23 22 23 23 29 18 27 41 39 41 49 54 59 63 68 78 86 90 93 97 98 98 97 96 82 92 86 91 88 92 88 91 91 61 64 50 46 45 52 56 54 48 64 73 84 78
21 24 24 23 26 24 21 24 18 15 34 34 35 45 57 68 74 78 89 92 90 92 93 97 97 97 99 84 78 79 88 92 92 97 99 98 97 66 53 53 52 50 64 63 59 68 84 93 97
23 29 28 27 27 38 24 22 18 15 25 24 30 43 56 74 79 86 91 91 91 94 96 94 92 91 100 98 96 85 86 82 80 76 71 93 99 98 75 62 58 54 60 68 78 78 89 94 99
29 30 38 39 41 43 23 25 18 22 22 21 32 41 55 72 83 84 83 84 88 86 91 91 92 92 100 98 98 97 93 99 97 88 85 79 95 96 98 84 76 67 68 91 88 89 89 99 100
31 28 32 32 28 20 25 34 26 24 29 35 39 45 62 81 88 87 85 83 81 80 95 98 93 95 100 98 94 94 91 93 99 92 89 89 94 97 97 96 92 82 93 96 100 96 100 99 98
26 38 22 32 29 37 27 18 34 35 41 45 47 51 68 85 87 92 89 84 82 85 97 96 98 100 97 97 97 96 100 98 100 100 98 100 94 99 98 98 99 90 95 99 98 99 99 99 99
23 25 45 42 48 44 25 24 27 55 61 50 51 57 76 86 90 85 76 77 82 95 98 90 94 96 98 96 93 96 96 97 98 100 100 100 94 98 100 95 95 99 98 97 99 99 99 100 99
30 40 35 34 36 41 36 32 36 53 46 56 50 56 81 88 83 83 76 73 81 90 98 99 95 98 99 97 93 94 94 98 94 95 94 99 100 98 98 97 96 99 98 100 99 100 100 99 99
21 31 33 61 51 49 47 47 24 30 31 35 43 51 77 88 78 71 66 69 78 88 97 100 100 100 99 98 95 97 98 98 98 96 91 92 92 92 93 99 100 100 100 100 99 100 100 100 99

GFSSGP_850_rhum_132.txt.gz
RH
18 22 20 19 18 15 13 9 8 9 9 9 8 10 22 30 37 59 54 57 56 66 50 44 44 43 39 33 33 35 34 34 38 45 38 25 26 28 33 32 29 31 35 39 48 50 52 57 59
21 21 18 16 19 14 11 9 9 10 10 9 9 10 20 28 34 50 53 58 62 78 49 45 46 44 44 38 36 38 36 34 36 37 36 27 28 26 32 36 34 32 33 38 43 47 50 58 58
21 20 17 15 15 14 13 10 11 10 10 8 8 16 25 28 40 49 48 51 56 63 71 53 44 45 48 45 41 41 40 38 37 38 38 32 33 29 29 35 38 38 35 37 41 44 49 55 55
21 17 16 15 13 11 11 11 10 9 10 9 10 21 24 38 43 48 46 51 57 65 70 60 47 51 52 51 49 46 46 44 43 43 43 40 37 38 34 31 33 36 39 39 40 44 46 51 52
19 17 17 15 13 12 10 11 11 10 11 10 9 20 20 21 27 37 46 54 62 71 78 57 56 57 55 54 56 54 52 51 50 49 50 49 47 45 44 40 34 34 39 41 39 42 46 48 51
18 15 18 16 12 11 10 11 11 12 12 11 12 15 19 22 22 25 31 46 62 76 85 66 60 60 60 58 57 57 57 56 55 53 53 54 54 55 54 52 47 41 37 37 40 41 44 46 48
16 18 18 13 13 14 12 13 12 12 12 14 14 14 20 23 22 21 22 25 32 50 70 88 76 47 56 59 58 60 62 62 62 61 59 57 56 56 58 58 57 52 47 42 39 39 40 44 47
13 14 17 14 10 14 14 14 14 14 17 17 17 14 22 23 22 22 22 23 29 31 30 30 66 81 85 58 61 62 65 68 68 68 67 66 63 61 59 59 61 61 56 52 50 46 43 42 44
13 16 16 12 10 16 14 12 14 17 16 16 16 20 22 22 22 24 23 24 28 30 32 37 34 47 72 81 78 78 72 66 66 69 71 70 69 68 66 64 60 60 62 60 57 56 53 49 47
13 15 14 13 12 12 13 14 13 14 15 15 16 20 20 20 21 25 24 26 32 38 42 44 38 34 29 63 71 70 70 57 54 58 67 73 76 74 73 79 78 78 67 63 64 63 62 59 53
13 16 13 13 18 14 11 12 11 13 11 11 15 18 18 17 22 28 32 39 46 49 58 50 39 32 36 44 65 71 80 72 70 67 60 62 80 82 89 89 90 89 93 86 67 65 65 64 62
15 12 11 11 15 14 11 11 12 12 11 12 15 17 16 19 31 35 42 49 56 62 64 41 26 21 25 32 64 70 69 66 79 83 81 81 77 82 79 82 83 88 88 86 87 78 68 68 66
13 11 10 13 13 16 14 14 14 13 12 15 16 16 21 32 38 43 49 57 63 67 57 36 29 23 26 26 44 69 78 78 69 72 80 81 73 76 85 86 84 79 82 88 88 90 90 88 81
11 16 12 14 14 15 15 14 13 12 14 14 15 18 35 42 46 52 57 60 66 70 60 46 43 44 46 46 44 71 89 92 85 78 75 81 80 76 73 73 74 87 76 82 87 90 89 86 83
15 19 16 13 13 12 15 17 13 12 15 16 15 20 40 45 49 56 60 61 65 76 78 63 62 65 63 73 75 84 96 99 99 92 83 94 98 100 97 87 90 89 98 92 84 84 96 97 95
19 15 17 10 11 13 14 12 8 14 17 15 14 18 41 49 53 60 63 64 67 77 83 78 70 68 70 75 82 85 84 86 99 100 95 96 97 98 99 100 99 97 98 92 94 96 97 99 100
18 16 14 12 11 14 15 13 13 14 16 15 14 19 39 46 53 62 64 68 71 79 78 73 67 63 62 70 75 80 87 89 85 87 91 98 96 94 98 99 98 96 91 96 95 93 91 90 84
15 17 15 12 13 12 13 14 11 10 11 13 18 27 39 45 54 64 68 74 74 78 76 73 64 59 57 58 68 84 80 79 85 86 83 81 83 88 91 95 96 96 91 82 81 82 80 80 79
11 14 14 10 9 15 16 15 14 13 10 18 26 30 40 48 57 61 68 73 75 82 80 82 78 68 62 67 64 59 70 86 70 73 70 67 63 58 55 54 53 57 60 55 47 43 39 39 51
16 18 18 13 9 10 14 17 15 12 11 18 24 38 42 49 53 61 67 76 82 87 88 87 86 81 65 63 80 86 78 83 79 82 70 64 59 52 44 41 43 44 44 45 46 44 38 36 49
18 20 18 15 12 14 18 20 17 13 14 31 34 35 44 47 50 59 69 82 85 90 92 89 86 83 71 65 67 64 77 78 85 88 88 90 71 62 46 47 42 44 48 43 42 44 44 40 37
24 15 14 15 19 24 14 28 16 22 26 34 38 42 46 50 56 63 73 82 83 89 93 94 93 93 87 79 72 73 83 83 84 91 85 99 98 89 66 56 54 51 51 49 49 51 53 64 60
19 15 18 18 24 23 20 22 18 14 34 36 36 41 47 54 61 70 80 81 84 90 93 93 86 91 97 93 76 73 76 78 81 76 73 72 84 87 79 77 70 63 59 61 57 55 57 65 84
13 24 24 23 24 42 25 24 21 16 21 32 31 38 50 64 70 77 82 81 83 87 89 85 86 90 90 99 99 78 73 79 92 77 81 75 79 75 78 77 82 79 76 73 72 66 70 74 95
20 33 44 42 41 42 21 23 23 19 22 25 32 42 53 65 72 74 75 74 80 82 72 81 86 90 84 87 89 84 87 92 98 88 87 92 86 94 95 88 90 88 89 84 85 84 86 91 97
28 32 35 39 41 30 17 31 23 22 24 27 32 41 57 68 76 74 75 74 74 79 61 66 89 94 79 88 95 89 92 99 100 100 99 100 100 100 100 100 99 99 98 98 96 99 100 100 99
28 35 24 34 34 44 29 21 27 32 37 35 37 49 64 76 82 83 82 79 74 82 62 58 76 89 85 88 95 98 100 97 99 100 99 100 100 100 100 100 100 100 100 99 100 100 100 99 96
22 23 46 48 52 51 30 26 33 48 54 44 47 55 67 77 81 83 77 75 77 82 68 63 70 82 89 88 94 96 97 100 97 97 100 100 100 100 98 98 100 100 100 96 98 100 99 98 99
27 30 31 36 42 42 42 46 38 52 47 48 48 52 70 77 81 79 73 74 81 86 82 68 86 87 89 90 94 99 100 100 99 96 96 95 96 96 98 100 98 96 97 98 98 99 100 100 100
19 25 29 61 54 55 56 52 39 45 38 37 38 45 67 75 76 73 71 68 78 85 92 82 93 95 99 95 100 100 100 100 100 94 94 94 95 92 95 98 94 82 88 96 100 100 100 100 100